[[{"header":{"parameterUnit":"m.s-1","parameterCategory":1,"la1":30.6,"la2":28.766,"lo1":-90.7593,"lo2":-88.6598,"dy":0.0162,"dx":0.0183,"nx":116,"ny":114,"refTime":"2024-03-30T00:00:00:Z","depth":0,"parameterNumber":2,"parameterNumberName":"U-component_of_WINDS"},"data":[0.0,0.0,0.0,0.0,0.0,0.0,0.0,0.0,0.0,0.0,0.0,0.0,0.0,0.0,0.0,0.0,0.0,0.0,0.0,0.0,0.0,0.0,0.0,0.0,0.0,0.0,0.0,0.0,0.0,0.0,0.0,0.0,0.0,0.0,0.0,0.0,0.0,0.0,0.0,0.0,0.0,0.0,0.0,0.0,0.0,0.0,0.0,0.0,0.0,0.0,0.0,0.0,0.0,0.0,0.0,0.0,0.0,0.0,0.0,0.0,0.0,0.0,0.0,0.0,0.0,0.0,0.0,0.0,0.0,0.0,0.0,0.0,0.0,0.0,0.0,0.0,0.0,0.0,0.0,0.0,0.0,0.0,0.0,0.0,0.0,0.0,0.0,0.0,0.0,0.0,0.0,0.0,0.0,0.0,0.0,0.0,0.0,0.0,0.0,0.0,0.0,0.0,0.0,0.0,0.0,0.0,0.0,0.0,0.0,0.0,0.0,0.0,0.0,0.0,0.0,0.0,0.0,0.0,0.0,0.0,0.0,0.0,0.0,0.0,0.0,0.0,0.0,0.0,0.0,0.0,0.0,0.0,0.0,0.0,0.0,0.0,0.0,0.0,0.0,0.0,0.0,0.0,0.0,0.0,0.0,0.0,0.0,0.0,0.0,0.0,0.0,0.0,0.0,0.0,0.0,0.0,0.0,0.0,0.0,0.0,0.0,0.0,0.0,0.0,0.0,0.0,0.0,0.0,0.0,0.0,0.0,0.0,0.0,0.0,0.0,0.0,0.0,0.0,0.0,0.0,0.0,0.0,0.0,0.0,0.0,0.0,0.0,0.0,0.0,0.0,0.0,0.0,0.0,0.0,0.0,0.0,0.0,0.0,0.0,0.0,0.0,0.0,0.0,0.0,0.0,0.0,0.0,0.0,0.0,0.0,0.0,0.0,0.0,0.0,0.0,0.0,0.0,0.0,0.0,0.0,0.0,0.0,0.0,0.0,0.0,0.0,0.0,0.0,0.0,0.0,0.0,0.0,0.0,0.0,0.0,0.0,0.0,0.0,0.0,0.0,0.0,0.0,0.0,0.0,0.0,0.0,0.0,0.0,0.0,0.0,0.0,0.0,0.0,0.0,0.0,0.0,0.0,0.0,0.0,0.0,0.0,0.0,0.0,0.0,0.0,0.0,0.0,0.0,0.0,0.0,0.0,0.0,0.0,0.0,0.0,0.0,0.0,0.0,0.0,0.0,0.0,0.0,0.0,0.0,0.0,0.0,0.0,0.0,0.0,0.0,0.0,0.0,0.0,0.0,0.0,0.0,0.0,0.0,0.0,0.0,0.0,0.0,0.0,0.0,0.0,0.0,0.0,0.0,0.0,0.0,0.0,0.0,0.0,0.0,0.0,0.0,0.0,0.0,0.0,0.0,0.0,0.0,0.0,0.0,0.0,0.0,0.0,0.0,0.0,0.0,0.0,0.0,0.0,0.0,0.0,0.0,0.0,0.0,0.0,0.0,0.0,0.0,0.0,0.0,0.0,0.0,0.0,0.0,0.0,0.0,0.0,0.0,0.0,0.0,0.0,0.0,0.0,0.0,0.0,0.0,0.0,0.0,0.0,0.0,0.0,0.0,0.0,0.0,0.0,0.0,0.0,0.0,0.0,0.0,0.0,0.0,0.0,0.0,0.0,0.0,0.0,0.0,0.0,0.0,0.0,0.0,0.0,0.0,0.0,0.0,0.0,0.0,0.0,0.0,0.0,0.0,0.0,0.0,0.0,0.0,0.0,0.0,0.0,0.0,0.0,0.0,0.0,0.0,0.0,0.0,0.0,0.0,0.0,0.0,0.0,0.0,0.0,0.0,0.0,0.0,0.0,0.0,0.0,0.0,0.0,0.0,0.0,0.0,0.0,0.0,0.0,0.0,0.0,0.0,0.0,0.0,0.0,0.0,0.0,0.0,0.0,0.0,0.0,0.0,0.0,0.0,0.0,0.0,0.0,0.0,0.0,0.0,0.0,0.0,0.0,0.0,0.0,0.0,0.0,0.0,0.0,0.0,0.0,0.0,0.0,0.0,0.0,0.0,0.0,0.0,0.0,0.0,0.0,0.0,0.0,0.0,0.0,0.0,0.0,0.0,0.0,0.0,0.0,0.0,0.0,0.0,0.0,0.0,0.0,0.0,0.0,0.0,0.0,0.0,0.0,0.0,0.0,0.0,0.0,0.0,0.0,0.0,0.0,0.0,0.0,0.0,0.0,0.0,0.0,0.0,0.0,0.0,0.0,0.0,0.0,0.0,0.0,0.0,0.0,0.0,0.0,0.0,0.0,0.0,0.0,0.0,0.0,0.0,0.0,0.0,0.0,0.0,0.0,0.0,0.0,0.0,0.0,0.0,0.0,0.0,0.0,0.0,0.0,0.0,0.0,0.0,0.0,0.0,0.0,0.0,0.0,0.0,0.0,0.0,0.0,0.0,0.0,0.0,0.0,0.0,0.0,0.0,0.0,0.0,0.0,0.0,0.0,0.0,0.0,0.0,0.0,0.0,0.0,0.0,0.0,0.0,0.0,0.0,0.0,0.0,0.0,0.0,0.0,0.0,0.0,0.0,0.0,0.0,0.0,0.0,0.0,0.0,0.0,0.0,0.0,0.0,0.0,0.0,0.0,0.0,0.0,0.0,0.0,0.0,0.0,0.0,0.0,0.0,0.0,0.0,0.0,0.0,0.0,0.0,0.0,0.0,0.0,0.0,0.0,0.0,0.0,0.0,0.0,0.0,0.0,0.0,0.0,0.0,0.0,0.0,0.0,0.0,0.0,0.0,0.0,0.0,0.0,0.0,0.0,0.0,0.0,0.0,0.0,0.0,0.0,0.0,0.0,0.0,0.0,0.0,0.0,0.0,0.0,0.0,0.0,0.0,0.0,0.0,0.0,0.0,0.0,0.0,0.0,0.0,0.0,0.0,0.0,0.0,0.0,0.0,0.0,0.0,0.0,0.0,0.0,0.0,0.0,0.0,0.0,0.0,0.0,0.0,0.0,0.0,0.0,0.0,0.0,0.0,0.0,0.0,0.0,0.0,0.0,0.0,0.0,0.0,0.0,0.0,0.0,0.0,0.0,0.0,0.0,0.0,0.0,0.0,0.0,0.0,0.0,0.0,0.0,0.0,0.0,0.0,0.0,0.0,0.0,0.0,0.0,0.0,0.0,0.0,0.0,0.0,0.0,0.0,0.0,0.0,0.0,0.0,0.0,0.0,0.0,0.0,0.0,0.0,0.0,0.0,0.0,0.0,0.0,0.0,0.0,0.0,0.0,0.0,0.0,0.0,0.0,0.0,0.0,0.0,0.0,0.0,0.0,0.0,0.0,0.0,0.0,0.0,0.0,0.0,0.0,0.0,0.0,0.0,0.0,0.0,0.0,0.0,0.0,0.0,0.0,0.0,0.0,0.0,0.0,0.0,0.0,0.0,0.0,0.0,0.0,0.0,0.0,0.0,0.0,0.0,0.0,0.0,0.0,0.0,0.0,0.0,0.0,0.0,0.0,0.0,0.0,0.0,0.0,0.0,0.0,0.0,0.0,0.0,0.0,0.0,0.0,0.0,0.0,0.0,0.0,0.0,0.0,0.0,0.0,0.0,0.0,0.0,0.0,0.0,0.0,0.0,0.0,0.0,0.0,0.0,0.0,0.0,0.0,0.0,0.0,0.0,0.0,0.0,0.0,0.0,0.0,0.0,0.0,0.0,0.0,0.0,0.0,0.0,0.0,0.0,0.0,0.0,0.0,0.0,0.0,0.0,0.0,0.0,0.0,0.0,0.0,0.0,0.0,0.0,0.0,0.0,0.0,0.0,0.0,0.0,0.0,0.0,0.0,0.0,0.0,0.0,0.0,0.0,0.0,0.0,0.0,0.0,0.0,0.0,0.0,0.0,0.0,0.0,0.0,0.0,0.0,0.0,0.0,0.0,0.0,0.0,0.0,0.0,0.0,0.0,0.0,0.0,0.0,0.0,0.0,0.0,0.0,0.0,0.0,0.0,0.0,0.0,0.0,0.0,0.0,0.0,0.0,0.0,0.0,0.0,0.0,0.0,0.0,0.0,0.0,0.0,0.0,0.0,0.0,0.0,0.0,0.0,0.0,0.0,0.0,0.0,0.0,0.0,0.0,0.0,0.0,0.0,0.0,0.0,0.0,0.0,0.0,0.0,0.0,0.0,0.0,0.0,0.0,0.0,0.0,0.0,0.0,0.0,0.0,0.0,0.0,0.0,0.0,0.0,0.0,0.0,0.0,0.0,0.0,0.0,0.0,0.0,0.0,0.0,0.0,0.0,0.0,0.0,0.0,0.0,0.0,0.0,0.0,0.0,0.0,0.0,0.0,0.0,0.0,0.0,0.0,0.0,0.0,0.0,0.0,0.0,0.0,0.0,0.0,0.0,0.0,0.0,0.0,0.0,0.0,0.0,0.0,0.0,0.0,0.0,0.0,0.0,0.0,0.0,0.0,0.0,0.0,0.0,0.0,0.0,0.0,0.0,0.0,0.0,0.0,0.0,0.0,0.0,0.0,0.0,0.0,0.0,0.0,0.0,0.0,0.0,0.0,0.0,0.0,0.0,0.0,0.0,0.0,0.0,0.0,0.0,0.0,0.0,0.0,0.0,0.0,0.0,0.0,0.0,0.0,0.0,0.0,0.0,0.0,0.0,0.0,0.0,0.0,0.0,0.0,0.0,0.0,0.0,0.0,0.0,0.0,0.0,0.0,0.0,0.0,0.0,0.0,0.0,0.0,0.0,0.0,0.0,0.0,0.0,0.0,0.0,0.0,0.0,0.0,0.0,0.0,0.0,0.0,0.0,0.0,0.0,0.0,0.0,0.0,0.0,0.0,0.0,0.0,0.0,0.0,0.0,0.0,0.0,0.0,0.0,0.0,0.0,0.0,0.0,0.0,0.0,0.0,0.0,0.0,0.0,0.0,0.0,0.0,0.0,0.0,0.0,0.0,0.0,0.0,0.0,0.0,0.0,0.0,0.0,0.0,0.0,0.0,0.0,0.0,0.0,0.0,0.0,0.0,0.0,0.0,0.0,0.0,0.0,0.0,0.0,0.0,0.0,0.0,0.0,0.0,0.0,0.0,0.0,0.0,0.0,0.0,0.0,0.0,0.0,0.0,0.0,0.0,0.0,0.0,0.0,0.0,0.0,0.0,0.0,0.0,0.0,0.0,0.0,0.0,0.0,0.0,0.0,0.0,0.0,0.0,0.0,0.0,0.0,0.0,0.0,0.0,0.0,0.0,0.0,0.0,0.0,0.0,0.0,0.0,0.0,0.0,0.0,0.0,0.0,0.0,0.0,0.0,0.0,0.0,0.0,0.0,0.0,0.0,0.0,0.0,0.0,0.0,0.0,0.0,0.0,0.0,0.0,0.0,0.0,0.0,0.0,0.0,0.0,0.0,0.0,0.0,0.0,0.0,0.0,0.0,0.0,0.0,0.0,0.0,0.0,0.0,0.0,0.0,0.0,0.0,0.0,0.0,0.0,0.0,0.0,0.0,0.0,0.0,0.0,0.0,0.0,0.0,0.0,0.0,0.0,0.0,0.0,0.0,0.0,0.0,0.0,0.0,0.0,0.0,0.0,0.0,0.0,0.0,0.0,0.0,0.0,0.0,0.0,0.0,0.0,0.0,0.0,0.0,0.0,0.0,0.0,0.0,0.0,0.0,0.0,0.0,0.0,0.0,0.0,0.0,0.0,0.0,0.0,0.0,0.0,0.0,0.0,0.0,0.0,0.0,0.0,0.0,0.0,0.0,0.0,0.0,0.0,0.0,0.0,0.0,0.0,0.0,0.0,0.0,0.0,0.0,0.0,0.0,0.0,0.0,0.0,0.0,0.0,0.0,0.0,0.0,0.0,0.0,0.0,0.0,0.0,0.0,0.0,0.0,0.0,0.0,0.0,0.0,0.0,0.0,0.0,0.0,0.0,0.0,0.0,0.0,0.0,0.0,0.0,0.0,0.0,0.0,0.0,0.0,0.0,0.0,0.0,0.0,0.0,0.0,0.0,0.0,0.0,0.0,0.0,0.0,0.0,0.0,0.0,0.0,0.0,0.0,0.0,0.0,0.0,0.0,0.0,-4.6791,-4.6227,0.0,0.0,0.0,0.0,0.0,0.0,0.0,0.0,0.0,0.0,0.0,0.0,0.0,0.0,0.0,0.0,0.0,0.0,0.0,0.0,0.0,0.0,0.0,-4.5675,-4.5831,-4.6261,-4.63,-4.63,-4.63,0.0,0.0,0.0,0.0,0.0,-4.63,-4.63,-4.63,-4.63,-4.6729,-4.712,-4.751,-4.7515,-4.8182,-4.9435,0.0,0.0,0.0,0.0,0.0,0.0,0.0,0.0,0.0,0.0,0.0,0.0,0.0,0.0,0.0,0.0,0.0,0.0,0.0,0.0,0.0,0.0,0.0,0.0,0.0,0.0,0.0,0.0,0.0,0.0,0.0,0.0,0.0,0.0,0.0,0.0,0.0,0.0,0.0,0.0,0.0,0.0,0.0,0.0,0.0,0.0,0.0,0.0,0.0,0.0,0.0,0.0,0.0,0.0,0.0,0.0,0.0,0.0,0.0,0.0,0.0,0.0,0.0,0.0,0.0,0.0,0.0,0.0,0.0,0.0,-4.7522,-4.6763,0.0,0.0,0.0,0.0,0.0,0.0,0.0,0.0,0.0,0.0,0.0,0.0,0.0,0.0,0.0,0.0,0.0,0.0,0.0,0.0,0.0,-4.345,-4.5051,-4.5361,-4.5753,-4.6456,-4.6534,-4.6534,-4.6534,-4.6378,0.0,0.0,0.0,-4.63,-4.63,-4.63,-4.6378,-4.6534,-4.7549,-4.8525,-4.9462,-4.9462,-5.0321,-5.1843,-5.1375,0.0,0.0,0.0,0.0,0.0,0.0,0.0,0.0,0.0,0.0,0.0,0.0,0.0,0.0,0.0,0.0,0.0,0.0,0.0,0.0,0.0,0.0,0.0,0.0,0.0,0.0,0.0,0.0,0.0,0.0,0.0,0.0,0.0,0.0,0.0,0.0,0.0,0.0,0.0,0.0,0.0,0.0,0.0,0.0,0.0,0.0,0.0,0.0,0.0,0.0,0.0,0.0,0.0,0.0,0.0,0.0,0.0,0.0,0.0,0.0,0.0,0.0,0.0,-5.052,-5.0942,-5.174,-5.1736,-5.1334,-5.0568,-4.8963,-4.8042,-4.7564,-4.6746,0.0,0.0,0.0,0.0,0.0,0.0,0.0,0.0,0.0,0.0,0.0,0.0,0.0,0.0,0.0,0.0,0.0,0.0,0.0,-4.5012,-4.6027,-4.6807,-4.7313,-4.743,-4.743,-4.743,-4.743,-4.6729,-4.63,-4.63,-4.63,-4.63,-4.63,-4.63,-4.6651,-4.743,-4.8992,-5.0594,-5.2197,-5.2197,-5.2702,-5.3561,-5.1295,-5.067,-5.1336,0.0,0.0,0.0,0.0,0.0,0.0,0.0,0.0,0.0,0.0,0.0,0.0,0.0,0.0,0.0,0.0,0.0,0.0,0.0,0.0,0.0,0.0,0.0,0.0,0.0,0.0,0.0,0.0,0.0,0.0,0.0,0.0,0.0,0.0,0.0,0.0,0.0,0.0,0.0,0.0,0.0,-4.2866,-4.455,0.0,0.0,0.0,0.0,0.0,0.0,0.0,0.0,0.0,0.0,0.0,0.0,0.0,-4.994,-5.0714,-5.0875,-5.1429,-5.2265,-5.2282,-5.2671,-5.3472,-5.3487,-5.3374,-5.3163,-5.2161,0.0,-4.8452,-4.7534,0.0,0.0,0.0,0.0,0.0,0.0,0.0,0.0,0.0,0.0,0.0,0.0,0.0,0.0,0.0,0.0,0.0,0.0,0.0,0.0,0.0,-4.7352,-4.7781,-4.8213,-4.8252,-4.8096,-4.7625,-4.7237,-4.6807,-4.6339,-4.63,-4.63,-4.63,-4.6768,-4.7939,-4.9735,-5.0945,-5.2468,-5.4149,-5.3678,-5.3912,-5.4654,-5.3014,-5.2234,-5.2117,-5.1726,0.0,0.0,0.0,0.0,0.0,0.0,0.0,0.0,0.0,0.0,0.0,0.0,0.0,0.0,0.0,0.0,0.0,0.0,0.0,0.0,0.0,0.0,0.0,0.0,0.0,0.0,0.0,0.0,0.0,0.0,0.0,0.0,0.0,0.0,0.0,0.0,0.0,0.0,0.0,-4.3206,-4.4082,-4.4795,-4.5269,-4.5653,0.0,0.0,0.0,0.0,0.0,0.0,0.0,0.0,0.0,-5.0455,-5.1501,-5.2203,-5.2586,-5.3558,-5.4508,-5.5402,-5.5413,-5.5852,-5.6674,-5.6686,-5.6374,-5.5786,-5.4893,-5.3644,-5.1994,-4.9652,-4.8404,-4.7932,0.0,0.0,0.0,0.0,-4.7439,-4.7445,0.0,0.0,0.0,0.0,0.0,0.0,0.0,0.0,0.0,0.0,0.0,0.0,-4.7742,-4.8328,-4.8915,-4.9735,-4.9813,-4.9462,-4.864,-4.8133,-4.7549,-4.6651,-4.6417,-4.6417,-4.6612,-4.79,-4.9813,-5.239,-5.3288,-5.4576,-5.6255,-5.5591,-5.5669,-5.6255,-5.5591,-5.4459,-5.3014,-5.2546,-5.1102,-4.9111,0.0,0.0,0.0,0.0,0.0,0.0,0.0,0.0,0.0,0.0,0.0,0.0,0.0,0.0,0.0,0.0,0.0,0.0,0.0,0.0,0.0,0.0,0.0,0.0,0.0,0.0,0.0,0.0,0.0,0.0,0.0,0.0,0.0,0.0,0.0,0.0,0.0,-4.4355,-4.5308,-4.5754,-4.6338,-4.6624,0.0,0.0,0.0,0.0,0.0,0.0,-5.0152,-5.0496,-5.113,-5.2198,-5.3776,-5.4703,-5.4936,-5.6174,-5.7172,-5.7891,-5.7897,-5.8234,-5.8886,-5.8843,-5.8453,-5.7751,-5.7086,-5.6188,-5.4909,-5.171,-4.9998,-4.9357,-4.9103,-4.901,-4.901,-4.9054,-4.9083,-4.9103,0.0,0.0,0.0,0.0,0.0,0.0,0.0,0.0,0.0,0.0,0.0,-4.7781,-4.8642,-5.0204,-5.157,-5.2431,-5.2509,-5.2156,-5.1258,-4.9657,-4.8369,-4.7586,-4.6729,-4.669,-4.7508,-4.9969,-5.2507,-5.5083,-5.5981,-5.727,-5.8907,-5.8868,-5.8868,-5.8907,-5.8868,-5.7035,-5.3834,-5.2156,-5.0906,-4.9889,-4.8289,0.0,0.0,0.0,0.0,0.0,0.0,0.0,0.0,0.0,0.0,0.0,0.0,0.0,0.0,0.0,0.0,0.0,0.0,0.0,0.0,0.0,0.0,0.0,0.0,0.0,0.0,0.0,0.0,0.0,0.0,0.0,0.0,0.0,0.0,0.0,0.0,0.0,0.0,-4.8126,-4.8302,0.0,0.0,0.0,0.0,-4.9211,-4.9373,-5.0171,-5.1789,-5.272,-5.3962,-5.5593,-5.6604,-5.7482,-5.8255,-5.8415,-5.8543,-5.8622,-5.8661,-5.8697,-5.881,-5.8731,-5.8637,-5.8549,-5.8422,-5.7429,-5.5654,-5.3108,-5.2066,-5.1934,-5.1039,-5.0696,-5.0666,-5.067,-5.07,-5.0675,0.0,0.0,0.0,0.0,0.0,-4.1323,-4.2266,-4.3159,-4.4218,-4.5657,-4.6856,-4.8328,-5.0243,-5.1531,-5.2585,-5.3444,-5.4068,-5.3522,-5.1531,-5.0282,-4.9031,-4.7664,-4.7315,-4.8057,-5.0008,-5.2585,-5.4654,-5.6138,-5.7543,-5.8792,-5.9924,-5.9378,-5.9417,-5.9924,-5.9339,-5.84,-5.7153,-5.5474,-5.3288,-5.0867,-5.0282,-4.8876,0.0,0.0,0.0,0.0,0.0,0.0,0.0,0.0,0.0,0.0,0.0,0.0,0.0,0.0,0.0,0.0,0.0,0.0,0.0,0.0,0.0,0.0,0.0,0.0,0.0,0.0,0.0,0.0,0.0,0.0,0.0,0.0,0.0,0.0,0.0,0.0,0.0,-4.9135,-4.9713,0.0,-5.0,-5.037,-5.0981,-5.1779,-5.2396,-5.3465,-5.5209,-5.5615,-5.631,-5.7468,-5.8375,-5.8993,-5.9273,-5.9872,-6.0172,-6.019,-6.0169,-6.0235,-6.0278,-6.0217,-6.018,-6.0123,-5.9543,-5.8615,-5.7399,-5.5933,-5.44,-5.2857,-5.255,-5.2358,-5.2339,-5.2386,-5.2396,-5.2425,0.0,0.0,0.0,0.0,-4.0991,-4.1395,-4.2613,-4.3313,-4.4414,-4.6477,-4.7714,-4.9421,-5.1999,-5.3327,-5.4498,-5.563,-5.5981,-5.5162,-5.2858,-5.1336,-4.9928,-4.8484,-4.8718,-5.0087,-5.2663,-5.4693,-5.645,-5.7894,-5.93,-6.0276,-6.0822,-6.0549,-6.0588,-6.0822,-6.0237,-5.9807,-5.9456,-5.8363,-5.5864,-5.2663,-5.2078,-5.0477,-4.8445,0.0,0.0,0.0,0.0,0.0,0.0,0.0,0.0,0.0,0.0,0.0,0.0,0.0,0.0,0.0,0.0,0.0,0.0,0.0,0.0,0.0,0.0,0.0,0.0,0.0,0.0,0.0,0.0,0.0,0.0,0.0,0.0,0.0,0.0,0.0,-4.9722,-5.1161,-5.1785,-5.2245,-5.2527,-5.2955,-5.3579,-5.4434,-5.5042,-5.5976,-5.745,-5.7752,-5.8158,-5.8736,-5.9622,-6.0085,-6.0085,-6.0685,-6.0987,-6.099,-6.1,-6.1031,-6.106,-6.101,-6.099,-6.0941,-6.0348,-5.9584,-5.8697,-5.7846,-5.6333,-5.4534,-5.4226,-5.408,-5.4049,-5.409,-5.411,-5.4072,0.0,0.0,0.0,-4.0982,-4.0984,-4.1578,-4.3314,-4.3661,-4.4648,-4.7298,-4.9082,-5.11,-5.3756,-5.5591,-5.7309,-5.8907,-5.8285,-5.7074,-5.5357,-5.2858,-5.1023,-5.0163,-5.1023,-5.2702,-5.5279,-5.6255,-5.7972,-6.0432,-6.133,-6.1796,-6.1796,-6.2657,-6.2579,-6.1796,-6.1796,-6.1291,-6.0471,-6.0432,-5.8519,-5.532,-5.3524,-5.1765,-5.0202,0.0,0.0,0.0,0.0,0.0,0.0,0.0,0.0,0.0,0.0,0.0,0.0,0.0,0.0,0.0,0.0,0.0,0.0,0.0,0.0,0.0,0.0,0.0,0.0,0.0,0.0,0.0,0.0,0.0,0.0,0.0,0.0,0.0,-4.9406,-5.0266,-5.176,-5.4342,-5.4612,-5.4968,-5.5815,-5.5812,-5.6126,-5.7022,-5.7088,-5.7462,-5.8319,-5.9127,-5.955,-5.955,-6.0358,-6.0781,-6.0781,-6.0877,-6.0911,-6.0911,-6.0965,-6.0987,-6.0987,-6.0933,-6.0911,-6.09,-6.0843,-6.0319,-5.9435,-5.8627,-5.778,-5.6907,-5.6049,-5.5703,-5.5703,-5.5703,-5.5703,-5.5588,0.0,0.0,-4.0978,-4.0987,-4.0984,-4.1572,-4.3329,-4.365,-4.4843,-4.8044,-4.9402,-5.1343,-5.4578,-5.645,-5.766,-5.8128,-5.7933,-5.6801,-5.4498,-5.2507,-5.1297,-5.1063,-5.3093,-5.4849,-5.6216,-5.8909,-6.0625,-6.133,-6.2852,-6.3594,-6.3594,-6.3828,-6.3828,-6.3594,-6.3594,-6.3086,-6.2228,-6.1603,-6.0432,-5.8792,-5.645,-5.4498,-5.2858,0.0,0.0,0.0,0.0,0.0,0.0,0.0,0.0,0.0,0.0,0.0,0.0,0.0,0.0,0.0,0.0,0.0,0.0,0.0,0.0,0.0,0.0,0.0,0.0,0.0,0.0,0.0,0.0,0.0,0.0,0.0,-4.9037,-5.0115,-5.0356,-5.2156,-5.3947,-5.5306,-5.6519,-5.7356,-5.7587,-5.7621,-5.7934,-5.8742,-5.8819,-5.9204,-6.005,-6.0319,-6.0435,-6.0435,-6.0666,-6.0781,-6.0781,-6.0843,-6.0843,-6.0843,-6.0866,-6.0827,-6.0827,-6.0854,-6.0843,-6.0843,-6.0793,-6.0319,-5.9435,-5.8627,-5.778,-5.6907,-5.6049,-5.5703,-5.5703,-5.5703,-5.5703,-5.5665,0.0,-4.0991,-4.0984,-4.0984,-4.1002,-4.1617,-4.3373,-4.3961,-4.5349,-4.8397,-5.0186,-5.2362,-5.5515,-5.6996,-5.8089,-5.8831,-5.7894,-5.6528,-5.4654,-5.3249,-5.2663,-5.3014,-5.5513,-5.7465,-5.8714,-6.1056,-6.2423,-6.2774,-6.4179,-6.4648,-6.4299,-6.4687,-6.4648,-6.4299,-6.4299,-6.4026,-6.3477,-6.2618,-6.1954,-6.1291,-5.9065,-5.6957,-5.5044,-5.4537,-5.3249,-5.1724,-5.1724,-5.1414,-5.1063,-5.1568,0.0,0.0,0.0,0.0,0.0,0.0,0.0,0.0,0.0,0.0,0.0,0.0,0.0,0.0,0.0,0.0,0.0,0.0,0.0,0.0,0.0,0.0,0.0,0.0,-5.0625,-5.1972,-5.2713,-5.408,-5.5602,-5.718,-5.8209,-5.8941,-5.9287,-5.9342,-5.955,-6.0012,-6.005,-6.0281,-6.0781,-6.0781,-6.0781,-6.0781,-6.0781,-6.0781,-6.0781,-6.0781,-6.0781,-6.0781,-6.0781,-6.0781,-6.0781,-6.0781,-6.0781,-6.0781,-6.0781,-6.0512,-5.9935,-5.8781,-5.8011,-5.7434,0.0,0.0,0.0,0.0,-5.5703,-5.5703,0.0,-4.1003,-4.1,-4.1,-4.1,-4.1602,-4.3437,-4.4356,-4.5816,-4.8436,-5.1006,-5.3533,-5.6177,-5.7192,-5.8285,-5.9846,-5.7738,-5.5981,-5.5201,-5.4615,-5.4732,-5.5708,-5.8089,-6.0156,-6.1796,-6.2813,-6.3672,-6.4455,-6.5312,-6.5351,-6.4611,-6.5351,-6.5312,-6.4572,-6.4572,-6.4533,-6.4416,-6.3633,-6.3164,-6.2852,-6.133,-5.9222,-5.7035,-5.6918,-5.5864,-5.442,-5.4342,-5.4225,-5.4147,-5.4029,0.0,0.0,0.0,0.0,0.0,0.0,0.0,0.0,0.0,0.0,0.0,0.0,0.0,0.0,0.0,0.0,0.0,0.0,0.0,0.0,0.0,0.0,0.0,0.0,-5.2433,-5.4087,-5.5895,-5.6126,-5.6973,-5.9242,-5.9588,-5.9935,-6.0704,-6.0781,-6.0781,-6.0781,-6.0781,-6.0781,-6.0781,-6.0781,0.0,0.0,0.0,-6.0781,-6.0781,-6.0781,-6.0781,-6.0781,-6.0781,-6.0781,-6.0781,-6.0781,-6.0781,-6.0781,-6.0781,-6.0781,-6.0666,-5.8973,-5.8165,-5.7857,-5.628,-5.5703,-5.5703,-5.5703,-5.5703,-5.5703,0.0,-4.109,-4.1083,-4.1083,-4.1083,-4.1675,-4.3447,-4.3853,-4.5115,-4.8358,-5.0462,-5.2641,-5.5281,-5.6333,-5.6957,-5.7309,-5.5591,-5.442,-5.4264,-5.5396,-5.6762,-5.8285,-6.0195,-6.1681,-6.2735,-6.4297,-6.5194,-6.5351,-6.617,-6.6483,-6.6327,-6.6483,-6.6483,-6.6327,-6.6327,-6.5975,-6.5351,-6.5155,-6.4297,-6.2969,-6.2618,-6.1369,-5.9573,-5.887,-5.7972,-5.6996,-5.6333,-5.5669,-5.4927,-5.4225,-5.3405,-5.2587,-5.1882,0.0,0.0,0.0,0.0,0.0,0.0,0.0,0.0,0.0,0.0,0.0,0.0,0.0,0.0,0.0,0.0,0.0,0.0,0.0,0.0,-5.3356,-5.4587,-5.6049,-5.8434,-5.8781,-5.8934,-5.9435,-6.0127,-6.0589,-6.0781,-6.0781,-6.0781,-6.0781,-6.0781,-6.0781,-6.0781,-6.0781,-6.0781,-6.0781,-6.0781,-6.0781,-6.0781,-6.0781,-6.0781,-6.0781,-6.0781,0.0,-6.0781,-6.0781,-6.0781,-6.0781,-6.0781,-6.0781,-6.0666,-5.8973,-5.7473,-5.6165,-5.5818,-5.5703,-5.5703,-5.5703,-5.5703,-5.5703,0.0,-4.1121,-4.1114,-4.1114,-4.1462,-4.2204,-4.3499,-4.4444,-4.5936,-4.8475,-5.0307,-5.2213,-5.4422,-5.5044,-5.5318,-5.5318,-5.4108,-5.3717,-5.4576,-5.6645,-5.8595,-6.0312,-6.2501,-6.3867,-6.4297,-6.5546,-6.6209,-6.6209,-6.66,-6.6795,-6.6795,-6.6795,-6.6795,-6.6795,-6.6795,-6.6561,-6.617,-6.578,-6.5116,-6.4219,-6.336,-6.2462,-6.1564,-6.0237,-5.9222,-5.8324,-5.7504,-5.6918,-5.6411,-5.5591,-5.4732,-5.3914,-5.3483,-5.2151,-5.0586,0.0,0.0,0.0,0.0,0.0,0.0,0.0,0.0,0.0,0.0,0.0,0.0,0.0,0.0,-4.8537,-4.9827,0.0,-5.2626,-5.4741,-5.6165,-5.7588,-5.9281,-5.9896,-6.0165,-6.0165,-6.0512,-6.0781,-6.0781,-6.0781,-6.0781,-6.0781,-6.0781,-6.0781,-6.0781,-6.0781,-6.0781,-6.0781,-6.0781,-6.0781,-6.0781,-6.0781,-6.0781,-6.0781,-6.0781,-6.0781,-6.0781,-6.0781,-6.0781,-6.0781,-6.0781,-6.0781,-6.0666,-5.8973,-5.728,-5.5703,-5.5703,-5.5703,-5.5703,-5.5703,-5.5703,-5.5703,0.0,-4.1286,-4.1282,-4.1127,-4.1828,-4.2686,-4.3589,-4.5036,-4.6718,-4.8552,-5.0188,-5.1744,-5.3329,-5.3483,-5.3444,-5.3249,-5.2897,-5.3563,-5.563,-5.8011,-6.0276,-6.2381,-6.4492,-6.5663,-6.5819,-6.6483,-6.6795,-6.6795,-6.6795,-6.6795,-6.6795,-6.6795,-6.6795,-6.6795,-6.6795,-6.6795,-6.6756,-6.6092,-6.5741,-6.5468,-6.4062,-6.3282,-6.2852,-6.1447,-6.0276,-5.9222,-5.8363,-5.7933,-5.766,-5.6879,-5.6138,-5.5513,-5.5357,-5.375,-5.1828,-5.1511,-4.9646,0.0,0.0,0.0,0.0,0.0,0.0,0.0,0.0,0.0,-4.7634,-4.8432,-4.9279,-5.024,-5.1443,-5.2779,-5.428,-5.6126,-5.7627,-5.8819,-5.9627,-6.0358,-6.0781,-6.0781,-6.0781,-6.0781,-6.0781,-6.0781,-6.0781,-6.0781,-6.0781,-6.0781,-6.0781,-6.0781,-6.0781,-6.0781,-6.0781,-6.0781,-6.0781,-6.0781,-6.0781,-6.0781,-6.0781,-6.0781,-6.0781,-6.0781,-6.0781,-6.0781,-6.0781,-6.0627,-6.0204,-5.8858,-5.728,-5.5703,-5.5703,-5.5703,-5.5703,-5.5703,-5.5703,-5.5703,0.0,-4.1748,-4.2019,-4.1247,-4.1833,-4.2694,-4.3554,-4.4531,-4.6013,-4.8464,-4.9633,-5.0606,-5.1572,-5.1687,-5.1375,-5.0592,-5.1843,-5.4071,-5.7309,-5.9222,-6.172,-6.5038,-6.5429,-6.5936,-6.6639,-6.6756,-6.6795,-6.6795,-6.6795,-6.6795,-6.6795,-6.6795,-6.6795,-6.6795,-6.6795,-6.6795,-6.6795,-6.6717,-6.6249,-6.5585,-6.539,-6.4375,-6.2969,-6.2774,-6.1681,-6.0159,-5.9261,-5.8441,-5.766,-5.6879,-5.6528,-5.6333,-5.5552,-5.4569,-5.3387,-5.1851,0.0,-4.8362,-4.7534,-4.6529,-4.5845,-4.6569,-4.6807,-4.7061,0.0,0.0,-4.945,-5.025,-5.1048,-5.2356,-5.4703,-5.528,-5.6203,-5.8665,-5.9242,-5.9665,-6.0512,-6.0742,-6.0781,-6.0781,-6.0781,-6.0781,-6.0781,-6.0781,-6.0781,-6.0781,-6.0781,-6.0781,-6.0781,-6.0781,-6.0781,-6.0781,-6.0781,-6.0781,-6.0781,-6.0781,-6.0781,-6.0781,-6.0781,-6.0781,-6.0781,-6.0781,-6.0781,-6.0781,-6.0781,-5.9973,-5.8588,-5.8396,-5.728,-5.5703,-5.5703,-5.5703,-5.5703,-5.5703,-5.5703,-5.5703,0.0,0.0,-4.296,-4.2618,-4.3301,-4.4056,-4.4411,-4.5195,-4.6326,-4.7919,-4.8813,-4.9472,-4.9854,-4.9462,-4.9421,-5.0046,-5.1219,-5.3405,-5.6879,-5.9651,-6.2267,-6.4726,-6.578,-6.6444,-6.6795,-6.6795,-6.6795,-6.6795,-6.6795,-6.6795,-6.6795,-6.6795,-6.6795,-6.6795,-6.6795,-6.6795,-6.6795,-6.6795,-6.66,-6.6209,-6.5234,-6.4414,-6.3594,-6.2071,-6.0393,-5.8831,-5.848,-5.7816,0.0,-5.5552,-5.5083,-5.5005,-5.4654,-5.394,-5.31,-5.2302,-5.0459,0.0,-4.6257,-4.6132,-4.6528,0.0,-4.7449,-4.8771,-4.9611,-5.0405,-5.1236,-5.204,-5.2868,-5.3897,-5.5406,-5.6511,-5.7703,0.0,-5.9935,-6.0396,-6.0742,-6.0781,-6.0589,-6.0089,-6.0473,-6.0781,-6.0781,-6.0781,-6.0781,-6.0781,-6.0781,-6.0781,-6.0781,-6.0781,-6.0781,-6.0781,-6.0781,-6.0781,-6.0781,-6.0781,-6.0781,-6.0781,-6.0781,-6.0781,-6.0781,-6.0781,-6.0781,-6.0781,-6.0242,-5.9396,-5.828,-5.7742,-5.6819,-5.5703,-5.5703,-5.5703,-5.5703,-5.5703,-5.5703,-5.5703,0.0,0.0,0.0,-4.3916,-4.4702,-4.5242,-4.5025,-4.5739,-4.6679,-4.7805,-4.8425,-4.8808,-4.88,-4.7863,-4.7824,-4.9265,-5.0397,-5.2507,-5.602,-5.9222,-6.1993,-6.4182,-6.5702,-6.6561,-6.6795,-6.6795,-6.6795,-6.6795,-6.6795,-6.6795,-6.6795,-6.6795,-6.6912,-6.7146,-6.6912,-6.6912,-6.7146,-6.6912,-6.6678,-6.6366,-6.5155,-6.4219,-6.336,-6.1213,-5.9026,-5.7113,-5.7113,-5.6411,-5.5279,-5.3795,-5.3288,-5.3288,-5.3288,-5.2687,-5.196,-5.1902,-5.0162,-4.7794,-4.5867,0.0,0.0,-4.7284,-4.8868,-5.0671,-5.1455,-5.2298,-5.3039,-5.3571,-5.4314,-5.5142,-5.5917,-5.7088,-5.828,-5.9319,-6.0012,-6.0512,-6.0781,-6.0589,-6.0204,-5.9588,-5.9858,-6.0204,-6.0435,-6.0666,-6.0781,-6.0781,-6.0781,-6.0781,-6.0781,-6.0781,-6.0781,-6.0781,-6.0781,-6.0781,-6.0781,-6.0781,-6.0781,-6.0781,-6.0781,-6.0781,-6.0781,-6.0781,-6.0781,-6.0742,-5.9896,-5.905,-5.8242,-5.7368,-5.6483,-5.5703,-5.5703,-5.5703,-5.5703,-5.5703,-5.5703,-5.5703,0.0,0.0,0.0,0.0,-4.5476,-4.5793,-4.5004,-4.5694,-4.6875,-4.8548,-4.8776,-4.8808,-4.88,-4.7323,-4.67,-4.7588,-4.9187,-5.1609,-5.5123,-5.7738,-6.0705,-6.4143,-6.5155,-6.6014,-6.6795,-6.6795,-6.6795,-6.6795,-6.6795,-6.6795,-6.6795,-6.6795,-6.7264,-6.8005,-6.7185,-6.7264,-6.8005,-6.7146,-6.6366,-6.5624,-6.5585,-6.4023,-6.1679,-6.0744,-5.8324,-5.5398,-5.5398,-5.4266,-5.2665,-5.1765,-5.1492,-5.1492,-5.1492,-5.0891,0.0,-5.0111,-4.8786,-4.7295,0.0,0.0,-4.8902,-5.0461,-5.1593,-5.2511,-5.3332,-5.4202,-5.4777,-5.4601,-5.5258,-5.6068,-5.6813,-5.6983,-5.7599,-5.9242,-5.9511,-5.9819,-6.0666,-6.0089,-5.9511,-5.9511,-5.8819,-5.8665,0.0,-6.0281,-6.0781,-6.0781,-6.0781,-6.0781,-6.0781,-6.0781,-6.0781,-6.0781,-6.0781,-6.0781,-6.0781,-6.0781,-6.0781,-6.0781,-6.0781,-6.0781,-6.0781,-6.0781,-6.0781,-6.0742,-5.9896,-5.905,-5.8242,-5.7368,-5.6483,-5.5703,-5.5703,-5.5703,-5.5703,-5.5703,-5.5703,-5.5703,0.0,0.0,0.0,0.0,0.0,-4.6033,-4.5813,-4.6025,-4.6637,-4.7773,-4.8468,0.0,0.0,0.0,0.0,0.0,-4.9112,-5.1102,-5.3407,-5.6489,-5.9261,-6.1603,-6.3086,-6.4258,-6.5119,-6.5158,-6.5429,-6.6014,-6.6014,-6.6288,-6.6795,-6.6795,-6.6951,-6.7224,-6.6912,-6.6678,-6.6405,-6.6131,-6.5194,-6.3828,-6.3243,-6.1796,-5.9766,-5.7777,-5.5591,-5.3368,0.0,-5.0984,-5.0828,-4.9969,0.0,0.0,-4.9501,-4.9096,-4.8479,-4.8974,-4.8681,-4.8266,-4.8848,0.0,-5.0602,-5.1719,-5.3117,-5.4266,-5.4519,-5.5222,-5.563,-5.4893,-5.4925,-5.5161,-5.5314,-5.5763,-5.6511,-5.7665,-5.8781,-5.9588,-5.9896,-5.9665,-5.9319,-5.8781,-5.8473,0.0,0.0,0.0,0.0,-6.0742,-6.0781,-6.0781,-6.0781,-6.0781,-6.0781,-6.0781,-6.0781,-6.0781,-6.0781,-6.0781,-6.0781,-6.0781,-6.0781,-6.0781,-6.0781,-6.0781,-6.0781,-6.0704,-5.9319,-5.855,-5.8204,-5.6742,-5.5972,-5.5703,-5.5703,-5.5703,-5.5703,-5.5703,-5.5703,-5.5703,0.0,0.0,0.0,0.0,0.0,0.0,0.0,0.0,0.0,0.0,0.0,0.0,0.0,0.0,0.0,0.0,0.0,-5.0129,-5.1221,-5.4225,-5.6762,-5.848,-6.051,-6.1993,-6.2891,-6.3204,-6.3633,-6.4219,-6.4219,-6.4648,-6.5429,-6.5429,-6.578,-6.6327,-6.5702,-6.5312,-6.5077,-6.4453,-6.3204,-6.1564,-6.1015,-5.9375,-5.7074,-5.5123,-5.3095,0.0,-4.9072,-4.8525,-4.8642,-4.8096,0.0,0.0,-4.7744,-4.7732,-4.7588,-4.8117,-4.8673,-4.9318,-5.0155,-5.1273,-5.2351,-5.3247,-5.4558,-5.558,-5.5575,-5.5735,-5.568,-5.4978,-5.4296,-5.3778,-5.3649,-5.4003,-5.4741,-5.5906,-5.7511,-5.8819,-5.9435,-5.9511,-5.9319,-5.8781,-5.8473,-5.8204,0.0,0.0,0.0,-6.0281,-6.0627,-6.0781,-6.0781,-6.0781,-6.0781,-6.0781,-6.0781,-6.0781,-6.0781,-6.0781,-6.0781,-6.0781,-6.0781,-6.0781,-6.0781,-6.0781,-6.0781,-6.0704,-5.905,-5.8319,-5.8165,-5.6434,-5.5703,-5.5703,-5.5703,-5.5703,-5.5703,-5.5703,-5.5703,-5.5703,0.0,0.0,0.0,0.0,0.0,0.0,0.0,0.0,0.0,0.0,0.0,0.0,0.0,0.0,0.0,0.0,0.0,0.0,-4.8761,-5.1143,-5.3329,-5.5044,-5.7465,-5.9183,-6.0041,-6.09,-6.1366,-6.1444,-6.1444,-6.1915,-6.2813,-6.2813,-6.3672,-6.5194,-6.3555,-6.3243,-6.387,-6.2189,-6.0468,-5.8829,-5.8829,-5.684,-5.3717,-5.2819,-5.0945,-4.8642,-4.7822,-4.7002,0.0,0.0,0.0,0.0,0.0,-4.6917,-4.7645,-4.7696,-4.8896,-5.0417,-5.1335,-5.2785,-5.4242,-5.5138,-5.5968,-5.6517,-5.6363,-5.5671,-5.4996,-5.4756,-5.3298,-5.1995,0.0,0.0,-5.2385,-5.4087,-5.5868,-5.7561,-5.9204,-5.9473,-5.9511,0.0,0.0,0.0,0.0,0.0,0.0,-5.9511,0.0,-6.0781,-6.0781,-6.0781,-6.0781,-6.0781,-6.0781,-6.0781,-6.0781,-6.0781,-6.0781,-6.0781,-6.0781,-6.0781,-6.0781,-6.0781,-6.0781,-6.0627,-5.9011,-5.828,-5.8088,-5.6395,-5.5703,-5.5703,-5.5703,-5.5703,-5.5703,-5.5703,-5.5703,-5.5703,0.0,0.0,0.0,0.0,0.0,0.0,0.0,0.0,0.0,0.0,0.0,0.0,0.0,0.0,0.0,0.0,0.0,0.0,-4.7948,-4.97,-5.1258,-5.2351,-5.3639,-5.4732,-5.5591,-5.5864,-5.6606,-5.7894,-5.7894,-5.8636,-6.008,-6.008,-6.0315,-6.0744,-6.0276,-5.9846,-5.9417,-5.8987,-5.7426,-5.5318,-5.5318,-5.36,-5.0982,-5.0126,-4.8993,-4.7783,-4.6924,0.0,0.0,0.0,0.0,0.0,0.0,-4.773,-4.956,-5.0207,-5.1177,-5.2503,-5.4606,-5.5513,-5.6032,-5.6929,-5.7289,-5.7136,-5.5815,-5.4847,-5.3783,-5.238,-5.1125,-5.0032,0.0,0.0,0.0,-5.2395,-5.5049,0.0,-5.8434,-5.9127,0.0,-5.9511,0.0,-5.8396,-5.8588,-5.9165,0.0,0.0,-6.0319,-6.0781,-6.0781,-6.0781,-6.0781,-6.0781,-6.0781,-6.0781,-6.0781,-6.0781,-6.0781,-6.0781,-6.0781,-6.0781,-6.0781,-6.0781,-6.0435,-5.9781,-5.8742,-5.7934,-5.7253,-5.6165,-5.5703,-5.5703,-5.5703,-5.5703,-5.5703,-5.5703,-5.5703,-5.5703,0.0,0.0,0.0,0.0,0.0,0.0,0.0,0.0,0.0,0.0,0.0,0.0,0.0,0.0,0.0,0.0,0.0,0.0,0.0,-4.8254,-4.9226,-4.9696,-5.0906,-5.1804,-5.2271,-5.2663,-5.3327,-5.4303,-5.4303,-5.5005,-5.6294,-5.6294,-5.6489,-5.684,-5.645,-5.602,-5.5552,-5.5162,-5.3951,0.0,0.0,-5.0982,-4.8953,-4.8447,-4.7744,-4.6963,0.0,0.0,0.0,0.0,0.0,-4.7625,-4.7893,-4.9218,-5.0857,-5.1711,0.0,-5.4713,-5.6155,-5.6787,-5.7182,-5.769,-5.7265,-5.6328,-5.4934,-5.3653,-5.2351,-5.0886,-4.9472,0.0,0.0,0.0,0.0,0.0,0.0,0.0,-5.8127,-5.9319,-6.0089,0.0,-5.9665,0.0,-5.9396,-5.9819,-6.0089,0.0,-6.0512,-6.0781,-6.0781,-6.0781,-6.0781,-6.0781,-6.0781,-6.0781,-6.0781,-6.0781,-6.0781,-6.0781,-6.0781,-6.0781,-6.0781,-6.0781,-6.0319,-5.9473,-5.8665,-5.7819,-5.6945,-5.6049,-5.5703,-5.5703,-5.5703,-5.5703,-5.5703,-5.5703,-5.5703,-5.5703,0.0,0.0,0.0,0.0,0.0,0.0,0.0,0.0,0.0,0.0,-5.1459,-5.1418,0.0,0.0,0.0,0.0,0.0,0.0,0.0,0.0,-4.743,-4.743,-4.8835,-4.9616,-4.9616,-5.036,-5.0789,-5.0906,-5.0906,-5.1336,-5.2197,-5.2197,-5.2585,-5.3288,-5.2507,-5.2197,-5.2119,-5.1375,-5.0555,-4.9772,-4.9772,-4.8835,-4.743,0.0,0.0,0.0,0.0,0.0,0.0,0.0,-4.7899,-4.8367,-4.9811,-5.1102,-5.2234,-5.3014,-5.4966,-5.6957,-5.7074,-5.7543,-5.7972,-5.7972,-5.6723,-5.5157,-5.4,-5.2409,-5.084,-4.9803,0.0,-4.6907,-4.687,-4.7542,-4.8625,-5.025,0.0,-5.6165,-5.7896,-5.9588,-6.0666,-6.0781,-6.0781,-6.0781,-6.0781,-6.0781,-6.0781,-6.0781,-6.0781,-6.0781,-6.0781,-6.0781,-6.0781,-6.0781,-6.0781,-6.0781,-6.0781,-6.0781,-6.0781,-6.0781,-6.0781,-6.0781,-6.0781,-6.0781,-6.0319,-5.9473,-5.8665,-5.7819,-5.6945,-5.6049,-5.5703,-5.5703,-5.5703,-5.5703,-5.5703,-5.5703,-5.5703,-5.5703,0.0,0.0,0.0,0.0,0.0,0.0,0.0,0.0,0.0,0.0,-5.1845,-5.1418,0.0,0.0,0.0,0.0,0.0,0.0,0.0,0.0,0.0,0.0,-4.6807,-4.6963,-4.6963,-4.712,-4.7549,-4.825,-4.825,-4.8681,-4.9462,-4.9462,-4.9579,-4.9696,-4.954,-4.9462,-4.9462,-4.9306,-4.8798,-4.8016,-4.8016,-4.7432,-4.6534,-4.6534,0.0,0.0,0.0,0.0,0.0,0.0,-4.954,-5.0789,-5.1063,-5.3249,-5.5747,-5.5864,-5.7231,-5.8831,-5.9534,-5.9339,-5.887,-5.887,-5.7621,-5.5782,-5.3426,-5.1567,0.0,0.0,-4.6896,-4.6098,-4.602,-4.7135,0.0,-4.9471,0.0,0.0,0.0,0.0,-5.9973,0.0,0.0,0.0,0.0,0.0,0.0,0.0,-6.0781,-6.0781,-6.0781,-6.0781,-6.0781,-6.0781,-6.0781,-6.0781,-6.0781,-6.0781,-6.0781,-6.0781,-6.0781,-6.0781,-6.0781,-6.0781,-6.0319,-5.9473,-5.8665,-5.7819,-5.6945,-5.6049,-5.5703,-5.5703,-5.5703,-5.5703,-5.5703,-5.5703,-5.5703,-5.5703,0.0,0.0,0.0,0.0,0.0,0.0,0.0,-5.0968,-5.2561,-5.3877,-5.3678,-5.3095,-5.2163,-5.1655,-5.1032,0.0,0.0,0.0,0.0,0.0,0.0,0.0,0.0,0.0,0.0,-4.63,-4.6495,-4.6924,0.0,-4.712,-4.751,-4.751,-4.751,-4.751,-4.751,-4.751,-4.751,-4.751,-4.7276,-4.6924,-4.6924,-4.6651,0.0,0.0,0.0,0.0,0.0,0.0,0.0,0.0,-4.9969,-5.157,-5.2468,-5.4225,-5.6098,-5.6957,-5.8128,-5.93,-6.0159,-5.9768,-5.9102,-5.9102,-5.7153,-5.4689,-5.2533,0.0,0.0,0.0,-4.6297,-4.59,-4.5803,0.0,0.0,0.0,0.0,0.0,0.0,0.0,0.0,0.0,0.0,0.0,0.0,0.0,0.0,-6.0781,-6.0781,-6.0781,-6.0781,-6.0781,-6.0781,-6.0781,-6.0781,-6.0781,-6.0781,-6.0781,-6.0781,-6.0781,-6.0781,-6.0781,-6.0781,-6.0781,-6.0319,-5.9473,-5.9088,-5.8204,-5.6983,-5.656,-5.6088,-5.5703,-5.5703,-5.5703,-5.5703,-5.5703,-5.5703,-5.5703,0.0,0.0,0.0,0.0,0.0,0.0,-4.9876,-5.19,-5.3806,-5.5359,-5.5747,-5.524,-5.3717,-5.2429,-5.1336,0.0,0.0,0.0,0.0,0.0,0.0,0.0,0.0,0.0,0.0,0.0,0.0,-4.6573,-4.6573,0.0,0.0,0.0,0.0,0.0,-4.6768,-4.6846,-4.6846,-4.6846,-4.6846,0.0,0.0,-4.6846,0.0,0.0,0.0,0.0,0.0,0.0,0.0,0.0,-4.9813,-5.1375,-5.2741,-5.4264,-5.5825,-5.7153,-5.8285,-5.93,-6.0159,-5.9612,-5.887,-5.9063,-5.6528,-5.3559,-5.1794,-5.0057,0.0,0.0,-4.6022,-4.5911,-4.5831,0.0,0.0,0.0,0.0,0.0,0.0,0.0,0.0,0.0,0.0,0.0,0.0,0.0,0.0,-6.0781,-6.0781,-6.0781,-6.0781,-6.0781,-6.0781,-6.0781,-6.0781,-6.0781,-6.0781,-6.0781,-6.0781,-6.0781,-6.0781,-6.0781,-6.0781,-6.0781,-6.0435,-5.9781,-5.9588,-5.8742,-5.7522,-5.7368,-5.6857,-5.6242,-5.6242,-5.6126,-5.5972,-5.5972,-5.5857,-5.5703,0.0,0.0,0.0,0.0,0.0,0.0,-4.9954,-5.2916,-5.5406,-5.6372,-5.7113,-5.7231,-5.6333,-5.4068,-5.2234,0.0,0.0,0.0,0.0,0.0,0.0,0.0,0.0,0.0,0.0,0.0,0.0,-4.7469,-4.7469,0.0,0.0,0.0,0.0,0.0,0.0,-4.8564,-4.8564,-4.8564,0.0,0.0,0.0,0.0,0.0,0.0,0.0,0.0,0.0,0.0,0.0,0.0,0.0,-5.0241,-5.0397,-5.3247,-5.6528,-5.6684,0.0,0.0,-6.0159,-5.9183,-5.8128,-5.8909,-5.6528,-5.3522,-5.1802,0.0,0.0,-4.6557,-4.6095,-4.5958,-4.5912,-4.6483,-4.7028,0.0,0.0,-5.0317,0.0,0.0,0.0,0.0,0.0,0.0,0.0,0.0,0.0,-6.0781,-6.0781,-6.0781,-6.0781,-6.0781,-6.0781,-6.0781,-6.0781,-6.0781,-6.0781,-6.0781,-6.0781,-6.0781,-6.0781,-6.0781,-6.0781,-6.0781,-6.0742,-6.0627,-5.9858,-5.9396,-5.9204,-5.8473,-5.8127,-5.805,-5.805,-5.7588,-5.6868,-5.6868,-5.6368,-5.5703,0.0,0.0,0.0,0.0,0.0,0.0,-5.069,-5.3845,-5.6571,-5.7933,-5.8831,-5.9026,-5.8207,-5.6294,-5.4264,-5.2351,0.0,0.0,0.0,0.0,0.0,0.0,0.0,0.0,0.0,0.0,-4.8642,-4.833,-4.833,0.0,0.0,0.0,0.0,0.0,0.0,0.0,-4.8798,0.0,0.0,0.0,0.0,0.0,0.0,0.0,0.0,0.0,0.0,0.0,0.0,0.0,0.0,0.0,-4.915,-5.0867,0.0,0.0,-5.6645,-5.7894,-5.9261,-5.8714,-5.7777,-5.7621,-5.5396,-5.2741,-5.1023,0.0,-4.7682,-4.6446,-4.6115,-4.6032,-4.5917,-4.6109,-4.6422,-4.6831,0.0,0.0,0.0,0.0,0.0,0.0,0.0,0.0,0.0,0.0,-6.0781,-6.0781,-6.0781,-6.0781,-6.0781,-6.0781,-6.0781,-6.0781,-6.0781,-6.0781,-6.0781,-6.0781,-6.0781,-6.0781,-6.0781,-6.0781,-6.0781,-6.0781,-6.0781,-6.0781,-6.0435,-5.9973,-5.9473,-5.9165,-5.8742,-5.8319,-5.8319,-5.778,-5.6983,-5.6983,-5.6445,-5.5703,0.0,0.0,0.0,0.0,0.0,-4.9358,-5.0801,-5.3996,-5.6723,-5.8168,-5.9534,-5.9963,-5.8831,-5.766,-5.5903,-5.3327,-5.2273,0.0,0.0,0.0,0.0,0.0,0.0,0.0,0.0,0.0,-4.9423,-4.9189,-4.9189,-4.9032,0.0,0.0,0.0,0.0,0.0,0.0,0.0,0.0,0.0,0.0,0.0,0.0,0.0,0.0,0.0,0.0,0.0,0.0,0.0,0.0,0.0,0.0,0.0,0.0,0.0,0.0,-5.4771,-5.5825,-5.7504,-5.7348,-5.6606,-5.6294,-5.4264,-5.1921,0.0,0.0,-4.7296,-4.6418,-4.6183,-4.6078,-4.5964,-4.5854,-4.5981,-4.648,0.0,-4.7971,0.0,0.0,0.0,0.0,0.0,0.0,0.0,0.0,-6.0781,-6.0781,-6.0781,-6.0781,-6.0781,-6.0781,-6.0781,-6.0781,-6.0781,-6.0781,-6.0781,-6.0781,-6.0781,-6.0781,-6.0781,-6.0781,-6.0781,-6.0781,-6.0781,-6.0781,-6.0781,-6.0435,-5.9896,-5.9896,-5.955,-5.905,-5.905,-5.8357,-5.7357,-5.7357,-5.6665,-5.5703,0.0,0.0,0.0,0.0,0.0,-4.9085,-4.9983,-5.3061,-5.563,-5.6528,-5.8831,-5.9729,-5.8011,-5.7816,-5.6762,-5.4225,-5.3171,0.0,0.0,0.0,0.0,0.0,0.0,0.0,0.0,0.0,-5.0945,-5.0085,-5.0085,-4.9655,-4.8837,-4.9694,-5.0085,-5.0124,0.0,0.0,0.0,0.0,0.0,0.0,0.0,0.0,0.0,0.0,0.0,0.0,0.0,0.0,0.0,0.0,0.0,0.0,0.0,-4.6924,-4.8133,0.0,-5.2078,-5.3134,-5.4851,-5.4693,-5.4225,-5.5083,-5.3366,-5.118,0.0,0.0,-4.735,-4.6481,-4.6265,-4.6176,-4.6022,-4.5923,-4.5852,-4.5726,-4.5659,0.0,0.0,0.0,0.0,0.0,0.0,0.0,0.0,0.0,-6.0781,-6.0781,-6.0781,0.0,-6.0781,-6.0781,-6.0781,-6.0781,-6.0781,-6.0781,-6.0781,-6.0781,-6.0781,-6.0781,-6.0781,-6.0781,-6.0781,-6.0781,-6.0781,-6.0781,-6.0781,-6.0781,-6.0781,-6.0781,-6.0781,-6.0781,-6.0781,-5.9742,-5.828,-5.828,-5.7203,-5.5703,0.0,0.0,0.0,0.0,0.0,0.0,-5.0754,-5.2938,-5.4732,-5.5591,-5.6918,-5.7582,-5.7035,-5.6996,-5.6177,-5.4186,-5.321,0.0,0.0,0.0,0.0,0.0,0.0,0.0,0.0,-5.1414,-5.157,-5.1882,-5.1882,-5.1726,-5.1455,-5.1765,-5.157,-5.0984,-5.1297,-5.1414,0.0,0.0,0.0,0.0,0.0,0.0,0.0,0.0,0.0,0.0,0.0,0.0,0.0,0.0,0.0,0.0,0.0,0.0,0.0,-4.8408,-4.9813,-5.118,-5.2312,-5.2429,-5.2156,-5.1843,-5.0672,-4.9423,-4.8562,0.0,-4.6608,-4.6316,-4.6217,-4.6176,-4.6027,-4.5968,-4.5859,-4.5727,-4.6138,0.0,0.0,0.0,0.0,0.0,0.0,0.0,0.0,0.0,-6.0781,-6.0781,-6.0781,-6.0781,-6.0781,-6.0781,-6.0781,-6.0781,-6.0781,-6.0781,-6.0781,-6.0781,-6.0781,-6.0781,-6.0781,-6.0781,-6.0781,-6.0781,-6.0781,-6.0781,-6.0781,-6.0781,-6.0781,-6.0781,-6.0781,-6.0781,-6.0781,-5.9781,-5.8319,-5.8319,-5.7203,-5.5703,0.0,0.0,0.0,0.0,0.0,0.0,-5.0672,-5.239,-5.3717,-5.4266,-5.5357,-5.5981,-5.5669,-5.5903,-5.5396,-5.3678,-5.3014,0.0,0.0,0.0,0.0,0.0,0.0,0.0,-5.1414,-5.1414,-5.1843,-5.2704,-5.2704,-5.286,-5.3171,-5.286,-5.2392,-5.1882,-5.1531,-5.1414,0.0,0.0,0.0,0.0,0.0,0.0,-5.1414,0.0,0.0,0.0,0.0,0.0,0.0,0.0,0.0,0.0,0.0,0.0,0.0,0.0,-4.7861,-4.8915,0.0,-5.0438,-5.0282,-4.9735,-4.8954,0.0,0.0,0.0,-4.6179,-4.5809,-4.5716,-4.568,-4.557,-4.5487,-4.5506,-4.5673,0.0,0.0,0.0,0.0,0.0,0.0,0.0,0.0,0.0,-6.0781,-6.0781,-6.0781,-6.0781,-6.0781,-6.0781,-6.0781,-6.0781,-6.0781,-6.0781,-6.0781,-6.0781,-6.0781,-6.0781,-6.0781,-6.0781,-6.0781,-6.0781,-6.0781,-6.0781,-6.0781,-6.0781,-6.0781,0.0,-6.0781,-6.0781,-6.0781,-6.0435,-5.9473,-5.828,-5.7934,-5.6896,-5.5703,0.0,0.0,0.0,0.0,0.0,0.0,0.0,-5.157,-5.2626,-5.2626,-5.4031,-5.4693,-5.3912,-5.4576,-5.4422,-5.2743,-5.2665,0.0,0.0,0.0,0.0,0.0,0.0,0.0,-5.1414,-5.1453,-5.1921,-5.2782,-5.286,-5.3288,-5.4068,-5.321,-5.2743,-5.2665,-5.1804,-5.1414,-5.1414,-5.1414,-5.1414,-5.1414,-5.1414,-5.1414,0.0,0.0,0.0,0.0,0.0,0.0,0.0,0.0,0.0,0.0,0.0,0.0,0.0,0.0,0.0,0.0,0.0,-4.8603,-4.8603,-4.8603,-4.8057,-4.7508,0.0,0.0,0.0,0.0,0.0,-4.4958,-4.4816,-4.4787,-4.5007,0.0,0.0,0.0,0.0,0.0,0.0,0.0,0.0,0.0,-6.0704,-6.0781,-6.0781,-6.0781,-6.0781,-6.0781,-6.0781,-6.0781,-6.0781,-6.0781,-6.0781,-6.0781,-6.0781,-6.0781,-6.0781,-6.0781,-6.0781,-6.0781,-6.0781,-6.0781,-6.0781,-6.0781,-6.0781,-6.0781,-6.0781,-6.0781,-6.0781,-6.0704,-5.9896,-5.905,-5.8204,-5.7396,-5.6522,-5.5703,0.0,0.0,0.0,0.0,0.0,0.0,0.0,0.0,0.0,0.0,-5.2078,-5.2234,-5.2038,-5.278,-5.2899,0.0,0.0,0.0,0.0,0.0,0.0,0.0,0.0,0.0,-5.1414,-5.2038,-5.2819,-5.3678,-5.4342,-5.4771,-5.4966,-5.4108,-5.3327,-5.2665,-5.1804,-5.1414,-5.1414,-5.1414,-5.1414,-5.1414,-5.1414,-5.1414,0.0,0.0,0.0,0.0,-5.1414,-5.0711,0.0,0.0,0.0,0.0,0.0,0.0,0.0,0.0,-4.63,-4.6378,-4.6768,0.0,-4.6885,-4.6885,-4.6768,-4.6612,0.0,0.0,0.0,0.0,0.0,0.0,0.0,0.0,0.0,0.0,0.0,0.0,0.0,0.0,0.0,0.0,0.0,0.0,-6.0704,-6.0781,-6.0781,-6.0781,-6.0781,-6.0781,-6.0781,-6.0781,-6.0781,-6.0781,-6.0781,-6.0781,-6.0781,-6.0781,-6.0781,-6.0781,-6.0781,-6.0781,-6.0781,-6.0781,-6.0781,-6.0781,-6.0781,-6.0781,-6.0781,-6.0781,-6.0781,-6.0781,-6.055,-5.9588,-5.828,-5.8088,-5.7011,-5.5703,0.0,0.0,0.0,0.0,0.0,0.0,0.0,0.0,0.0,0.0,-5.1414,-5.1414,-5.1414,-5.1804,-5.1921,0.0,0.0,0.0,0.0,0.0,0.0,0.0,0.0,-5.1414,-5.1414,-5.2234,-5.3132,-5.399,-5.4888,-5.5513,-5.5864,-5.5005,-5.4147,-5.3249,-5.196,-5.1414,-5.1414,-5.1414,-5.1414,-5.1414,-5.1414,0.0,0.0,0.0,0.0,0.0,-5.1414,-5.0594,0.0,-4.8954,-4.8017,-4.6924,0.0,0.0,0.0,0.0,-4.6027,-4.5792,-4.6183,-4.63,-4.63,-4.63,-4.63,-4.63,-4.63,0.0,0.0,0.0,0.0,0.0,0.0,0.0,0.0,0.0,0.0,0.0,0.0,0.0,0.0,0.0,0.0,-6.0281,0.0,-6.0781,-6.0781,-6.0781,-6.0781,-6.0781,-6.0781,-6.0781,-6.0781,-6.0781,-6.0781,-6.0781,-6.0781,-6.0781,-6.0781,-6.0781,-6.0781,-6.0781,-6.0781,-6.0781,-6.0781,-6.0781,-6.0781,-6.0781,-6.0781,-6.0781,-6.0781,-6.0704,-5.9935,-5.9088,-5.8204,-5.7396,-5.6511,-5.5703,0.0,0.0,0.0,0.0,0.0,0.0,0.0,0.0,0.0,0.0,0.0,0.0,0.0,0.0,0.0,0.0,0.0,0.0,0.0,0.0,0.0,0.0,-5.1414,-5.1453,-5.1609,-5.2468,-5.3405,-5.442,-5.5279,-5.6138,-5.6957,-5.5942,-5.4888,-5.3717,-5.2117,-5.1414,-5.1414,-5.1414,-5.1414,-5.1414,-5.1414,0.0,0.0,0.0,0.0,0.0,0.0,0.0,0.0,-4.8837,-4.7783,-4.6495,-4.6339,0.0,0.0,0.0,0.0,0.0,-4.6105,-4.63,-4.63,-4.63,-4.63,-4.63,-4.63,0.0,0.0,0.0,0.0,0.0,0.0,0.0,0.0,0.0,0.0,0.0,0.0,0.0,0.0,0.0,0.0,0.0,-6.0781,-6.0781,-6.0781,-6.0781,-6.0781,-6.0781,-6.0781,-6.0781,-6.0781,-6.0781,-6.0781,-6.0781,-6.0781,-6.0781,-6.0781,-6.0781,-6.0781,-6.0781,-6.0781,-6.0781,-6.0781,-6.0781,-6.0781,-6.0781,-6.0781,-6.0781,-6.0781,-6.0666,-5.9088,-5.8396,-5.8088,-5.6472,-5.5895,-5.5895,0.0,0.0,0.0,0.0,0.0,0.0,0.0,0.0,0.0,0.0,0.0,0.0,0.0,0.0,0.0,0.0,0.0,0.0,0.0,0.0,0.0,-5.1414,-5.1414,-5.1765,-5.247,-5.3366,-5.4576,-5.6216,-5.7035,-5.7855,-5.8673,-5.7113,-5.5162,-5.286,-5.1843,-5.1414,-5.1414,-5.1414,-5.1414,-5.1414,-5.1414,0.0,0.0,0.0,0.0,0.0,0.0,0.0,0.0,-4.9032,-4.8174,-4.7276,-4.6534,0.0,0.0,0.0,0.0,0.0,-4.6261,-4.63,-4.63,-4.63,-4.63,-4.63,-4.63,0.0,0.0,0.0,0.0,0.0,0.0,0.0,0.0,0.0,0.0,0.0,0.0,0.0,0.0,0.0,0.0,-6.0781,-6.0781,-6.0781,-6.0781,-6.0781,-6.0781,-6.0781,-6.0781,-6.0781,-6.0781,-6.0781,-6.0781,-6.0781,-6.0781,-6.0781,-6.0781,-6.0781,-6.0781,-6.0781,-6.0781,-6.0781,-6.0781,-6.0781,-6.0781,-6.0781,-6.0781,-6.0781,-6.0781,-6.0704,-5.9704,-5.8896,-5.8165,-5.7165,-5.6791,-5.6791,0.0,0.0,0.0,0.0,0.0,0.0,0.0,0.0,0.0,0.0,0.0,0.0,0.0,0.0,0.0,0.0,0.0,0.0,0.0,0.0,-5.1609,-5.2078,-5.2546,-5.278,-5.2704,-5.4498,-5.602,-5.7231,-5.8558,-5.9651,-6.0468,-5.8285,-5.6138,-5.4031,-5.2702,-5.1843,-5.1414,-5.1414,-5.1414,-5.1414,0.0,0.0,0.0,0.0,0.0,0.0,0.0,0.0,0.0,0.0,-4.7588,-4.6846,-4.6417,0.0,0.0,0.0,0.0,0.0,-4.6183,-4.63,-4.63,-4.63,-4.63,-4.63,-4.63,0.0,0.0,0.0,0.0,0.0,0.0,0.0,0.0,0.0,0.0,0.0,0.0,0.0,-5.9819,0.0,0.0,-6.0781,-6.0781,-6.0781,-6.0781,-6.0781,-6.0781,-6.0781,-6.0781,-6.0781,-6.0781,-6.0781,-6.0781,-6.0781,-6.0781,-6.0781,-6.0781,-6.0781,-6.0781,-6.0781,-6.0781,-6.0781,-6.0781,-6.0781,-6.0781,-6.0781,-6.0781,-6.0781,-6.0781,-6.0704,-5.9784,-5.9235,-5.8812,-5.7966,-5.7681,-5.7703,0.0,0.0,0.0,0.0,0.0,0.0,0.0,0.0,0.0,0.0,0.0,0.0,0.0,0.0,0.0,0.0,0.0,0.0,0.0,-5.1609,-5.1999,-5.2665,-5.3912,-5.4381,-5.3914,-5.6255,-5.8089,-5.93,-6.0666,-6.133,-6.133,-5.8948,-5.6801,-5.4927,-5.3171,-5.2038,-5.1414,-5.1414,-5.1414,-5.1414,0.0,0.0,0.0,0.0,0.0,0.0,0.0,0.0,0.0,0.0,0.0,0.0,0.0,0.0,0.0,-4.587,-4.5675,-4.5441,-4.6105,-4.63,-4.63,-4.63,-4.6298,-4.6335,-4.653,-4.6598,0.0,0.0,0.0,0.0,0.0,0.0,0.0,0.0,0.0,-5.6857,-5.8357,-5.9281,-6.005,-6.0704,-6.0781,-6.0781,-6.0781,-6.0781,-6.0781,-6.0781,-6.0781,-6.0781,-6.0781,-6.0781,-6.0781,-6.0781,-6.0781,-6.0781,-6.0781,-6.0781,-6.0781,-6.0781,-6.0781,-6.0781,-6.0781,-6.0781,-6.0781,-6.0781,-6.0781,-6.0781,-6.0781,-6.0769,-6.0757,-6.0657,-5.9701,-5.9216,-5.8985,-5.8614,-5.8508,-5.8566,0.0,0.0,0.0,0.0,0.0,0.0,0.0,0.0,0.0,0.0,0.0,0.0,0.0,0.0,0.0,0.0,0.0,0.0,0.0,-5.2156,-5.2626,-5.2704,-5.5083,-5.6723,-5.7426,-5.9183,-6.133,-6.3831,-6.3948,-6.2813,-6.0432,-5.8636,-5.6489,-5.4029,-5.2273,-5.1453,-5.1414,-5.1414,-5.1414,-5.1414,-5.1414,0.0,0.0,0.0,0.0,0.0,0.0,0.0,0.0,0.0,0.0,0.0,0.0,0.0,-4.6066,-4.5324,-4.5636,-4.6222,-4.6261,-4.63,-4.63,-4.63,-4.6294,-4.6481,-4.7221,-4.7393,0.0,-4.8464,0.0,0.0,0.0,0.0,0.0,0.0,0.0,-5.8434,-5.9281,0.0,-6.0742,-6.0781,-6.0781,-6.0781,-6.0781,-6.0781,-6.0781,-6.0781,-6.0781,-6.0781,-6.0781,-6.0781,-6.0781,-6.0781,-6.0781,-6.0781,-6.0781,-6.0781,-6.0781,-6.0781,-6.0781,-6.0781,-6.0781,-6.0781,-6.0781,-6.0781,-6.0781,-6.0781,-6.0781,-6.0722,-6.066,-6.0508,-5.96,-5.8719,-5.8106,-5.8911,-5.9242,-5.9314,0.0,0.0,0.0,0.0,0.0,0.0,0.0,0.0,0.0,0.0,0.0,-5.1414,-5.1414,0.0,0.0,0.0,0.0,0.0,0.0,-5.1726,-5.239,-5.3444,-5.4966,-5.6918,-5.9378,-6.1134,-6.3047,-6.5116,-6.5624,-6.4531,-6.1954,-5.969,-5.7231,-5.4732,-5.2975,-5.1921,-5.1414,-5.1414,-5.1414,-5.1414,-5.1414,-5.1414,0.0,0.0,0.0,0.0,0.0,0.0,0.0,0.0,-4.6573,-4.6222,-4.5909,-4.6027,-4.6222,-4.5909,-4.6027,-4.63,-4.63,-4.63,-4.63,-4.63,-4.6679,0.0,0.0,-4.7873,-4.8495,-4.9301,-4.9858,0.0,0.0,0.0,0.0,0.0,0.0,-5.8781,-6.0127,-6.0589,-6.0781,-6.0781,-6.0781,-6.0781,-6.0781,-6.0781,-6.0781,-6.0781,-6.0781,-6.0781,-6.0781,-6.0781,-6.0781,-6.0781,-6.0781,-6.0781,-6.0781,-6.0781,-6.0781,-6.0781,-6.0781,-6.0781,-6.0781,-6.0781,-6.0781,-6.0781,-6.0781,-6.0757,-6.0722,-6.0648,-6.0559,-6.0362,-5.9889,-5.9526,-5.9317,-5.9693,-5.9955,-6.0112,0.0,0.0,0.0,0.0,0.0,0.0,0.0,0.0,-5.1414,0.0,0.0,0.0,0.0,-5.1414,0.0,0.0,0.0,0.0,-5.1414,-5.1648,-5.2351,-5.3522,-5.4693,-5.6645,-5.9534,-6.1564,-6.3711,-6.5975,-6.6288,-6.496,-6.211,-5.9534,-5.7074,-5.481,-5.3053,-5.196,-5.1414,-5.1414,-5.1414,-5.1414,-5.1414,-5.1414,0.0,0.0,0.0,0.0,0.0,0.0,0.0,0.0,-4.63,-4.6261,-4.5987,-4.6066,-4.6261,-4.5987,-4.6066,-4.63,-4.6296,-4.6296,-4.6372,-4.6603,0.0,0.0,-4.849,-4.9067,-4.9824,-5.1186,-5.1878,0.0,-5.2777,0.0,0.0,0.0,-5.8127,-5.9165,-6.0589,-6.0781,-6.0781,-6.0781,-6.0781,-6.0781,-6.0781,-6.0781,-6.0781,-6.0781,-6.0781,-6.0781,-6.0781,-6.0781,-6.0781,-6.0781,-6.0781,-6.0781,-6.0781,-6.0781,-6.0781,-6.0781,-6.0781,-6.0781,-6.0781,-6.0781,-6.0781,-6.0781,-6.0769,-6.0722,-6.0648,-6.0533,-6.0332,-6.0091,-5.9928,-5.9896,-5.9991,-6.0099,-6.0217,-6.0398,0.0,0.0,0.0,0.0,0.0,0.0,0.0,0.0,-5.1414,-5.1414,-5.1414,0.0,0.0,0.0,0.0,0.0,0.0,0.0,-5.1414,-5.2195,-5.2704,-5.2704,-5.4344,-5.6059,-5.7738,-6.0354,-6.336,-6.6795,-6.5975,-6.3789,-6.0315,-5.7777,-5.5669,-5.3951,-5.2195,-5.1414,-5.1414,-5.1414,-5.1414,-5.1414,-5.1414,-5.1414,-5.1375,0.0,0.0,0.0,0.0,0.0,0.0,0.0,-4.63,-4.6144,-4.5285,-4.5597,-4.6144,-4.5285,-4.5636,-4.6298,-4.6288,-4.6284,-4.6477,0.0,0.0,0.0,-5.0666,-5.1153,-5.1826,-5.4311,0.0,-5.4698,-5.4564,-5.5237,0.0,-5.8061,-5.8973,-5.9819,-6.0666,-6.0781,-6.0781,-6.0781,-6.0781,-6.0781,-6.0781,-6.0781,-6.0781,-6.0781,-6.0781,-6.0781,-6.0781,-6.0781,-6.0781,-6.0781,-6.0781,-6.0781,-6.0781,-6.0781,-6.0781,-6.0781,-6.0781,-6.0781,-6.0781,-6.0781,-6.0781,-6.0781,-6.0722,-6.0648,-6.0559,-6.0304,-6.0007,-5.9698,-5.9595,-5.963,-5.9715,-5.9912,-6.0022,-6.0114,0.0,0.0,0.0,0.0,0.0,0.0,0.0,0.0,-5.1414,-5.1414,-5.1414,0.0,0.0,0.0,0.0,0.0,0.0,0.0,-5.1414,-5.1648,-5.2078,-5.2665,-5.3212,-5.4576,-5.6918,-5.9456,-6.2189,-6.5041,-6.3555,-6.172,-5.9417,-5.6879,-5.5396,-5.4849,-5.3093,-5.2312,-5.2273,-5.1648,-5.1414,-5.1414,-5.1414,-5.1023,-5.0475,0.0,0.0,0.0,0.0,0.0,0.0,0.0,0.0,0.0,-4.5987,-4.6105,-4.6261,-4.5987,-4.6105,-4.6298,-4.6288,-4.6279,0.0,-4.7304,0.0,0.0,0.0,-5.2868,0.0,0.0,-5.684,-5.6549,-5.7097,-5.6872,0.0,-5.8858,-5.9358,-5.9819,-6.0666,-6.0781,-6.0781,-6.0781,-6.0781,-6.0781,-6.0781,-6.0781,-6.0781,-6.0781,-6.0781,-6.0781,-6.0781,-6.0781,-6.0781,-6.0781,-6.0781,-6.0781,-6.0781,-6.0781,-6.0781,-6.0781,-6.0781,-6.0781,-6.0781,-6.0781,-6.0757,-6.0722,-6.0648,-6.052,-6.0289,-5.9928,-5.9681,-5.9545,-5.9418,-5.9474,-5.9563,-5.9685,-5.9748,-5.9847,0.0,0.0,0.0,0.0,0.0,0.0,-5.1414,-5.1414,-5.1414,-5.1414,-5.1414,-5.1414,0.0,0.0,0.0,0.0,0.0,0.0,-5.1414,-5.1414,-5.1648,-5.2156,-5.2509,-5.3756,-5.602,-5.7933,-5.9495,-6.0707,-6.0354,-5.9456,-5.805,-5.5825,-5.4966,-5.5203,-5.3485,-5.2704,-5.2626,-5.1765,-5.1414,-5.1375,-5.1023,-5.0553,-5.0046,0.0,0.0,0.0,0.0,0.0,0.0,0.0,0.0,0.0,-4.63,-4.63,-4.63,-4.63,-4.63,-4.6298,-4.6282,-4.6457,0.0,-4.8156,-4.9434,-5.1264,-5.4396,0.0,0.0,0.0,0.0,-5.8094,-5.8248,-5.811,0.0,-5.9358,-5.9781,-6.0204,-6.0742,-6.0781,-6.0781,-6.0781,-6.0781,-6.0781,-6.0781,-6.0781,-6.0781,-6.0781,-6.0781,-6.0781,-6.0781,-6.0781,-6.0781,-6.0781,-6.0781,-6.0781,-6.0781,-6.0781,-6.0781,-6.0781,-6.0781,-6.0781,-6.0781,-6.0781,-6.0757,-6.0685,-6.0493,-6.0246,-5.9991,-5.9702,-5.9492,-5.942,-5.9309,-5.9365,-5.942,-5.9528,-5.9598,-5.965,0.0,0.0,-5.0358,-5.1141,0.0,0.0,-5.1414,-5.1414,-5.1414,-5.1414,-5.1414,-5.1414,0.0,0.0,0.0,-5.1414,0.0,0.0,0.0,-5.1414,-5.1414,-5.1414,-5.2312,-5.3563,-5.5162,-5.6059,-5.602,-5.5047,-5.6684,-5.7074,-5.6333,-5.4732,-5.4459,-5.5242,-5.3563,-5.2821,-5.2743,-5.1804,-5.1414,-5.1336,-5.0436,-5.0046,-4.9889,-4.9032,0.0,0.0,0.0,0.0,0.0,0.0,0.0,0.0,-4.63,-4.63,-4.63,-4.63,-4.63,-4.6294,-4.6233,0.0,0.0,0.0,-5.0775,0.0,-5.6578,-5.8664,-5.9567,-5.8726,0.0,-5.9396,-5.8665,-5.9127,-5.9627,-5.9627,-6.0281,-6.0781,-6.0781,-6.0781,-6.0781,-6.0781,-6.0781,-6.0781,-6.0781,-6.0781,-6.0781,-6.0781,-6.0781,-6.0781,-6.0781,-6.0781,-6.0781,-6.0781,-6.0781,-6.0781,-6.0781,-6.0781,-6.0781,-6.0781,-6.0781,-6.0781,-6.0781,-6.0781,-6.0734,-6.0635,-6.0232,-5.9912,-5.9664,-5.9452,-5.9289,-5.9178,-5.9178,-5.9178,-5.9234,-5.94,-5.9494,-5.9474,0.0,0.0,-5.0163,-5.0358,0.0,0.0,-5.1414,-5.1414,-5.1414,-5.1414,-5.1414,-5.1414,-5.1414,-5.1414,0.0,-5.1414,-5.1414,0.0,0.0,-5.1414,-5.1414,-5.1414,-5.2897,-5.3912,-5.4264,-5.5123,-5.481,-5.3251,-5.4303,-5.4732,-5.4537,-5.4186,-5.4459,-5.5242,-5.4186,-5.3717,-5.3639,-5.2078,-5.1414,-5.1336,-5.0436,-4.9694,-4.8993,-4.8174,-4.7315,0.0,0.0,0.0,0.0,0.0,0.0,0.0,-4.63,-4.63,-4.63,-4.63,-4.6294,-4.6284,-4.6217,-4.6792,0.0,0.0,0.0,0.0,-5.8742,-6.0025,-6.0618,-6.0342,-6.0396,-6.0473,-6.0281,-6.0396,-6.0512,-6.0512,-6.0666,-6.0781,-6.0781,-6.0781,-6.0781,-6.0781,-6.0781,-6.0781,-6.0781,-6.0781,-6.0781,-6.0781,-6.0781,-6.0781,-6.0781,-6.0781,-6.0781,-6.0781,-6.0781,-6.0781,-6.0781,-6.0781,-6.0781,-6.0781,-6.0781,-6.0757,-6.071,-6.071,-6.0559,-6.0217,-5.989,-5.9698,-5.949,-5.8725,-5.837,-5.8351,-5.8351,-5.8351,-5.8427,-5.9083,-5.9327,-5.9365,0.0,0.0,0.0,0.0,0.0,0.0,0.0,0.0,-5.1414,-5.1414,-5.1414,-5.1414,-5.1414,-5.1414,0.0,0.0,-5.1414,0.0,0.0,0.0,-5.1609,-5.1999,-5.2897,-5.3366,-5.3366,-5.3834,-5.3407,-5.2078,-5.2546,-5.2975,-5.3366,-5.3366,-5.3834,-5.4654,-5.3756,-5.3366,-5.3249,-5.1531,-5.0789,-5.0672,-4.9421,-4.864,-4.8135,-4.7315,-4.669,-4.63,-4.63,0.0,0.0,0.0,0.0,0.0,0.0,0.0,-4.63,-4.63,-4.6294,-4.6279,0.0,0.0,0.0,0.0,0.0,0.0,0.0,0.0,-6.0933,-6.0804,-6.0781,-6.0781,-6.0781,-6.0781,-6.0781,-6.0781,-6.0781,-6.0781,-6.0781,-6.0781,-6.0781,-6.0781,-6.0781,-6.0781,-6.0781,-6.0781,-6.0781,-6.0781,-6.0781,-6.0627,-6.0204,-6.0165,-6.0012,-5.9627,-5.9588,-5.9588,-5.9588,-5.9588,-5.9588,-5.9588,-5.9588,-5.9761,-5.9971,-6.0328,-6.0304,-6.0022,-5.9765,-5.9351,-5.8834,-5.8313,-5.7863,-5.7563,-5.7976,-5.8108,-5.8201,-5.899,-5.929,-5.929,0.0,0.0,0.0,0.0,0.0,0.0,0.0,0.0,0.0,-5.1414,-5.1414,-5.1414,-5.1414,-5.1414,-5.1414,0.0,0.0,0.0,0.0,0.0,0.0,-5.2665,-5.2704,-5.2704,-5.2704,-5.2704,-5.2273,-5.1414,-5.1414,-5.1765,-5.247,-5.2626,-5.3093,-5.3756,-5.3014,-5.2626,-5.2353,-5.0789,-5.0007,-4.9733,-4.8211,-4.7586,-4.7508,-4.6612,-4.63,-4.63,-4.63,-4.63,-4.63,-4.63,0.0,0.0,0.0,0.0,-4.63,-4.63,-4.6292,-4.6277,0.0,0.0,0.0,0.0,0.0,0.0,0.0,0.0,-6.0888,-6.0793,-6.0781,-6.0781,-6.0781,-6.0781,-6.0781,-6.0781,-6.0781,-6.0781,-6.0781,-6.0781,-6.0781,-6.0781,-6.0781,-6.0781,-6.0781,-6.0781,-6.0742,-6.0589,-6.0589,-6.0204,-5.9358,-5.9281,-5.8973,-5.8319,-5.8319,-5.8319,-5.8319,-5.8319,-5.8319,-5.8319,-5.8296,-5.8498,-5.8985,-5.9469,-5.9726,-5.9738,-5.9324,-5.8716,-5.7951,-5.7731,-5.73,-5.6774,-5.7563,-5.7901,-5.8014,-5.8952,-5.929,-5.929,0.0,0.0,0.0,0.0,0.0,0.0,0.0,0.0,0.0,0.0,-5.1414,-5.1414,-5.1414,-5.1414,-5.1414,-5.1414,-5.1414,-5.1414,-5.1414,0.0,0.0,-5.2665,-5.2704,-5.2704,-5.2704,-5.2704,-5.2273,-5.1414,-5.1414,-5.1453,-5.1609,-5.2351,-5.2743,-5.286,-5.2743,-5.2273,-5.1492,-5.0514,-4.9655,-4.8876,-4.7977,-4.7586,-4.7508,-4.6612,-4.63,-4.63,-4.63,-4.63,-4.63,-4.63,-4.63,0.0,0.0,0.0,-4.63,-4.63,-4.6247,-4.6181,0.0,0.0,0.0,0.0,0.0,0.0,0.0,0.0,0.0,0.0,-6.0781,-6.0781,-6.0781,-6.0781,-6.0781,-6.0781,-6.0781,-6.0781,-6.0781,-6.0781,-6.0781,-6.0781,-6.0781,-6.0781,-6.0781,-6.0781,-6.0473,-5.9742,-5.9665,-5.9319,-5.8511,-5.8473,-5.8396,-5.8319,-5.8319,-5.8319,-5.8319,-5.8319,-5.8319,-5.8319,-5.8165,-5.8081,-5.7963,-5.7832,-5.8104,-5.8651,-5.7733,-5.7256,-5.7017,-5.6249,-5.5856,-5.5856,-5.6737,-5.7075,-5.7225,-5.8764,-5.929,-5.929,0.0,0.0,0.0,0.0,0.0,0.0,0.0,0.0,0.0,0.0,0.0,-5.1414,-5.1414,-5.1414,-5.1414,-5.1414,-5.1414,-5.1414,-5.1414,-5.1414,-5.157,-5.196,-5.196,-5.196,-5.196,-5.196,-5.1765,-5.1414,-5.1414,-5.1414,-5.1414,-5.1804,-5.196,-5.196,-5.196,-5.1492,-5.0592,-4.9735,-4.8876,-4.8057,-4.7198,-4.6885,-4.6846,-4.645,-4.6292,-4.6292,-4.6247,-4.6243,-4.6245,-4.629,-4.6292,-4.6292,-4.6298,0.0,0.0,0.0,-4.5896,0.0,0.0,0.0,0.0,0.0,0.0,0.0,0.0,0.0,-6.0168,-6.0145,-6.0496,-6.0781,-6.0781,-6.0781,-6.0781,-6.0781,-6.0781,-6.0781,-6.0781,-6.0781,-6.0781,-6.0781,-6.0781,-6.0781,-6.0781,-6.0358,-5.9896,-5.9511,-5.9088,-5.8473,-5.7627,-5.755,-5.7357,-5.6857,-5.6857,-5.6857,-5.6857,-5.6857,-5.6857,-5.6857,-5.6694,-5.6792,-5.7109,-5.6358,-5.6624,-5.7704,-5.7178,-5.6659,-5.6136,-5.5743,-5.533,-5.5047,-5.6361,-5.6887,-5.7075,-5.8727,-5.929,-5.929,0.0,0.0,0.0,0.0,0.0,0.0,0.0,0.0,0.0,0.0,0.0,0.0,-5.1414,0.0,0.0,0.0,-5.1414,-5.1414,-5.1414,-5.1414,-5.1414,-5.1414,-5.1414,-5.1414,-5.1414,-5.1414,-5.1414,-5.1414,-5.1414,-5.1414,-5.1414,-5.1414,-5.1414,-5.1414,-5.1414,-5.0789,-4.9733,-4.9072,-4.8213,-4.7198,-4.6573,-4.63,-4.6296,-4.6288,-4.6282,-4.6275,-4.6226,-4.6181,-4.6223,0.0,-4.6282,-4.6286,-4.6298,-4.63,0.0,0.0,0.0,0.0,0.0,0.0,0.0,0.0,0.0,0.0,0.0,0.0,-5.9055,0.0,-5.976,-6.015,-6.0165,-6.0512,-6.0781,-6.0781,-6.0781,-6.0704,-6.0512,-6.0473,-6.0396,-6.0204,-6.0165,-6.0165,-6.0165,-5.9588,-5.9088,-5.8896,-5.8319,-5.7588,-5.6714,-5.6676,-5.6368,-5.5703,-5.5703,-5.5703,-5.5703,-5.5703,-5.5703,-5.5703,-5.5543,-5.5758,-5.6217,-5.5318,-5.5473,-5.6484,-5.6336,-5.5911,-5.5293,-5.5293,-5.5085,-5.4859,-5.6324,-5.7,-5.7375,-5.8764,-5.929,-5.929,0.0,0.0,0.0,0.0,0.0,0.0,0.0,0.0,0.0,0.0,0.0,0.0,-5.1414,-5.1414,-5.1414,-5.1414,-5.1414,-5.1414,-5.1414,-5.1414,-5.1414,-5.1414,-5.1414,0.0,-5.1414,-5.1414,-5.1414,-5.1414,-5.1414,-5.1414,-5.1414,-5.1414,-5.1414,-5.1414,-5.1414,-5.0477,-4.8876,-4.8837,-4.7861,-4.6378,-4.6339,-4.6294,-4.6286,-4.6286,-4.627,-4.6206,-4.6206,0.0,0.0,0.0,0.0,0.0,0.0,0.0,0.0,0.0,0.0,0.0,0.0,0.0,0.0,0.0,0.0,0.0,0.0,0.0,0.0,-5.8297,-5.8438,-5.8413,-5.8446,-5.9742,-6.0781,-6.0781,-6.0781,-6.0512,-5.9665,-5.9588,-5.9281,-5.8511,-5.8434,-5.8434,-5.8434,-5.8396,-5.8011,-5.7176,-5.7099,-5.6676,-5.5818,-5.578,-5.5742,-5.5703,-5.5703,-5.5703,-5.5703,-5.5703,-5.5703,-5.5703,-5.5543,-5.5451,-5.5352,-5.5052,-5.4867,-5.4824,-5.4606,-5.4484,-5.4446,-5.4446,-5.4897,-5.563,-5.6549,-5.7375,-5.8145,-5.899,-5.929,-5.929,0.0,0.0,0.0,0.0,0.0,0.0,0.0,0.0,0.0,0.0,0.0,0.0,0.0,-5.1414,-5.1414,-5.1414,-5.1414,-5.1414,-5.1414,-5.1414,-5.1414,-5.1414,-5.1414,-5.1414,-5.1414,-5.1414,-5.1414,-5.1414,-5.1414,-5.1414,-5.1414,-5.1414,-5.1414,-5.1414,-5.1414,-5.075,-4.9616,-4.9032,-4.8174,-4.7081,-4.6534,-4.6294,-4.6284,-4.6267,-4.6203,-4.6126,0.0,0.0,0.0,0.0,0.0,0.0,0.0,0.0,0.0,0.0,0.0,0.0,0.0,0.0,0.0,0.0,0.0,0.0,0.0,0.0,-5.5221,-5.6568,-5.7206,-5.7692,-5.8215,-5.8781,-5.9204,-5.9204,-5.9204,-5.9088,-5.8781,-5.8742,-5.8627,-5.8319,-5.8319,-5.8319,-5.8319,-5.778,-5.7319,-5.7022,-5.6483,-5.6011,-5.5703,-5.5703,-5.5703,-5.5703,-5.5703,-5.5703,-5.5703,-5.5703,-5.5703,-5.5703,-5.5626,-5.5473,-5.5377,-5.514,-5.4956,-5.4829,-5.4657,-5.4526,-5.4409,-5.4409,-5.4859,-5.5668,-5.6549,-5.7375,-5.8201,-5.899,-5.929,-5.929,0.0,0.0,0.0,0.0,0.0,-5.1414,-5.1414,-5.1414,-5.1414,-5.1414,0.0,0.0,0.0,0.0,-5.1414,-5.1414,-5.1414,-5.1414,-5.1414,-5.1414,-5.1414,-5.1414,-5.1414,-5.1414,-5.1414,-5.1414,-5.1414,-5.1414,-5.1414,-5.1414,-5.1414,-5.1414,-5.1414,-5.1414,-5.1414,-5.0906,-5.0046,-4.9462,-4.8603,-4.7547,0.0,0.0,-4.6667,0.0,0.0,0.0,0.0,0.0,0.0,0.0,0.0,0.0,0.0,0.0,0.0,0.0,0.0,0.0,0.0,0.0,0.0,0.0,0.0,0.0,0.0,0.0,-5.3095,-5.4442,-5.5575,-5.6424,-5.6907,-5.7242,-5.7627,-5.8204,-5.8319,-5.8204,-5.7896,-5.7857,-5.7742,-5.7473,-5.7434,-5.7434,-5.7434,-5.6896,-5.656,-5.656,-5.6011,-5.5703,-5.5703,-5.5703,-5.5703,-5.5703,-5.5703,-5.5703,-5.5703,-5.5703,-5.5703,-5.5703,-5.5649,-5.552,-5.5413,-5.521,-5.5085,-5.4956,-5.4799,-5.4625,-5.4422,-5.4422,-5.5064,-5.6099,-5.6662,-5.7563,-5.8577,-5.9102,-5.929,-5.929,0.0,0.0,-5.1414,-5.1414,-5.1414,-5.1414,-5.1414,-5.1414,-5.1414,-5.1414,0.0,0.0,0.0,0.0,0.0,-5.1414,-5.1414,-5.1414,-5.1414,-5.1414,-5.1414,-5.1414,-5.1414,-5.1414,-5.1414,-5.1414,-5.1414,-5.1414,-5.1414,-5.1414,-5.1414,-5.1414,-5.1414,-5.1414,-5.1375,-5.0906,-5.0085,0.0,-4.9148,-4.7625,0.0,-4.7613,-4.7435,0.0,0.0,0.0,-4.647,-4.6139,0.0,-4.6138,0.0,0.0,0.0,0.0,0.0,0.0,0.0,0.0,0.0,0.0,0.0,0.0,0.0,0.0,-4.9566,0.0,-5.1274,-5.2027,-5.3442,-5.4582,-5.4465,-5.5126,-5.6203,-5.7896,-5.8204,-5.7934,-5.7099,-5.6945,-5.6637,-5.578,-5.5703,-5.5703,-5.5703,-5.5703,-5.5703,-5.5703,-5.5703,-5.5703,-5.5703,-5.5703,-5.5703,-5.5703,-5.5703,-5.5703,-5.5703,-5.5703,-5.5703,-5.5703,-5.5649,-5.5581,-5.5511,-5.5288,-5.5157,-5.5113,-5.492,-5.472,-5.4522,-5.4522,-5.5433,-5.6887,-5.6887,-5.7863,-5.929,-5.929,-5.929,-5.929,0.0,-5.0789,-5.1414,-5.1414,-5.1414,-5.1414,-5.1414,-5.1414,-5.1414,0.0,0.0,0.0,-5.1414,-5.1414,-5.1414,-5.1414,-5.1414,-5.1414,-5.1414,-5.1414,-5.1414,-5.1414,-5.1414,-5.1414,-5.1414,-5.1414,-5.1414,-5.1414,-5.1414,-5.1414,-5.1414,-5.1414,-5.1414,-5.1375,-5.0748,-5.0319,-5.0085,-5.0085,0.0,-4.8486,-4.8486,-4.8478,0.0,0.0,0.0,0.0,0.0,-4.7833,-4.7827,0.0,-4.7543,-4.6984,0.0,0.0,0.0,0.0,0.0,0.0,-4.6292,0.0,0.0,0.0,0.0,0.0,-4.7951,-4.8301,-4.8926,-5.0865,-5.16,-5.2221,-5.3338,-5.4241,-5.4972,-5.5472,-5.6049,-5.6319,-5.6088,-5.6049,-5.5972,-5.5742,-5.5703,-5.5703,-5.5703,-5.5703,-5.5703,-5.5703,-5.5703,-5.5703,-5.5703,-5.5703,-5.5703,-5.5703,-5.5703,-5.5703,-5.5703,-5.5703,-5.5703,-5.5703,-5.5692,-5.5649,-5.5581,-5.5449,-5.5364,-5.5288,-5.5181,-5.5014,-5.4852,-5.4619,-5.5467,-5.6993,-5.6922,-5.7863,-5.929,-5.929,-5.929,-5.929,-5.0085,-5.0789,-5.1414,-5.1414,-5.1414,-5.1414,-5.1414,-5.1414,-5.1414,0.0,0.0,0.0,-5.1414,-5.1414,-5.1414,-5.1414,-5.1414,-5.1414,-5.1414,-5.1414,-5.1414,-5.1414,-5.1414,-5.1414,-5.1414,-5.1414,-5.1414,-5.1414,-5.1414,-5.1414,-5.1414,-5.1414,-5.1219,-5.0828,-5.0319,-4.9694,-4.907,0.0,0.0,0.0,-4.8786,0.0,0.0,-4.8938,-4.897,0.0,0.0,0.0,-4.8509,-4.8974,-4.836,0.0,0.0,0.0,0.0,0.0,0.0,0.0,0.0,0.0,0.0,0.0,0.0,0.0,-4.6833,-4.7151,-4.7706,0.0,-5.014,-5.1112,-5.1991,-5.3126,-5.3972,-5.3972,-5.4664,-5.5318,-5.5665,-5.5703,-5.5703,-5.5703,-5.5703,-5.5703,-5.5703,-5.5703,-5.5703,-5.5703,-5.5703,-5.5703,-5.5703,-5.5703,-5.5703,-5.5703,-5.5703,-5.5703,-5.5703,-5.5703,-5.5703,-5.5703,-5.5703,-5.5692,-5.5649,-5.5554,-5.5497,-5.5461,-5.5301,-5.517,-5.5071,-5.5101,-5.5852,-5.699,-5.6922,-5.7863,-5.929,-5.929,-5.929,-5.929,0.0,-5.0789,-5.1414,-5.1414,-5.1414,-5.1414,-5.1414,-5.1414,-5.1414,0.0,-5.1414,-5.1414,-5.1414,-5.1414,-5.1414,-5.1414,-5.1414,-5.1414,-5.1414,-5.1414,-5.1414,-5.1414,-5.1414,-5.1414,-5.1414,-5.1414,-5.1414,-5.1414,-5.1414,-5.1414,-5.1414,-5.1414,-5.0945,-5.0085,-5.0007,-4.907,-4.7625,-4.824,0.0,-4.8813,-4.8917,-4.9523,0.0,0.0,-4.9651,-5.0314,-5.027,-4.9686,-4.9062,-4.9716,-4.8866,0.0,0.0,0.0,0.0,0.0,-4.6298,0.0,0.0,0.0,0.0,0.0,-4.6288,0.0,-4.6203,-4.6734,-4.7227,-4.7107,-4.8872,-5.0452,-5.0423,-5.1702,-5.2818,-5.2895,-5.3664,-5.4511,-5.5434,-5.5626,-5.5703,-5.5703,-5.5703,-5.5703,-5.5703,-5.5703,-5.5703,-5.5703,-5.5703,-5.5703,-5.5703,-5.5703,-5.5703,-5.5703,-5.5703,-5.5703,-5.5703,-5.5703,-5.5703,-5.5703,-5.5703,-5.5703,-5.5703,-5.5649,-5.5615,-5.5604,-5.5415,-5.5249,-5.5246,-5.5769,-5.6404,-5.699,-5.7035,-5.7976,-5.929,-5.929,-5.929,-5.929,-5.0085,-5.0789,-5.1414,-5.1414,-5.1414,-5.1414,-5.1414,-5.1414,-5.1414,-5.1414,-5.1414,-5.1414,-5.1414,-5.1414,-5.1414,-5.1414,-5.1414,-5.1414,-5.1414,-5.1414,-5.1414,-5.1414,-5.1414,-5.1414,-5.1414,-5.1414,-5.1414,-5.1414,-5.1414,-5.1414,-5.1414,-5.1414,-5.0945,-5.0085,-4.9384,-4.8525,-4.7547,0.0,0.0,-4.886,-4.9507,0.0,-5.1992,-5.1794,-5.2219,-5.295,-5.2887,-5.2732,-5.2345,-5.1145,-4.9691,-4.8223,0.0,0.0,0.0,-4.6288,0.0,0.0,0.0,0.0,0.0,0.0,0.0,0.0,-4.6146,-4.6197,-4.6407,0.0,-4.7418,-4.7932,-4.8489,-4.9433,-5.0356,-5.1048,-5.1856,-5.2972,-5.4511,-5.528,-5.5703,-5.5703,-5.5703,-5.5703,-5.5703,-5.5703,-5.5703,-5.5703,-5.5703,-5.5703,-5.5703,-5.5703,-5.5703,-5.5703,-5.5703,-5.5703,-5.5703,-5.5703,-5.5703,-5.5703,-5.5703,-5.5703,-5.5703,-5.5649,-5.5615,-5.5604,-5.5425,-5.5301,-5.5246,-5.5829,-5.6484,-5.7133,-5.7654,-5.8464,-5.929,-5.929,-5.929,-5.929,-5.0748,-5.1102,-5.1414,-5.1414,-5.1414,-5.1414,-5.1414,-5.1414,-5.1414,-5.1414,-5.141,-5.1403,-5.1396,-5.1396,-5.1396,-5.1396,-5.1396,-5.1396,-5.1396,-5.1396,-5.1396,-5.1396,-5.1396,-5.1399,-5.1406,-5.1406,-5.141,-5.1414,-5.1414,-5.1414,-5.1375,-5.0945,-5.0282,-4.9423,-4.8564,-4.774,-4.6915,0.0,-4.7187,-4.8794,-4.9196,0.0,-5.2485,-5.2441,-5.2905,-5.3683,-5.4079,-5.3878,-5.3194,-5.1533,-4.9866,0.0,0.0,-4.687,-4.6259,0.0,-4.6233,-4.6265,0.0,0.0,0.0,-4.6154,0.0,0.0,0.0,-4.5986,-4.6054,-4.6351,-4.6708,-4.7114,-4.7441,-4.8202,-4.8894,-4.9317,-5.0125,-5.1097,-5.2425,-5.3685,-5.4434,-5.4434,-5.4434,-5.4434,-5.4434,-5.4857,-5.528,-5.5665,-5.5703,-5.5703,-5.5703,-5.5703,-5.5703,-5.5703,-5.5703,-5.5703,-5.5703,-5.5703,-5.5703,-5.5703,-5.5703,-5.5692,-5.566,-5.5626,-5.5566,-5.552,-5.5425,-5.5314,-5.5284,-5.6299,-5.6857,-5.715,-5.7842,-5.8577,-5.929,-5.929,-5.929,-5.929,-5.1336,-5.1414,-5.1414,-5.1414,-5.1414,-5.1414,-5.1414,-5.1414,-5.1414,-5.1412,-5.1403,-5.1469,-5.1606,-5.1639,-5.1674,-5.1866,-5.171,-5.1593,-5.1593,-5.1483,-5.1372,-5.1372,-5.1372,-5.1383,-5.1399,-5.1399,-5.1403,-5.1414,-5.1414,-5.1414,-5.1375,-5.0514,-4.9616,-4.8759,-4.7936,-4.7112,0.0,0.0,0.0,-4.846,0.0,-5.0213,-5.2519,-5.2601,-5.3146,-5.3952,-5.4762,-5.434,-5.3198,-5.1841,-5.0231,-4.8663,-4.8038,-4.7211,0.0,0.0,0.0,0.0,0.0,0.0,0.0,0.0,0.0,-4.5963,0.0,0.0,0.0,0.0,0.0,0.0,0.0,0.0,0.0,0.0,0.0,0.0,0.0,-5.1395,0.0,-5.3136,-5.3213,-5.3213,-5.3203,-5.3857,-5.4511,-5.5164,-5.5203,-5.528,-5.5472,-5.5472,-5.5549,-5.5703,-5.5703,-5.5703,-5.5703,-5.5703,-5.5703,-5.5703,-5.5703,-5.5671,-5.5615,-5.5554,-5.5508,-5.5437,-5.5364,-5.5364,-5.5445,-5.6747,-5.7278,-5.7359,-5.8068,-5.8727,-5.929,-5.929,-5.9272,-5.9272,-5.1102,-5.1414,-5.1414,-5.1414,-5.1414,-5.1414,-5.1414,-5.1414,-5.141,-5.1401,-5.1399,-5.1659,-5.2405,0.0,0.0,0.0,0.0,0.0,-5.2386,-5.1721,-5.1314,-5.1314,-5.1369,-5.1383,-5.1399,-5.1399,-5.1403,-5.1414,-5.1414,-5.1414,-5.1375,-5.0514,-4.9616,-4.8759,-4.7891,0.0,0.0,0.0,-4.6714,0.0,-4.8312,-5.0159,0.0,-5.3236,-5.4005,-5.4846,-5.5617,-5.4791,-5.3391,0.0,-5.1579,-4.9627,0.0,-4.8483,-4.7246,-4.725,0.0,0.0,0.0,0.0,0.0,0.0,-4.5968,0.0,0.0,0.0,-4.5781,-4.5734,0.0,0.0,0.0,0.0,0.0,0.0,0.0,0.0,-4.8381,-4.865,-4.9883,-5.2926,-5.3273,-5.3253,-5.3203,-5.328,-5.3395,-5.3472,-5.3472,-5.3818,-5.4587,-5.4626,-5.4972,-5.5665,-5.5703,-5.5703,-5.5703,-5.5703,-5.5703,-5.5703,-5.5703,-5.5671,-5.5615,-5.5499,-5.5402,-5.5339,-5.517,-5.5451,-5.605,-5.6873,-5.7557,-5.8139,-5.8876,-5.9215,-5.929,-5.929,-5.9272,-5.9196,-5.0395,-5.0243,-5.0048,-5.0555,-5.0243,-5.0048,-5.0553,-5.0666,-5.0808,-5.1284,-5.1736,-5.2181,0.0,0.0,0.0,0.0,0.0,-5.3479,0.0,0.0,-5.1788,-5.1256,-5.1316,-5.1349,-5.1383,-5.1386,-5.1396,-5.1414,-5.0906,-5.0631,-5.0631,-4.9265,-4.8445,-4.8055,-4.7186,0.0,-4.6233,0.0,-4.6976,0.0,0.0,0.0,0.0,-5.3308,-5.4381,-5.5518,-5.587,-5.4859,-5.3356,0.0,-5.1811,0.0,0.0,0.0,0.0,0.0,0.0,0.0,0.0,0.0,0.0,0.0,0.0,0.0,-4.5742,0.0,-4.5735,0.0,0.0,0.0,0.0,0.0,0.0,0.0,-4.6163,0.0,0.0,0.0,-4.8232,-5.0123,0.0,0.0,-5.0933,-5.101,-5.1395,-5.2385,-5.2462,-5.2818,-5.3703,-5.4241,-5.4664,-5.4972,-5.5472,-5.5703,-5.5703,-5.5703,-5.5703,-5.5703,-5.5703,-5.566,-5.5558,-5.5425,-5.5301,-5.5195,-5.5099,-5.5411,-5.6094,-5.683,-5.7544,-5.8289,-5.9027,-5.929,-5.929,-5.929,-5.9272,-5.9196,-4.9208,0.0,-4.8986,-4.9612,-4.9224,-4.9107,-4.9963,-5.0111,-5.0477,-5.1472,-5.2143,0.0,-5.3441,-5.453,0.0,0.0,-5.5118,-5.4653,0.0,0.0,-5.2158,0.0,0.0,0.0,0.0,-5.1372,-5.1272,-5.1023,-5.0397,-4.9967,-4.9694,-4.825,-4.7586,-4.7547,0.0,-4.6392,-4.6574,0.0,-4.7345,-4.8706,-4.9104,-5.0825,-5.3159,-5.3747,-5.477,-5.5902,-5.5995,-5.4984,-5.3676,-5.3812,-5.2461,-5.0735,-5.0765,-5.0012,0.0,0.0,0.0,0.0,-4.8255,0.0,0.0,0.0,0.0,0.0,0.0,0.0,0.0,0.0,0.0,0.0,0.0,0.0,0.0,0.0,0.0,-4.5851,0.0,-4.6637,0.0,0.0,0.0,0.0,-4.8971,-4.9048,-4.9548,-5.0769,-5.1077,-5.1587,-5.2472,-5.3549,-5.4241,-5.4472,-5.528,-5.5703,-5.5703,-5.5703,-5.5703,-5.5703,-5.5703,-5.5649,-5.5485,-5.5401,-5.5249,-5.5085,-5.4985,-5.5443,-5.6307,-5.6845,-5.7627,-5.8555,-5.9083,-5.9272,-5.9253,-5.9253,-5.9215,-5.9137,-4.7411,-4.8248,0.0,-4.8821,-4.8823,-4.9096,-4.9952,-5.0098,-5.0654,-5.2265,0.0,0.0,0.0,0.0,0.0,0.0,0.0,-5.5882,-5.5879,0.0,-5.233,0.0,0.0,-5.1248,0.0,0.0,-5.0998,-5.0124,-5.0124,-4.9655,-4.8837,-4.7978,-4.7586,-4.7547,-4.6628,-4.6655,-4.7468,-4.7396,-4.785,-4.8754,-5.0359,-5.2537,-5.4834,0.0,-5.528,-5.5902,-5.5995,0.0,-5.4564,-5.4701,-5.4091,-5.3275,-5.3275,0.0,0.0,0.0,0.0,0.0,0.0,0.0,0.0,-4.7118,0.0,0.0,0.0,0.0,-4.5594,0.0,0.0,0.0,0.0,0.0,0.0,0.0,0.0,0.0,0.0,0.0,0.0,0.0,0.0,0.0,0.0,-4.8125,-4.8163,-4.824,-4.9009,-4.9856,-5.075,-5.2356,-5.3626,-5.4472,-5.528,-5.5703,-5.5703,-5.5703,-5.5703,-5.5703,-5.5703,-5.5649,-5.5511,-5.5351,-5.5208,-5.5,-5.4875,-5.5611,-5.6969,-5.699,-5.7915,-5.9253,-5.929,-5.9272,-5.9196,-5.9196,-5.9098,-5.8899,-4.6433,0.0,0.0,0.0,0.0,-4.754,-4.8971,-4.9652,-5.0581,0.0,-5.3799,0.0,0.0,-5.7448,-5.8384,0.0,0.0,-5.7649,-5.5972,-5.5139,0.0,0.0,0.0,-5.1719,0.0,0.0,0.0,0.0,-4.9528,-4.8829,-4.7978,-4.7159,-4.6729,-4.6729,0.0,-4.6435,0.0,0.0,0.0,0.0,0.0,-5.4064,-5.4839,0.0,-5.5318,-5.5902,-5.5998,-5.5354,-5.4545,-5.465,-5.409,-5.3338,-5.3338,-5.2952,-5.2441,-5.2441,-5.1652,-5.0862,-5.1441,-5.0316,-4.9076,-4.9345,0.0,0.0,0.0,0.0,0.0,0.0,0.0,0.0,0.0,0.0,0.0,0.0,0.0,0.0,0.0,0.0,0.0,0.0,0.0,0.0,0.0,-4.6432,-4.6663,-4.7278,-4.7586,-4.8355,-4.974,-5.0933,-5.2202,-5.3587,-5.4472,-5.5164,-5.5703,-5.5703,-5.5703,-5.5703,-5.5703,-5.5649,-5.5511,-5.5339,-5.5181,-5.4912,-5.4799,-5.5567,-5.694,-5.694,-5.7862,-5.929,-5.9253,-5.9177,-5.91,-5.9158,-5.9079,-5.8879,-4.6008,-4.5958,0.0,0.0,0.0,-4.6714,-4.8401,-4.9386,0.0,0.0,-5.4847,0.0,-5.7149,0.0,-5.9485,0.0,-5.9425,-5.8875,-5.724,-5.6348,0.0,-5.3599,-5.3017,0.0,0.0,0.0,0.0,0.0,0.0,-4.8228,-4.7114,-4.6567,-4.6298,-4.63,0.0,-4.644,-4.6789,0.0,-4.8686,0.0,0.0,-5.4731,0.0,0.0,-5.5565,-5.5913,-5.5971,-5.5567,-5.4978,-5.5027,-5.4651,-5.4179,-5.4179,-5.3967,-5.3726,-5.3726,-5.3119,-5.256,-5.3099,-5.204,-5.0818,-5.1048,-5.0087,-4.8933,-4.8625,0.0,-4.7471,0.0,0.0,0.0,0.0,0.0,0.0,0.0,0.0,0.0,0.0,-4.5676,0.0,0.0,0.0,0.0,0.0,-4.5594,-4.5825,-4.6394,-4.674,-4.7509,-4.8856,-5.0048,-5.1318,-5.2702,-5.3895,-5.4741,-5.528,-5.5549,-5.5703,-5.5703,-5.5703,-5.5649,-5.5511,-5.5339,-5.5168,-5.4905,-5.5054,-5.5781,-5.6925,-5.7225,-5.8108,-5.9272,-5.9215,-5.91,-5.8982,-5.9041,-5.8922,-5.8698,-4.6028,-4.5859,-4.5893,0.0,-4.6129,0.0,0.0,0.0,-5.1108,0.0,-5.5548,-5.7032,-5.9415,-5.9661,-5.9975,-6.0834,-6.0084,-5.9573,-5.959,-5.7317,0.0,0.0,-5.452,-5.3303,-5.2552,0.0,0.0,0.0,0.0,0.0,-4.6284,-4.6284,-4.629,0.0,-4.629,0.0,-4.7491,-4.834,-4.9278,-5.0373,-5.2717,-5.4636,-5.6109,-5.6109,-5.6025,-5.5905,-5.5952,-5.5914,-5.5797,-5.5875,-5.5865,-5.5787,-5.5787,-5.5217,-5.4549,-5.4549,-5.401,-5.3395,-5.3395,-5.3395,-5.3203,-5.2346,-5.151,-5.0673,-4.9856,-4.8933,-4.8317,0.0,0.0,0.0,0.0,0.0,0.0,0.0,0.0,0.0,0.0,0.0,0.0,0.0,0.0,0.0,0.0,-4.5594,-4.5594,-4.5594,-4.6355,-4.7201,-4.8048,-4.9663,-5.0971,-5.1885,-5.3549,-5.4472,-5.4511,-5.528,-5.5703,-5.5703,-5.5703,-5.5638,-5.5473,-5.5339,-5.5154,-5.4981,-5.5605,-5.6291,-5.7,-5.777,-5.8503,-5.9177,-5.9177,-5.9079,-5.8879,-5.8879,-5.8698,-5.8486,-4.5912,-4.626,-4.6692,0.0,-4.6842,-4.7254,0.0,0.0,0.0,0.0,-5.6445,-5.8168,-5.9403,-6.0123,-6.0573,-6.0804,-6.06,0.0,0.0,0.0,0.0,-5.6878,-5.6416,-5.5552,-5.4226,-5.3603,0.0,-4.9634,0.0,0.0,-4.6233,0.0,0.0,0.0,0.0,0.0,-4.6685,-4.8176,-5.0299,-5.2852,-5.4097,-5.5164,-5.602,-5.6025,-5.5943,-5.5817,-5.5905,-5.5855,-5.5735,-5.5745,-5.5735,-5.5724,-5.5724,-5.556,-5.5395,-5.5395,-5.5703,-5.6022,-5.6022,-5.6011,-5.5972,-5.5742,-5.4587,-5.3472,-5.3241,-5.201,-5.1115,-5.1779,0.0,0.0,0.0,0.0,0.0,0.0,0.0,0.0,0.0,0.0,0.0,-4.5594,0.0,0.0,-4.5594,-4.5594,-4.5594,-4.5594,-4.5825,-4.6586,-4.8009,-4.8509,-4.974,-5.1846,-5.2972,-5.3857,-5.4472,-5.528,-5.5703,-5.5703,-5.566,-5.557,-5.5401,-5.5261,-5.537,-5.5722,-5.5772,-5.6527,-5.7679,-5.7847,-5.8409,-5.9061,-5.902,-5.8801,-5.8614,-5.8614,-5.8572,-5.8486,-4.5885,-4.6356,0.0,-4.7426,0.0,0.0,-4.9366,-5.1004,0.0,-5.5374,-5.7223,0.0,-5.9946,-6.0512,-6.0781,-6.0781,-6.0781,0.0,-6.0089,0.0,0.0,-5.8242,-5.785,-5.6879,-5.5316,-5.4489,0.0,-4.9804,0.0,0.0,-4.617,0.0,0.0,0.0,0.0,-4.63,0.0,-4.8108,-5.0693,-5.373,-5.42,-5.5031,0.0,-5.6016,-5.5933,-5.5797,-5.5817,-5.5776,-5.5703,-5.5703,-5.5703,-5.5703,-5.5703,-5.5972,-5.6291,-5.6291,-5.6896,-5.755,-5.755,-5.7588,-5.7588,-5.755,-5.6588,-5.5511,-5.5126,-5.3972,-5.3087,-5.3164,-5.2049,-5.0971,-5.075,-4.951,0.0,0.0,0.0,0.0,0.0,0.0,0.0,0.0,-4.5594,0.0,-4.5594,-4.5594,-4.5594,-4.5594,-4.5594,-4.6317,-4.8009,-4.8086,-4.9279,-5.1808,-5.2741,-5.3626,-5.4472,-5.528,-5.5692,-5.5671,-5.5604,-5.5641,-5.581,-5.5673,-5.5913,-5.6512,-5.674,-5.7243,-5.7922,-5.8316,-5.8669,-5.8942,-5.8859,-5.8698,-5.8593,-5.8492,-5.8465,-5.8356,-4.6231,-4.6624,0.0,0.0,0.0,0.0,0.0,-5.2096,0.0,-5.6855,0.0,-5.9067,-6.0639,-6.0781,-6.0781,-6.0781,0.0,-6.0781,-6.0781,-6.0089,-5.9688,-5.9733,-5.904,-5.7937,-5.6415,-5.5489,-5.3426,0.0,0.0,0.0,0.0,0.0,0.0,0.0,0.0,0.0,0.0,-4.8296,-5.0801,-5.3691,-5.379,-5.4696,-5.5995,-5.5986,-5.5904,-5.5787,-5.5787,-5.5745,-5.5703,-5.5703,-5.5703,-5.5703,-5.5818,-5.6406,-5.7022,-5.7137,-5.778,-5.8473,-5.8473,-5.855,-5.8627,-5.8627,-5.7973,-5.7088,-5.6242,-5.5395,-5.4587,-5.3703,-5.3433,-5.2895,-5.1318,-5.075,0.0,0.0,0.0,0.0,0.0,0.0,0.0,0.0,0.0,0.0,-4.5594,-4.5594,-4.5594,-4.5594,-4.5594,-4.6317,-4.8009,-4.8086,-4.9279,-5.1808,-5.2741,-5.3626,-5.4472,-5.528,-5.5682,-5.5615,-5.5508,-5.5823,-5.6363,-5.6244,-5.6564,-5.728,-5.7893,-5.8108,-5.8091,-5.8839,-5.9059,-5.8859,-5.8756,-5.8677,-5.8656,-5.8513,-5.8378,-5.8215,-4.7837,0.0,0.0,0.0,0.0,-5.3251,-5.4608,-5.4965,-5.5801,-5.783,-5.8792,-5.9677,-6.0704,-6.0781,-6.0781,-6.0781,-6.0781,0.0,0.0,0.0,0.0,-6.0612,-6.0458,-5.9903,-5.8967,-5.7464,-5.5413,0.0,0.0,0.0,-4.7172,0.0,0.0,0.0,0.0,0.0,-4.8413,-4.9372,0.0,-5.3763,-5.434,-5.5117,-5.5902,-5.5866,-5.5787,-5.5724,-5.5724,-5.5714,-5.5703,-5.5703,-5.5703,-5.5818,-5.656,-5.6868,-5.7137,-5.7857,-5.8665,-5.9281,-5.9281,-5.9819,-6.0358,-6.0358,-5.9704,-5.8858,-5.805,-5.7165,-5.6329,-5.5434,-5.4741,-5.3972,-5.2933,-5.1048,-4.9279,0.0,0.0,0.0,0.0,0.0,0.0,0.0,0.0,-4.5594,0.0,0.0,-4.5594,-4.5594,-4.5594,-4.6317,-4.8009,-4.8086,-4.9279,-5.1808,-5.2741,-5.3626,-5.4472,-5.528,-5.5682,-5.5615,-5.5499,-5.5747,-5.6316,-5.611,-5.6776,-5.8006,-5.7977,-5.8297,-5.8817,-5.8905,-5.8879,-5.8719,-5.8698,-5.8635,-5.8513,-5.8529,-5.8443,-5.8349,0.0,0.0,0.0,0.0,0.0,0.0,0.0,-5.7088,-5.7973,-5.8819,-5.9281,-5.9819,-6.0704,-6.0781,-6.0781,-6.0781,-6.0781,-6.0781,-6.0781,-6.0781,-6.0781,-6.0781,-6.0781,-6.0408,-5.9546,-5.7901,-5.5845,-5.3421,0.0,0.0,-4.7315,-4.6575,0.0,0.0,0.0,-4.7567,0.0,0.0,-5.1786,-5.3663,-5.4475,-5.5213,-5.5856,-5.5807,-5.6025,-5.6368,-5.6368,-5.6665,-5.6973,-5.6511,-5.6665,-5.7126,-5.755,-5.7973,-5.8396,-5.8819,-5.9511,-6.0165,-6.0165,-6.0473,-6.0781,-6.0781,-6.0473,-5.9935,-5.9127,-5.828,-5.7434,-5.656,-5.5703,-5.4741,-5.3433,-5.1471,-4.9933,-4.951,0.0,0.0,0.0,0.0,0.0,0.0,0.0,0.0,0.0,0.0,0.0,0.0,0.0,-4.6317,-4.8009,-4.8086,-4.9279,-5.1808,-5.2741,-5.3626,-5.4472,-5.528,-5.5649,-5.5511,-5.5798,-5.6196,-5.6755,-5.7019,-5.7722,-5.8709,-5.8615,-5.8707,-5.8922,-5.8859,-5.8777,-5.8698,-5.8698,-5.8656,-5.8614,-5.8614,-5.8572,-5.8545,0.0,-5.2546,0.0,0.0,-5.5126,-5.6549,-5.7396,-5.8819,-5.9781,-5.9781,-5.9781,-6.005,-6.0742,-6.0781,-6.0781,-6.0781,-6.0781,-6.0781,-6.0781,-6.0781,-6.0781,-6.0781,-6.0781,-6.0473,-5.9781,-5.8127,-5.6141,0.0,0.0,-4.9128,-4.7528,-4.658,0.0,0.0,0.0,0.0,-4.9313,-5.0786,-5.2324,-5.3863,-5.4675,-5.5421,-5.6056,-5.6046,-5.6554,-5.7291,-5.7291,-5.7819,-5.8434,-5.7742,-5.7857,-5.8319,-5.8511,-5.8973,-5.955,-5.9704,-6.0242,-6.0781,-6.0781,-6.0781,-6.0781,-6.0781,-6.0781,-6.055,-5.9704,-5.8896,-5.805,-5.7176,-5.6175,-5.5049,-5.3703,-5.2241,-5.1164,-5.0971,0.0,0.0,0.0,0.0,0.0,0.0,0.0,0.0,-4.5633,-4.5594,0.0,0.0,0.0,-4.6317,-4.8009,-4.8086,-4.9279,-5.1808,-5.2741,-5.3626,-5.4472,-5.5462,-5.5873,-5.5682,-5.633,-5.6928,-5.7489,-5.8,-5.8576,-5.9196,-5.9158,-5.9022,-5.8859,-5.8719,-5.8698,-5.8698,-5.8698,-5.8698,-5.8698,-5.8698,-5.8698,-5.8656,0.0,0.0,0.0,0.0,0.0,-5.8319,-5.9127,-6.005,-6.0666,-6.0666,-6.0666,-6.0704,-6.0781,-6.0781,-6.0781,-6.0781,-6.0781,-6.0781,-6.0781,-6.0781,-6.0781,-6.0781,-6.0781,-6.0742,-6.0666,-5.905,-5.7302,0.0,0.0,-4.99,-4.8354,-4.6757,-4.6465,-4.728,-4.7315,-4.8621,-5.092,-5.1773,-5.3096,-5.4738,-5.5431,-5.6231,-5.6971,-5.6928,-5.7407,-5.8165,-5.8165,-5.8704,-5.9396,-5.9281,-5.8858,-5.8434,-5.9165,-5.9435,-5.9665,-6.0435,-6.0742,-6.0781,-6.0781,-6.0781,-6.0781,-6.0781,-6.0781,-6.055,-5.9704,-5.8896,-5.805,-5.7176,-5.5742,-5.4549,-5.4395,-5.3587,-5.2702,-5.1923,-5.1654,0.0,0.0,0.0,0.0,0.0,0.0,0.0,0.0,-4.5594,-4.5594,-4.5594,-4.5594,-4.6317,-4.8009,-4.8086,-4.9279,-5.1808,-5.2741,-5.3626,-5.4472,-5.6033,-5.6736,-5.6601,-5.7205,-5.7795,-5.8358,-5.8264,-5.8576,-5.9177,-5.9081,-5.8885,-5.8698,-5.8698,-5.8698,-5.8698,-5.8698,-5.8698,-5.8698,-5.8698,-5.8698,-5.8656,0.0,0.0,0.0,-5.7242,0.0,-5.9127,-5.9435,-6.0242,-6.0781,-6.0781,-6.0781,-6.0781,-6.0781,-6.0781,-6.0781,-6.0781,-6.0781,-6.0781,-6.0781,-6.0781,-6.0781,-6.0781,-6.0781,-6.0781,-6.0781,-5.9627,-5.8226,0.0,0.0,0.0,-4.9906,-4.8257,-4.7994,-4.886,-4.9304,-5.0318,-5.1809,-5.366,-5.4791,-5.5509,-5.6781,-5.7499,-5.7813,-5.7791,-5.8319,-5.9011,-5.9011,-5.955,-6.0281,-6.0281,-6.005,-5.9858,-6.0165,-6.0281,-6.0358,-6.0704,-6.0781,-6.0781,-6.0781,-6.0781,-6.0781,-6.0781,-6.0781,-6.0704,-6.0358,-5.9627,-5.8934,-5.855,-5.7165,-5.5703,-5.4703,-5.4203,-5.3692,-5.2766,-5.219,0.0,0.0,0.0,0.0,0.0,0.0,0.0,0.0,-4.5594,-4.5825,0.0,0.0,-4.6894,-4.8048,-4.8586,-4.9586,-5.1125,-5.251,-5.3356,-5.3703,-5.583,-5.6827,-5.6652,-5.773,-5.8325,-5.8442,-5.8721,-5.8934,-5.9081,-5.8902,-5.8781,-5.8698,-5.8698,-5.8698,-5.8698,-5.8698,-5.8656,-5.8593,-5.8593,-5.8551,-5.8502,-5.8534,-5.8812,-5.8934,-5.8704,-5.9319,-5.9896,-5.9896,-6.0396,-6.0781,-6.0781,-6.0781,-6.0781,-6.0781,-6.0781,-6.0781,-6.0781,-6.0781,-6.0781,-6.0781,-6.0781,-6.0781,-6.0781,-6.0781,0.0,-6.0781,-5.9935,-5.8842,-5.745,-5.4969,0.0,-5.1617,-4.9981,-4.9705,-5.0537,-5.1331,-5.2282,-5.3353,-5.5402,-5.6348,-5.6624,-5.7807,-5.8429,-5.8665,-5.8665,-5.9165,-5.9896,-5.9896,-6.0281,-6.0781,-6.0781,-6.0781,-6.0781,-6.0781,-6.0781,-6.0781,-6.0781,-6.0781,-6.0781,-6.0781,-6.0781,-6.0781,-6.0781,-6.0781,-6.0781,-6.0781,-6.0127,-5.9435,-5.9204,-5.8011,-5.6637,-5.5434,-5.5011,-5.4528,-5.3618,-5.2735,-5.206,0.0,-5.0542,0.0,0.0,-4.7933,-4.7278,-4.6432,-4.6124,0.0,0.0,0.0,-4.7625,-4.8432,-4.9086,-4.9894,-5.101,-5.2433,-5.3318,-5.3587,-5.6011,-5.7148,-5.6981,-5.838,-5.8965,-5.8768,-5.912,-5.9178,-5.9061,-5.8882,-5.8781,-5.8777,-5.8777,-5.8756,-5.8698,-5.8698,-5.8614,-5.8492,-5.8492,-5.8443,-5.8371,-5.9379,-6.013,-6.0512,-5.9627,-6.0204,-6.0781,-6.0781,-6.0781,-6.0781,-6.0781,-6.0781,-6.0781,-6.0781,-6.0781,-6.0781,-6.0781,-6.0781,-6.0781,-6.0781,-6.0781,-6.0781,0.0,0.0,-6.0781,-6.0781,-5.9935,-5.9088,-5.828,0.0,-5.4187,-5.3335,-5.1726,-5.1401,-5.2213,-5.3022,-5.4292,-5.5895,-5.6732,-5.7548,-5.828,-5.8303,-5.8781,-5.9473,-5.9473,-6.0012,-6.0781,-6.0781,-6.0781,-6.0781,-6.0781,-6.0781,-6.0781,-6.0781,-6.0781,-6.0781,-6.0781,-6.0781,-6.0781,-6.0781,-6.0781,-6.0781,-6.0781,-6.0781,-6.0781,-6.0781,-6.0127,-5.9281,-5.8473,-5.7588,-5.6983,-5.6983,-5.6291,-5.5412,-5.4551,-5.3656,-5.2752,0.0,-5.1041,0.0,-4.9383,-4.9317,-4.9048,-4.8163,-4.7355,0.0,0.0,-4.7625,-4.8471,-4.9356,-4.9394,-5.0164,-5.1846,-5.2741,-5.3626,-5.4472,-5.6886,-5.7979,-5.7783,-5.9209,-5.9803,-5.956,-5.9328,-5.9196,-5.9177,-5.9043,-5.8962,-5.8879,-5.8879,-5.8818,-5.8698,-5.8698,-5.8614,-5.8492,-5.8492,-5.8443,-5.8371,-6.0373,-6.0577,-6.0704,-6.0435,-6.0627,-6.0781,-6.0781,-6.0781,-6.0781,-6.0781,-6.0781,-6.0781,-6.0781,-6.0781,-6.0781,-6.0781,-6.0781,-6.0781,-6.0781,-6.0781,-6.0781,-6.0781,-6.0781,-6.0781,-6.0781,-6.0512,-5.9973,-5.9127,-5.7769,-5.6444,-5.5104,-5.4601,-5.4775,-5.5538,-5.5798,-5.6529,-5.7593,-5.8391,-5.888,-5.9149,-5.9754,-6.0165,-6.0396,-6.0396,-6.055,-6.0781,-6.0781,-6.0781,-6.0781,-6.0781,-6.0781,-6.0781,-6.0781,-6.0781,-6.0781,-6.0781,-6.0781,-6.0781,-6.0781,-6.0781,-6.0781,-6.0781,-6.0781,-6.0781,-6.0781,-6.0589,-6.0165,-5.9281,-5.8896,-5.8357,-5.7214,-5.6791,-5.6308,-5.5358,-5.404,-5.2993,-5.262,0.0,-5.0266,-4.9383,-4.9356,-4.9048,-4.8202,-4.7355,-4.7355,-4.8509,-4.8279,-4.824,-4.8509,-5.0164,-5.1346,-5.1885,-5.3318,-5.4203,-5.4511,-5.6933,-5.8029,-5.7821,-5.9254,-5.9748,-5.9382,-5.9253,-5.9196,-5.9177,-5.9043,-5.8962,-5.8899,-5.8899,-5.8818,-5.8698,-5.8698,-5.8572,-5.8459,-5.8459,-5.829,-5.8111,-6.0781,-6.0781,-6.0781,-6.0781,-6.0781,-6.0781,-6.0781,-6.0781,-6.0781,-6.0781,-6.0781,-6.0781,-6.0781,-6.0781,-6.0781,-6.0781,-6.0781,-6.0781,-6.0781,-6.0781,-6.0781,-6.0781,-6.0781,-6.0781,-6.0781,-6.0781,-6.0512,-5.9973,-5.9183,-5.8119,-5.6821,-5.6821,-5.7099,-5.7548,-5.7895,-5.8297,-5.8819,-5.9627,-5.9973,-6.005,-6.0589,-6.0781,-6.0781,-6.0781,-6.0781,-6.0781,-6.0781,-6.0781,-6.0781,-6.0781,-6.0781,-6.0781,-6.0781,-6.0781,-6.0781,-6.0781,-6.0781,-6.0781,-6.0781,-6.0781,-6.0781,-6.0781,-6.0781,-6.0781,-6.0781,-6.0781,-6.0666,-6.0089,-5.9742,-5.9088,-5.7742,-5.7214,-5.6692,-5.5742,-5.4194,-5.307,-5.3004,-5.1617,-5.0392,0.0,0.0,-4.9663,-4.9125,-4.8317,-4.8279,-4.9317,-4.8894,-4.874,-4.9048,-5.0846,-5.2192,-5.2856,-5.3933,-5.478,-5.5434,-5.724,-5.8208,-5.8279,-5.9345,-5.9647,-5.929,-5.9272,-5.9234,-5.9234,-5.9139,-5.9022,-5.896,-5.8899,-5.8797,-5.8635,-5.8635,-5.8486,-5.8327,-5.8327,-5.8215,-5.7997,-6.0781,-6.0781,-6.0781,-6.0781,-6.0781,-6.0781,-6.0781,-6.0781,-6.0781,-6.0781,-6.0781,-6.0781,-6.0781,-6.0781,-6.0781,-6.0781,-6.0781,-6.0781,-6.0781,-6.0781,-6.0781,-6.0781,-6.0781,-6.0781,-6.0781,-6.0781,-6.0781,-6.0781,-6.0068,-5.9303,-5.8585,-5.8585,-5.8526,-5.8511,-5.932,-5.9634,-5.9627,-6.0473,-6.0781,-6.0781,-6.0781,-6.0781,-6.0781,-6.0781,-6.0781,-6.0781,-6.0781,-6.0781,-6.0781,-6.0781,-6.0781,-6.0781,-6.0781,-6.0781,-6.0781,-6.0781,-6.0781,-6.0781,-6.0781,-6.0781,-6.0781,-6.0781,-6.0781,-6.0781,-6.0781,-6.0781,-6.0781,-6.0781,-6.0165,-5.9319,-5.8473,-5.7627,-5.6769,-5.5791,-5.4205,-5.307,-5.3015,-5.1628,-5.0622,-5.0622,-5.0673,-5.0712,-5.0712,-4.9894,-4.9433,-4.9548,0.0,-4.9933,-5.0904,-5.1741,-5.2933,-5.4511,-5.4626,-5.5434,-5.706,-5.7819,-5.8515,-5.9182,-5.9474,-5.9472,-5.929,-5.929,-5.929,-5.929,-5.9234,-5.9119,-5.8984,-5.894,-5.8719,-5.8492,-5.8492,-5.8378,-5.8179,-5.8179,-5.8111,-5.7997,-6.0781,-6.0781,-6.0781,-6.0781,-6.0781,-6.0781,-6.0781,-6.0781,-6.0781,-6.0781,-6.0781,-6.0781,-6.0781,-6.0781,-6.0781,-6.0781,-6.0781,-6.0781,-6.0781,-6.0781,-6.0781,-6.0781,-6.0781,-6.0781,-6.0781,-6.0781,-6.0781,-6.0781,-6.06,-6.0431,-6.025,-6.025,-6.02,-6.0227,-6.0419,-6.0523,-6.0512,-6.0704,-6.0781,-6.0781,-6.0781,-6.0781,-6.0781,-6.0781,-6.0781,-6.0781,-6.0781,-6.0781,-6.0781,-6.0781,-6.0781,-6.0781,-6.0781,-6.0781,-6.0781,-6.0781,-6.0781,-6.0781,-6.0781,-6.0781,-6.0781,-6.0781,-6.0781,-6.0781,-6.0781,-6.0781,-6.0781,-6.0781,-6.0627,-6.005,-5.8588,-5.8127,-5.7473,-5.5923,-5.4259,-5.3182,-5.3161,-5.1711,-5.0692,-5.0692,-5.0702,-5.0712,-5.0712,-4.9894,-4.9933,-5.1192,-5.0741,-5.1318,-5.3472,-5.4357,-5.4972,-5.5395,-5.606,-5.6934,-5.7973,-5.87,-5.9331,-5.9787,-5.9656,-5.9472,-5.929,-5.929,-5.929,-5.929,-5.9234,-5.9119,-5.8984,-5.894,-5.8719,-5.8492,-5.8492,-5.8378,-5.8179,-5.8179,-5.8111,-5.7997,-6.0781,-6.0781,-6.0781,-6.0781,-6.0781,-6.0781,-6.0781,-6.0781,-6.0781,-6.0781,-6.0781,-6.0781,-6.0781,-6.0781,-6.0781,-6.0781,-6.0781,-6.0781,-6.0781,-6.0781,-6.0781,-6.0781,-6.0781,-6.0781,-6.0781,-6.0781,-6.0781,-6.0781,-6.0781,-6.0781,-6.0781,-6.0781,-6.0781,-6.0781,-6.0781,-6.0781,-6.0781,-6.0781,-6.0781,-6.0781,-6.0781,-6.0781,-6.0781,-6.0781,-6.0781,-6.0781,-6.0781,-6.0781,-6.0781,-6.0781,-6.0781,-6.0781,-6.0781,-6.0781,-6.0781,-6.0781,-6.0781,-6.0781,-6.0781,-6.0781,-6.0781,-6.0781,-6.0781,-6.0781,-6.0781,-6.0781,-6.0781,-6.0781,-6.0781,-6.0396,-5.9088,-5.855,-5.7742,-5.5972,-5.428,-5.3049,-5.2654,-5.151,-5.0827,-5.1202,-5.1241,-5.1395,-5.1779,-5.1395,-5.151,-5.2423,-5.2087,-5.2779,-5.4934,-5.5472,-5.5857,-5.6291,-5.7126,-5.7962,-5.8773,-5.9396,-5.9774,-5.9847,-5.9668,-5.9492,-5.9401,-5.9401,-5.9401,-5.9383,-5.929,-5.914,-5.8984,-5.894,-5.8735,-5.8443,-5.8443,-5.8312,-5.8088,-5.8088,-5.8065,-5.7997,-6.1166,-6.1166,-6.1166,-6.1166,-6.1166,-6.1166,-6.1166,-6.1166,-6.1166,-6.1166,-6.1166,-6.1166,-6.1166,-6.1166,-6.1166,-6.1166,-6.1166,-6.105,-6.0819,-6.0781,-6.0781,-6.0781,-6.0781,-6.0781,-6.0781,-6.0781,-6.0781,-6.0781,-6.0781,-6.0781,-6.0781,-6.0781,-6.0781,-6.0781,-6.0781,-6.0781,-6.0781,-6.0781,-6.0781,-6.0781,-6.0781,-6.0781,-6.0781,-6.0781,-6.0781,-6.0781,-6.0781,-6.0781,-6.0781,-6.0781,-6.0781,-6.0781,-6.0781,-6.0781,-6.0781,-6.0781,-6.0781,-6.0781,-6.0781,-6.0781,-6.0781,-6.0781,-6.0781,-6.0781,-6.0781,-6.0781,-6.0781,-6.0781,-6.0781,-6.0512,-5.9665,-5.8858,-5.778,-5.6165,-5.4395,-5.2933,-5.2192,-5.1395,-5.1125,-5.1808,-5.2115,-5.2577,-5.3318,-5.351,-5.3626,-5.378,-5.378,-5.4434,-5.6011,-5.6203,-5.6588,-5.7368,-5.8088,-5.8812,-5.9523,-5.9917,-5.9944,-5.9664,-5.9545,-5.9512,-5.9456,-5.9512,-5.9512,-5.953,-5.9383,-5.9197,-5.9004,-5.894,-5.8693,-5.8393,-5.8393,-5.826,-5.7997,-5.7997,-5.7997,-5.7997,-6.2897,-6.2897,-6.2897,-6.2897,-6.2897,-6.2897,-6.2897,-6.2897,-6.2897,-6.2897,-6.2897,-6.2897,-6.2897,-6.2897,-6.2897,-6.2897,-6.2897,-6.232,-6.0896,-6.0781,-6.0781,-6.0781,-6.0781,-6.0781,-6.0781,-6.0781,-6.0781,-6.0781,-6.0781,-6.0781,-6.0781,-6.0781,-6.0781,-6.0781,-6.0781,-6.0781,-6.0781,-6.0781,-6.0781,-6.0781,-6.0781,-6.0781,-6.0781,-6.0781,-6.0781,-6.0781,-6.0781,-6.0781,-6.0781,-6.0781,-6.0781,-6.0781,-6.0781,-6.0781,-6.0781,-6.0781,-6.0781,-6.0781,-6.0781,-6.0781,-6.0781,-6.0781,-6.0781,-6.0781,-6.0781,-6.0781,-6.0781,-6.0781,-6.0781,-6.0512,-5.9665,-5.8858,-5.7973,-5.6983,-5.478,-5.3164,-5.301,-5.2269,-5.1769,-5.1885,-5.3203,-5.4164,-5.428,-5.4895,-5.5626,-5.6368,-5.6406,-5.6857,-5.7857,-5.855,-5.8973,-5.9127,-5.9242,-5.9598,-6.0158,-6.0053,-5.9831,-5.9434,-5.9492,-5.9438,-5.9309,-5.9438,-5.951,-5.9581,-5.9364,-5.9272,-5.9139,-5.898,-5.8693,-5.8393,-5.8393,-5.826,-5.7997,-5.7997,-5.7997,-5.7997,-6.3308,-6.3308,-6.3308,-6.3308,-6.3308,-6.3308,-6.3308,-6.3308,-6.3308,-6.3308,-6.3308,-6.3308,-6.3308,-6.3308,-6.3308,-6.3308,-6.3308,-6.2974,-6.2204,-6.2166,-6.2166,-6.2166,-6.2166,-6.1935,-6.1524,-6.1512,-6.1281,-6.0781,-6.0781,-6.0781,-6.0781,-6.0781,-6.0781,-6.0781,-6.0781,-6.0781,-6.0781,-6.0781,-6.105,-6.1512,-6.1512,-6.1743,-6.2166,-6.2166,-6.2166,-6.2166,-6.2166,-6.2166,-6.2166,-6.2166,-6.2166,-6.2166,-6.2166,-6.2166,-6.2166,-6.2166,-6.1512,-6.0781,-6.0781,-6.0781,-6.0781,-6.0781,-6.0781,-6.0781,-6.0781,-6.0781,-6.0781,-6.0781,-6.0781,-6.0666,-6.0281,-5.9511,-5.8511,-5.7203,-5.5626,-5.4241,-5.3318,-5.328,-5.3472,-5.3895,-5.5049,-5.6011,-5.6511,-5.6896,-5.728,-5.7665,-5.7703,-5.805,-5.8896,-5.9319,-5.9704,-6.0204,-6.0109,-6.0111,-6.0237,-5.9991,-5.9698,-5.9436,-5.9474,-5.9474,-5.9492,-5.9633,-5.9702,-5.9723,-5.956,-5.94,-5.9253,-5.9041,-5.876,-5.8443,-5.8415,-5.826,-5.7997,-5.7997,-5.7997,-5.7997,-6.3897,-6.3897,-6.3897,-6.3897,-6.3897,-6.3897,-6.3897,-6.3897,-6.3897,-6.3897,-6.3897,-6.3897,-6.3897,-6.3897,-6.3897,-6.3897,-6.3897,-6.3897,-6.3897,-6.3897,-6.3743,-6.332,-6.3308,-6.3012,-6.2397,-6.2358,-6.205,-6.1396,-6.1396,-6.1396,-6.1396,-6.1396,-6.1396,-6.1396,-6.1396,-6.1396,-6.1396,-6.1396,-6.1781,-6.2358,-6.2358,-6.2743,-6.3308,-6.3308,-6.3308,-6.3308,-6.3308,-6.3308,-6.3308,-6.3308,-6.3308,-6.3308,-6.3308,-6.3308,-6.3308,-6.3308,-6.2397,-6.1281,-6.0896,-6.0781,-6.0781,-6.0781,-6.0781,-6.0781,-6.0781,-6.0781,-6.0781,-6.0781,-6.0781,-6.0781,-6.0781,-6.0089,-5.9088,-5.7769,-5.6703,-5.5549,-5.4241,-5.4664,-5.5318,-5.5934,-5.6934,-5.7819,-5.8511,-5.8781,-5.8896,-5.8896,-5.8896,-5.9165,-5.9781,-5.9819,-6.0089,-6.0769,-6.0572,-6.036,-6.0194,-5.9864,-5.9633,-5.9512,-5.9512,-5.9528,-5.9616,-5.9803,-5.9853,-5.9824,-5.977,-5.9578,-5.9346,-5.912,-5.8825,-5.8471,-5.8437,-5.826,-5.7997,-5.7997,-5.7997,-5.7997,-6.5705,-6.5705,-6.5705,-6.5705,-6.5705,-6.5705,-6.5705,-6.5705,-6.5705,-6.5705,-6.5705,-6.5705,-6.5705,-6.5705,-6.5705,-6.5705,-6.5705,-6.5705,-6.5705,-6.5705,-6.4974,-6.3346,-6.3308,-6.3281,-6.3205,-6.3205,-6.3166,-6.3128,-6.3128,-6.3128,-6.3128,-6.3128,-6.3128,-6.3128,-6.3128,-6.3128,-6.3128,-6.3128,-6.3166,-6.3205,-6.3205,-6.3231,-6.3308,-6.3308,-6.3308,-6.3308,-6.3308,-6.3308,-6.3308,-6.3308,-6.3308,-6.3308,-6.3308,-6.3308,-6.3308,-6.3308,-6.3205,-6.2781,-6.1204,-6.0781,-6.0781,-6.0781,-6.0781,-6.0781,-6.0781,-6.0781,-6.0781,-6.0781,-6.0781,-6.0781,-6.0781,-6.0089,-5.9473,-5.9358,-5.7973,-5.6868,-5.6753,-5.6791,-5.683,-5.6907,-5.8319,-5.9358,-5.9396,-6.0127,-6.0627,-6.0627,-6.0627,-6.0627,-6.0704,-6.0704,-6.0719,-6.0697,-6.0455,-6.0265,-6.0194,-5.9815,-5.9563,-5.9512,-5.9512,-5.9528,-5.9616,-5.9803,-5.9885,-5.9885,-5.9885,-5.9736,-5.9494,-5.9253,-5.8922,-5.8471,-5.8437,-5.826,-5.7997,-5.7997,-5.7997,-5.7997,-6.5897,-6.5897,-6.5897,-6.5897,-6.5897,-6.5897,-6.5897,-6.5897,-6.5897,-6.5897,-6.5897,-6.5897,-6.5897,-6.5897,-6.5897,-6.5897,-6.5897,-6.5897,-6.5897,-6.5897,-6.559,-6.4936,-6.4897,-6.4666,-6.4128,-6.4128,-6.3858,-6.3308,-6.3308,-6.3308,-6.3308,-6.3308,-6.3308,-6.3308,-6.3308,-6.3308,-6.3308,-6.3308,-6.3628,-6.4128,-6.4128,-6.4436,-6.4897,-6.4897,-6.4897,-6.4897,-6.4897,-6.4897,-6.4897,-6.4897,-6.4897,-6.4897,-6.4897,-6.4897,-6.482,-6.4282,-6.4128,-6.3858,-6.2666,-6.2358,-6.2358,-6.2358,-6.1973,-6.1601,-6.1601,-6.1166,-6.0781,-6.0781,-6.0781,-6.0781,-6.0781,-6.0512,-6.0127,-5.9588,-5.8973,-5.8396,-5.7896,-5.8242,-5.855,-5.855,-5.9588,-6.0319,-6.0319,-6.0589,-6.0781,-6.0781,-6.0781,-6.0781,-6.0781,-6.0746,-6.0697,-6.0623,-6.0373,-6.0217,-6.0144,-5.9869,-5.9668,-5.9633,-5.9702,-5.9786,-5.9831,-6.0045,-6.0091,-6.0007,-5.9998,-5.9853,-5.9616,-5.9309,-5.8962,-5.8614,-5.8459,-5.826,-5.7997,-5.7997,-5.7997,-5.7997,-6.5897,-6.5897,-6.5897,-6.5897,-6.5897,-6.5897,-6.5897,-6.5897,-6.5897,-6.5897,-6.5897,-6.5897,-6.5897,-6.5897,-6.5897,-6.5897,-6.5897,-6.5897,-6.5897,-6.5897,-6.5897,-6.5897,-6.5897,-6.5628,-6.5013,-6.5013,-6.4705,-6.4128,-6.4128,-6.4128,-6.4128,-6.4128,-6.4128,-6.4128,-6.4128,-6.4128,-6.4128,-6.4128,-6.4474,-6.5013,-6.5013,-6.5359,-6.5897,-6.5897,-6.5897,-6.5897,-6.5897,-6.5897,-6.5897,-6.5897,-6.5897,-6.5897,-6.5897,-6.5897,-6.5782,-6.5166,-6.5013,-6.4897,-6.4282,-6.4128,-6.3974,-6.3435,-6.2897,-6.2474,-6.2474,-6.2012,-6.1512,-6.1243,-6.1204,-6.1127,-6.0858,-6.0781,-6.0589,-6.0012,-5.9896,-5.9704,-5.9165,-5.955,-5.9896,-5.9896,-6.0435,-6.0781,-6.0781,-6.0781,-6.0781,-6.0781,-6.0781,-6.0781,-6.0757,-6.0697,-6.0623,-6.0559,-6.0384,-6.0217,-6.0167,-5.9918,-5.9803,-5.9798,-5.9902,-5.9982,-6.006,-6.0235,-6.025,-6.0084,-6.0038,-5.9896,-5.9681,-5.9383,-5.9022,-5.8714,-5.8739,-5.8606,-5.84,-5.8657,-5.8731,-5.8731,-6.5897,-6.5897,-6.5897,-6.5897,-6.5897,-6.5897,-6.5897,-6.5897,-6.5897,-6.5897,-6.5897,-6.5897,-6.5897,-6.5897,-6.5897,-6.5897,-6.5897,-6.5897,-6.5897,-6.5897,-6.5897,-6.5897,-6.5897,-6.5897,-6.5897,-6.5897,-6.5897,-6.5897,-6.5897,-6.5897,-6.5897,-6.5897,-6.5897,-6.5897,-6.5897,-6.5897,-6.5897,-6.5897,-6.5897,-6.5897,-6.5897,-6.5897,-6.5897,-6.5897,-6.5897,-6.5897,-6.5897,-6.5897,-6.5897,-6.5897,-6.5897,-6.5897,-6.5897,-6.5897,-6.5897,-6.5897,-6.5897,-6.5897,-6.5897,-6.5897,-6.5474,-6.3743,-6.332,-6.3308,-6.3308,-6.3308,-6.3089,-6.2293,-6.2101,-6.1831,-6.0973,-6.0819,-6.0819,-6.0781,-6.0781,-6.0781,-6.0781,-6.0781,-6.0781,-6.0781,-6.0781,-6.0781,-6.0781,-6.0781,-6.0781,-6.0781,-6.0781,-6.0757,-6.0697,-6.0623,-6.0584,-6.048,-6.0412,-6.038,-6.0294,-6.0051,-5.9934,-6.0013,-6.0013,-6.006,-6.0099,-6.025,-6.025,-6.0099,-6.0099,-5.9944,-5.9681,-5.94,-5.9081,-5.8788,-5.9368,-5.9453,-5.9294,-6.0126,-6.0419,-6.0309,-6.5897,-6.5897,-6.5897,-6.5897,-6.5897,-6.5897,-6.5897,-6.5897,-6.5897,-6.5897,-6.5897,-6.5897,-6.5897,-6.5897,-6.6128,-6.6667,-6.6744,-6.7013,-6.7628,-6.7667,-6.7667,-6.7667,-6.6513,-6.5897,-6.5897,-6.5897,-6.5897,-6.5897,-6.5897,-6.5897,-6.5897,-6.5897,-6.5897,-6.5897,-6.5897,-6.5897,-6.5897,-6.5897,-6.5897,-6.5897,-6.5897,-6.5897,-6.5897,-6.5897,-6.5897,-6.5897,-6.5897,-6.5897,-6.5897,-6.5897,-6.5897,-6.5897,-6.5897,-6.5897,-6.5897,-6.5897,-6.5897,-6.5897,-6.5897,-6.5897,-6.5782,-6.5243,-6.4666,-6.4205,-6.4205,-6.3743,-6.3243,-6.2974,-6.2935,-6.2704,-6.187,-6.1716,-6.1524,-6.0896,-6.0781,-6.0781,-6.0781,-6.0781,-6.0781,-6.0781,-6.0781,-6.0781,-6.0781,-6.0781,-6.0781,-6.0781,-6.0746,-6.0673,-6.0559,-6.052,-6.048,-6.0412,-6.0366,-6.0308,-6.0294,-6.0122,-6.0106,-6.022,-6.022,-6.0264,-6.0313,-6.0366,-6.0366,-6.0299,-6.0144,-5.9991,-5.9857,-6.0076,-5.9903,-5.9605,-6.0219,-6.0287,-6.0089,-6.0309,-6.0419,-6.0382,-6.5897,-6.5897,-6.5897,-6.5897,-6.5897,-6.5897,-6.5897,-6.6167,-6.6359,-6.6359,-6.6667,-6.6898,-6.6898,-6.6898,-6.709,-6.7552,-6.7628,-6.7859,-6.8359,-6.8385,-6.8385,-6.8385,-6.7436,-6.6898,-6.6898,-6.6898,-6.6898,-6.6898,-6.6898,-6.6898,-6.6898,-6.6898,-6.6898,-6.6898,-6.6898,-6.6898,-6.6898,-6.6898,-6.6898,-6.6898,-6.6898,-6.6898,-6.6898,-6.6898,-6.6898,-6.6898,-6.6898,-6.6898,-6.6898,-6.6898,-6.6898,-6.6898,-6.6898,-6.6898,-6.6821,-6.6474,-6.6359,-6.632,-6.5974,-6.5897,-6.5897,-6.5897,-6.5513,-6.5128,-6.5128,-6.4705,-6.4243,-6.3897,-6.382,-6.3551,-6.2743,-6.2332,-6.1947,-6.1408,-6.1012,-6.0781,-6.0781,-6.0781,-6.0781,-6.0781,-6.0781,-6.0781,-6.0757,-6.0746,-6.0734,-6.071,-6.0648,-6.0572,-6.048,-6.0453,-6.0425,-6.0422,-6.0366,-6.049,-6.0795,-6.0751,-6.0584,-6.0294,-6.0666,-6.0824,-6.0867,-6.1211,-6.1402,-6.1402,-6.1187,-6.0995,-6.0892,-6.0998,-6.0763,-6.0438,-6.1032,-6.1111,-6.0896,-6.1227,-6.1374,-6.13,-6.5897,-6.5897,-6.5897,-6.5974,-6.6013,-6.6013,-6.609,-6.6744,-6.7205,-6.7205,-6.7898,-6.8385,-6.8385,-6.8385,-6.8436,-6.85,-6.859,-6.8615,-6.8615,-6.8615,-6.8615,-6.8615,-6.8615,-6.8615,-6.8615,-6.8475,-6.8385,-6.8385,-6.8385,-6.8385,-6.8385,-6.8385,-6.8385,-6.8385,-6.8385,-6.8385,-6.8385,-6.8385,-6.8385,-6.8385,-6.8385,-6.8385,-6.8385,-6.8385,-6.8385,-6.8385,-6.8385,-6.8385,-6.8385,-6.8385,-6.8385,-6.8385,-6.8385,-6.8385,-6.8244,-6.7436,-6.7205,-6.7051,-6.632,-6.6051,-6.6013,-6.6013,-6.5936,-6.5897,-6.5897,-6.5897,-6.5667,-6.4897,-6.4705,-6.4436,-6.3589,-6.282,-6.2293,-6.2216,-6.1473,-6.0935,-6.0935,-6.0858,-6.0781,-6.0781,-6.0781,-6.0757,-6.0685,-6.0685,-6.0648,-6.0623,-6.0596,-6.0594,-6.0581,-6.0603,-6.0613,-6.0613,-6.0613,-6.0981,-6.1707,-6.1707,-6.132,-6.0523,-6.1335,-6.1707,-6.1745,-6.2548,-6.2892,-6.2877,-6.2673,-6.2515,-6.237,-6.2052,-6.1623,-6.1255,-6.186,-6.1921,-6.1777,-6.2548,-6.278,-6.267,-6.5897,-6.5897,-6.609,-6.6744,-6.6821,-6.7051,-6.7744,-6.8013,-6.8129,-6.8129,-6.8282,-6.8385,-6.8385,-6.8385,-6.8667,-6.936,-6.9975,-7.036,-7.036,-7.036,-7.036,-7.036,-7.036,-7.036,-7.036,-6.909,-6.8385,-6.8385,-6.8385,-6.8385,-6.8385,-6.8385,-6.8385,-6.8385,-6.8385,-6.8385,-6.8385,-6.8385,-6.8385,-6.8385,-6.8385,-6.8385,-6.8385,-6.8385,-6.8385,-6.8385,-6.8385,-6.8385,-6.8385,-6.8385,-6.8385,-6.8385,-6.8385,-6.8385,-6.8359,-6.8167,-6.8129,-6.809,-6.7898,-6.7359,-6.6821,-6.6821,-6.6359,-6.5897,-6.5897,-6.5897,-6.5859,-6.5667,-6.5628,-6.5359,-6.4474,-6.4166,-6.382,-6.3166,-6.2358,-6.1831,-6.1831,-6.1243,-6.0769,-6.0722,-6.071,-6.0685,-6.061,-6.061,-6.0585,-6.0545,-6.1092,-6.1409,-6.1353,-6.1989,-6.2357,-6.2357,-6.2357,-6.2433,-6.2624,-6.2624,-6.2533,-6.2328,-6.2533,-6.2624,-6.2624,-6.2815,-6.2892,-6.2877,-6.2673,-6.2515,-6.2408,-6.2655,-6.2446,-6.2109,-6.2697,-6.2769,-6.2585,-6.2768,-6.278,-6.278,-6.709,-6.709,-6.7244,-6.7667,-6.7705,-6.7859,-6.8321,-6.8744,-6.9013,-6.9013,-6.936,-6.959,-6.959,-6.959,-6.9783,-7.0244,-7.0667,-7.0898,-7.0898,-7.0898,-7.0898,-7.0898,-7.0898,-7.0898,-7.0898,-7.0052,-6.959,-6.959,-6.959,-6.959,-6.959,-6.959,-6.959,-6.959,-6.959,-6.959,-6.959,-6.959,-6.959,-6.959,-6.959,-6.959,-6.959,-6.959,-6.959,-6.959,-6.959,-6.959,-6.959,-6.959,-6.959,-6.959,-6.959,-6.959,-6.9513,-6.9129,-6.9013,-6.8936,-6.85,-6.809,-6.7705,-6.7705,-6.709,-6.6359,-6.5974,-6.5897,-6.5897,-6.5897,-6.5897,-6.5743,-6.5282,-6.4897,-6.4436,-6.4012,-6.3205,-6.2654,-6.2629,-6.2233,-6.1901,-6.1838,-6.1825,-6.1838,-6.1772,-6.1732,-6.1691,-6.1649,-6.2032,-6.2271,-6.2204,-6.2662,-6.2892,-6.2892,-6.2892,-6.3121,-6.3503,-6.3503,-6.3694,-6.4076,-6.3694,-6.3503,-6.3541,-6.3923,-6.4076,-6.4099,-6.3939,-6.3796,-6.3651,-6.3672,-6.343,-6.2978,-6.3234,-6.3075,-6.278,-6.278,-6.278,-6.278,-6.8385,-6.8385,-6.8462,-6.859,-6.8629,-6.8667,-6.8821,-6.9436,-6.9898,-6.9898,-7.0475,-7.0898,-7.0898,-7.0898,-7.0898,-7.0898,-7.0898,-7.0898,-7.0898,-7.0898,-7.0898,-7.0898,-7.0898,-7.0898,-7.0898,-7.0898,-7.0898,-7.0898,-7.0898,-7.0898,-7.0898,-7.0898,-7.0898,-7.0898,-7.0898,-7.0898,-7.0898,-7.0898,-7.0898,-7.0898,-7.0898,-7.0898,-7.0898,-7.0898,-7.0898,-7.0898,-7.0898,-7.0898,-7.0898,-7.0898,-7.0898,-7.0898,-7.0898,-7.0898,-7.0783,-7.009,-6.9898,-6.9744,-6.9013,-6.8744,-6.8629,-6.8629,-6.7975,-6.7128,-6.6474,-6.609,-6.5897,-6.5897,-6.5897,-6.5897,-6.5897,-6.532,-6.482,-6.482,-6.4089,-6.3488,-6.3438,-6.331,-6.3194,-6.3115,-6.3088,-6.3048,-6.2992,-6.2921,-6.2892,-6.2906,-6.3045,-6.3121,-6.3136,-6.3274,-6.335,-6.335,-6.335,-6.3656,-6.4397,-6.4435,-6.4726,-6.5375,-6.4726,-6.4435,-6.442,-6.5108,-6.5413,-6.5413,-6.5321,-6.5194,-6.4972,-6.4632,-6.4172,-6.3683,-6.3474,-6.3147,-6.278,-6.278,-6.278,-6.278,-6.8385,-6.8385,-6.8629,-6.9398,-6.9513,-6.9744,-7.0475,-7.0667,-7.0744,-7.0744,-7.0821,-7.0898,-7.0898,-7.0898,-7.0898,-7.0898,-7.0898,-7.0898,-7.0898,-7.0898,-7.0898,-7.0898,-7.0898,-7.0898,-7.0898,-7.0898,-7.0898,-7.0898,-7.0898,-7.0898,-7.0898,-7.0898,-7.0898,-7.0898,-7.0898,-7.0898,-7.0898,-7.0898,-7.0898,-7.0898,-7.0898,-7.0898,-7.0898,-7.0898,-7.0898,-7.0898,-7.0898,-7.0898,-7.0898,-7.0898,-7.0898,-7.0898,-7.0898,-7.0898,-7.0898,-7.0783,-7.0744,-7.0706,-7.0591,-7.0052,-6.9513,-6.9513,-6.8859,-6.8205,-6.809,-6.6936,-6.5897,-6.5897,-6.5897,-6.5897,-6.5897,-6.5782,-6.5705,-6.5705,-6.4974,-6.4436,-6.4423,-6.3719,-6.3194,-6.3115,-6.2992,-6.2906,-6.2906,-6.2892,-6.2921,-6.2992,-6.3623,-6.4029,-6.4087,-6.4717,-6.507,-6.507,-6.507,-6.5108,-6.5222,-6.5222,-6.5299,-6.5413,-6.5299,-6.5222,-6.5222,-6.5337,-6.5413,-6.5413,-6.5321,-6.5194,-6.4972,-6.4632,-6.4172,-6.3683,-6.3474,-6.3147,-6.278,-6.278,-6.278,-6.278,-6.9821,-6.9821,-6.9937,-7.0283,-7.036,-7.0475,-7.086,-7.0898,-7.0898,-7.0898,-7.0898,-7.0898,-7.0898,-7.0898,-7.0898,-7.0898,-7.0898,-7.1091,-7.1591,-7.1629,-7.1822,-7.2322,-7.236,-7.236,-7.236,-7.186,-7.1629,-7.1629,-7.1129,-7.0898,-7.0898,-7.0898,-7.0898,-7.0898,-7.0898,-7.0898,-7.0898,-7.0898,-7.0898,-7.0898,-7.0898,-7.0898,-7.0898,-7.0898,-7.0898,-7.0898,-7.0898,-7.0898,-7.0898,-7.0898,-7.0898,-7.0898,-7.0898,-7.0898,-7.0898,-7.0898,-7.0898,-7.0898,-7.0898,-7.0629,-7.036,-7.036,-6.9744,-6.9129,-6.9129,-6.8167,-6.7167,-6.6667,-6.6205,-6.5897,-6.5897,-6.5897,-6.5897,-6.5897,-6.559,-6.5308,-6.5269,-6.4898,-6.4615,-6.4496,-6.4426,-6.4398,-6.4398,-6.4398,-6.4412,-6.4441,-6.4795,-6.4973,-6.4958,-6.5273,-6.542,-6.5413,-6.5413,-6.5413,-6.5413,-6.5413,-6.5413,-6.5413,-6.5413,-6.5413,-6.5413,-6.5413,-6.5413,-6.5413,-6.5368,-6.5258,-6.5095,-6.4815,-6.4348,-6.3792,-6.3587,-6.3194,-6.278,-6.278,-6.278,-6.278]},{"header":{"parameterUnit":"m.s-1","parameterCategory":1,"la1":30.6,"la2":28.766,"lo1":-90.7593,"lo2":-88.6598,"dy":0.0162,"dx":0.0183,"nx":116,"ny":114,"refTime":"2024-03-30T00:00:00:Z","depth":0,"parameterNumber":3,"parameterNumberName":"V-component_of_WINDS"},"data":[0.0,0.0,0.0,0.0,0.0,0.0,0.0,0.0,0.0,0.0,0.0,0.0,0.0,0.0,0.0,0.0,0.0,0.0,0.0,0.0,0.0,0.0,0.0,0.0,0.0,0.0,0.0,0.0,0.0,0.0,0.0,0.0,0.0,0.0,0.0,0.0,0.0,0.0,0.0,0.0,0.0,0.0,0.0,0.0,0.0,0.0,0.0,0.0,0.0,0.0,0.0,0.0,0.0,0.0,0.0,0.0,0.0,0.0,0.0,0.0,0.0,0.0,0.0,0.0,0.0,0.0,0.0,0.0,0.0,0.0,0.0,0.0,0.0,0.0,0.0,0.0,0.0,0.0,0.0,0.0,0.0,0.0,0.0,0.0,0.0,0.0,0.0,0.0,0.0,0.0,0.0,0.0,0.0,0.0,0.0,0.0,0.0,0.0,0.0,0.0,0.0,0.0,0.0,0.0,0.0,0.0,0.0,0.0,0.0,0.0,0.0,0.0,0.0,0.0,0.0,0.0,0.0,0.0,0.0,0.0,0.0,0.0,0.0,0.0,0.0,0.0,0.0,0.0,0.0,0.0,0.0,0.0,0.0,0.0,0.0,0.0,0.0,0.0,0.0,0.0,0.0,0.0,0.0,0.0,0.0,0.0,0.0,0.0,0.0,0.0,0.0,0.0,0.0,0.0,0.0,0.0,0.0,0.0,0.0,0.0,0.0,0.0,0.0,0.0,0.0,0.0,0.0,0.0,0.0,0.0,0.0,0.0,0.0,0.0,0.0,0.0,0.0,0.0,0.0,0.0,0.0,0.0,0.0,0.0,0.0,0.0,0.0,0.0,0.0,0.0,0.0,0.0,0.0,0.0,0.0,0.0,0.0,0.0,0.0,0.0,0.0,0.0,0.0,0.0,0.0,0.0,0.0,0.0,0.0,0.0,0.0,0.0,0.0,0.0,0.0,0.0,0.0,0.0,0.0,0.0,0.0,0.0,0.0,0.0,0.0,0.0,0.0,0.0,0.0,0.0,0.0,0.0,0.0,0.0,0.0,0.0,0.0,0.0,0.0,0.0,0.0,0.0,0.0,0.0,0.0,0.0,0.0,0.0,0.0,0.0,0.0,0.0,0.0,0.0,0.0,0.0,0.0,0.0,0.0,0.0,0.0,0.0,0.0,0.0,0.0,0.0,0.0,0.0,0.0,0.0,0.0,0.0,0.0,0.0,0.0,0.0,0.0,0.0,0.0,0.0,0.0,0.0,0.0,0.0,0.0,0.0,0.0,0.0,0.0,0.0,0.0,0.0,0.0,0.0,0.0,0.0,0.0,0.0,0.0,0.0,0.0,0.0,0.0,0.0,0.0,0.0,0.0,0.0,0.0,0.0,0.0,0.0,0.0,0.0,0.0,0.0,0.0,0.0,0.0,0.0,0.0,0.0,0.0,0.0,0.0,0.0,0.0,0.0,0.0,0.0,0.0,0.0,0.0,0.0,0.0,0.0,0.0,0.0,0.0,0.0,0.0,0.0,0.0,0.0,0.0,0.0,0.0,0.0,0.0,0.0,0.0,0.0,0.0,0.0,0.0,0.0,0.0,0.0,0.0,0.0,0.0,0.0,0.0,0.0,0.0,0.0,0.0,0.0,0.0,0.0,0.0,0.0,0.0,0.0,0.0,0.0,0.0,0.0,0.0,0.0,0.0,0.0,0.0,0.0,0.0,0.0,0.0,0.0,0.0,0.0,0.0,0.0,0.0,0.0,0.0,0.0,0.0,0.0,0.0,0.0,0.0,0.0,0.0,0.0,0.0,0.0,0.0,0.0,0.0,0.0,0.0,0.0,0.0,0.0,0.0,0.0,0.0,0.0,0.0,0.0,0.0,0.0,0.0,0.0,0.0,0.0,0.0,0.0,0.0,0.0,0.0,0.0,0.0,0.0,0.0,0.0,0.0,0.0,0.0,0.0,0.0,0.0,0.0,0.0,0.0,0.0,0.0,0.0,0.0,0.0,0.0,0.0,0.0,0.0,0.0,0.0,0.0,0.0,0.0,0.0,0.0,0.0,0.0,0.0,0.0,0.0,0.0,0.0,0.0,0.0,0.0,0.0,0.0,0.0,0.0,0.0,0.0,0.0,0.0,0.0,0.0,0.0,0.0,0.0,0.0,0.0,0.0,0.0,0.0,0.0,0.0,0.0,0.0,0.0,0.0,0.0,0.0,0.0,0.0,0.0,0.0,0.0,0.0,0.0,0.0,0.0,0.0,0.0,0.0,0.0,0.0,0.0,0.0,0.0,0.0,0.0,0.0,0.0,0.0,0.0,0.0,0.0,0.0,0.0,0.0,0.0,0.0,0.0,0.0,0.0,0.0,0.0,0.0,0.0,0.0,0.0,0.0,0.0,0.0,0.0,0.0,0.0,0.0,0.0,0.0,0.0,0.0,0.0,0.0,0.0,0.0,0.0,0.0,0.0,0.0,0.0,0.0,0.0,0.0,0.0,0.0,0.0,0.0,0.0,0.0,0.0,0.0,0.0,0.0,0.0,0.0,0.0,0.0,0.0,0.0,0.0,0.0,0.0,0.0,0.0,0.0,0.0,0.0,0.0,0.0,0.0,0.0,0.0,0.0,0.0,0.0,0.0,0.0,0.0,0.0,0.0,0.0,0.0,0.0,0.0,0.0,0.0,0.0,0.0,0.0,0.0,0.0,0.0,0.0,0.0,0.0,0.0,0.0,0.0,0.0,0.0,0.0,0.0,0.0,0.0,0.0,0.0,0.0,0.0,0.0,0.0,0.0,0.0,0.0,0.0,0.0,0.0,0.0,0.0,0.0,0.0,0.0,0.0,0.0,0.0,0.0,0.0,0.0,0.0,0.0,0.0,0.0,0.0,0.0,0.0,0.0,0.0,0.0,0.0,0.0,0.0,0.0,0.0,0.0,0.0,0.0,0.0,0.0,0.0,0.0,0.0,0.0,0.0,0.0,0.0,0.0,0.0,0.0,0.0,0.0,0.0,0.0,0.0,0.0,0.0,0.0,0.0,0.0,0.0,0.0,0.0,0.0,0.0,0.0,0.0,0.0,0.0,0.0,0.0,0.0,0.0,0.0,0.0,0.0,0.0,0.0,0.0,0.0,0.0,0.0,0.0,0.0,0.0,0.0,0.0,0.0,0.0,0.0,0.0,0.0,0.0,0.0,0.0,0.0,0.0,0.0,0.0,0.0,0.0,0.0,0.0,0.0,0.0,0.0,0.0,0.0,0.0,0.0,0.0,0.0,0.0,0.0,0.0,0.0,0.0,0.0,0.0,0.0,0.0,0.0,0.0,0.0,0.0,0.0,0.0,0.0,0.0,0.0,0.0,0.0,0.0,0.0,0.0,0.0,0.0,0.0,0.0,0.0,0.0,0.0,0.0,0.0,0.0,0.0,0.0,0.0,0.0,0.0,0.0,0.0,0.0,0.0,0.0,0.0,0.0,0.0,0.0,0.0,0.0,0.0,0.0,0.0,0.0,0.0,0.0,0.0,0.0,0.0,0.0,0.0,0.0,0.0,0.0,0.0,0.0,0.0,0.0,0.0,0.0,0.0,0.0,0.0,0.0,0.0,0.0,0.0,0.0,0.0,0.0,0.0,0.0,0.0,0.0,0.0,0.0,0.0,0.0,0.0,0.0,0.0,0.0,0.0,0.0,0.0,0.0,0.0,0.0,0.0,0.0,0.0,0.0,0.0,0.0,0.0,0.0,0.0,0.0,0.0,0.0,0.0,0.0,0.0,0.0,0.0,0.0,0.0,0.0,0.0,0.0,0.0,0.0,0.0,0.0,0.0,0.0,0.0,0.0,0.0,0.0,0.0,0.0,0.0,0.0,0.0,0.0,0.0,0.0,0.0,0.0,0.0,0.0,0.0,0.0,0.0,0.0,0.0,0.0,0.0,0.0,0.0,0.0,0.0,0.0,0.0,0.0,0.0,0.0,0.0,0.0,0.0,0.0,0.0,0.0,0.0,0.0,0.0,0.0,0.0,0.0,0.0,0.0,0.0,0.0,0.0,0.0,0.0,0.0,0.0,0.0,0.0,0.0,0.0,0.0,0.0,0.0,0.0,0.0,0.0,0.0,0.0,0.0,0.0,0.0,0.0,0.0,0.0,0.0,0.0,0.0,0.0,0.0,0.0,0.0,0.0,0.0,0.0,0.0,0.0,0.0,0.0,0.0,0.0,0.0,0.0,0.0,0.0,0.0,0.0,0.0,0.0,0.0,0.0,0.0,0.0,0.0,0.0,0.0,0.0,0.0,0.0,0.0,0.0,0.0,0.0,0.0,0.0,0.0,0.0,0.0,0.0,0.0,0.0,0.0,0.0,0.0,0.0,0.0,0.0,0.0,0.0,0.0,0.0,0.0,0.0,0.0,0.0,0.0,0.0,0.0,0.0,0.0,0.0,0.0,0.0,0.0,0.0,0.0,0.0,0.0,0.0,0.0,0.0,0.0,0.0,0.0,0.0,0.0,0.0,0.0,0.0,0.0,0.0,0.0,0.0,0.0,0.0,0.0,0.0,0.0,0.0,0.0,0.0,0.0,0.0,0.0,0.0,0.0,0.0,0.0,0.0,0.0,0.0,0.0,0.0,0.0,0.0,0.0,0.0,0.0,0.0,0.0,0.0,0.0,0.0,0.0,0.0,0.0,0.0,0.0,0.0,0.0,0.0,0.0,0.0,0.0,0.0,0.0,0.0,0.0,0.0,0.0,0.0,0.0,0.0,0.0,0.0,0.0,0.0,0.0,0.0,0.0,0.0,0.0,0.0,0.0,0.0,0.0,0.0,0.0,0.0,0.0,0.0,0.0,0.0,0.0,0.0,0.0,0.0,0.0,0.0,0.0,0.0,0.0,0.0,0.0,0.0,0.0,0.0,0.0,0.0,0.0,0.0,0.0,0.0,0.0,0.0,0.0,0.0,0.0,0.0,0.0,0.0,0.0,0.0,0.0,0.0,0.0,0.0,0.0,0.0,0.0,0.0,0.0,0.0,0.0,0.0,0.0,0.0,0.0,0.0,0.0,0.0,0.0,0.0,0.0,0.0,0.0,0.0,0.0,0.0,0.0,0.0,0.0,0.0,0.0,0.0,0.0,0.0,0.0,0.0,0.0,0.0,0.0,0.0,0.0,0.0,0.0,0.0,0.0,0.0,0.0,0.0,0.0,0.0,0.0,0.0,0.0,0.0,0.0,0.0,0.0,0.0,0.0,0.0,0.0,0.0,0.0,0.0,0.0,0.0,0.0,0.0,0.0,0.0,0.0,0.0,0.0,0.0,0.0,0.0,0.0,0.0,0.0,0.0,0.0,0.0,0.0,0.0,0.0,0.0,0.0,0.0,0.0,0.0,0.0,0.0,0.0,0.0,0.0,0.0,0.0,0.0,0.0,0.0,0.0,0.0,0.0,0.0,0.0,0.0,0.0,0.0,0.0,0.0,0.0,0.0,0.0,0.0,0.0,0.0,0.0,0.0,0.0,0.0,0.0,0.0,0.0,0.0,0.0,0.0,0.0,0.0,0.0,0.0,0.0,0.0,0.0,0.0,0.0,0.0,0.0,0.0,0.0,0.0,0.0,0.0,0.0,0.0,0.0,0.0,0.0,0.0,0.0,0.0,0.0,0.0,0.0,0.0,0.0,0.0,0.0,0.0,0.0,0.0,0.0,0.0,0.0,0.0,0.0,0.0,0.0,0.0,0.0,0.0,0.0,0.0,0.0,0.0,0.0,0.0,0.0,0.0,0.0,0.0,0.0,0.0,0.0,0.0,0.0,0.0,0.0,0.0,0.0,0.0,0.0,0.0,0.0,0.0,0.0,0.0,0.0,0.0,0.0,0.0,0.0,0.0,0.0,0.0,0.0,0.0,0.0,0.0,0.0,0.0,0.0,0.0,0.0,0.0,0.0,0.0,0.0,0.0,0.0,0.0,0.0,0.0,0.0,0.0,0.0,0.0,0.0,0.0,0.0,0.0,0.0,0.0,0.0,0.0,0.0,0.0,0.0,0.0,0.0,0.0,0.0,0.0,0.0,0.0,0.0,0.0,0.0,0.0,0.0,0.0,0.0,0.0,0.0,0.0,0.0,0.0,0.0,0.0,0.0,0.0,0.0,0.2043,0.1463,0.0,0.0,0.0,0.0,0.0,0.0,0.0,0.0,0.0,0.0,0.0,0.0,0.0,0.0,0.0,0.0,0.0,0.0,0.0,0.0,0.0,0.0,0.0,0.1595,0.16,0.1615,0.1617,0.1617,0.1617,0.0,0.0,0.0,0.0,0.0,0.1617,0.1617,0.1617,0.1617,0.1632,0.1645,0.1659,0.1504,0.1419,0.1348,0.0,0.0,0.0,0.0,0.0,0.0,0.0,0.0,0.0,0.0,0.0,0.0,0.0,0.0,0.0,0.0,0.0,0.0,0.0,0.0,0.0,0.0,0.0,0.0,0.0,0.0,0.0,0.0,0.0,0.0,0.0,0.0,0.0,0.0,0.0,0.0,0.0,0.0,0.0,0.0,0.0,0.0,0.0,0.0,0.0,0.0,0.0,0.0,0.0,0.0,0.0,0.0,0.0,0.0,0.0,0.0,0.0,0.0,0.0,0.0,0.0,0.0,0.0,0.0,0.0,0.0,0.0,0.0,0.0,0.0,0.3011,0.2604,0.0,0.0,0.0,0.0,0.0,0.0,0.0,0.0,0.0,0.0,0.0,0.0,0.0,0.0,0.0,0.0,0.0,0.0,0.0,0.0,0.0,0.1517,0.1573,0.1634,0.1598,0.1622,0.1625,0.1625,0.1625,0.162,0.0,0.0,0.0,0.1617,0.1617,0.1617,0.162,0.1625,0.166,0.1695,0.1727,0.1727,0.1757,0.181,0.1794,0.0,0.0,0.0,0.0,0.0,0.0,0.0,0.0,0.0,0.0,0.0,0.0,0.0,0.0,0.0,0.0,0.0,0.0,0.0,0.0,0.0,0.0,0.0,0.0,0.0,0.0,0.0,0.0,0.0,0.0,0.0,0.0,0.0,0.0,0.0,0.0,0.0,0.0,0.0,0.0,0.0,0.0,0.0,0.0,0.0,0.0,0.0,0.0,0.0,0.0,0.0,0.0,0.0,0.0,0.0,0.0,0.0,0.0,0.0,0.0,0.0,0.0,0.0,0.3256,0.3395,0.3731,0.3788,0.3927,0.4202,0.4176,0.3939,0.3535,0.3474,0.0,0.0,0.0,0.0,0.0,0.0,0.0,0.0,0.0,0.0,0.0,0.0,0.0,0.0,0.0,0.0,0.0,0.0,0.0,0.1572,0.1607,0.1635,0.1704,0.1708,0.1708,0.1708,0.1708,0.1632,0.1617,0.1617,0.1617,0.1617,0.1617,0.1617,0.1629,0.1708,0.1764,0.1767,0.1766,0.1766,0.184,0.187,0.1847,0.1825,0.1793,0.0,0.0,0.0,0.0,0.0,0.0,0.0,0.0,0.0,0.0,0.0,0.0,0.0,0.0,0.0,0.0,0.0,0.0,0.0,0.0,0.0,0.0,0.0,0.0,0.0,0.0,0.0,0.0,0.0,0.0,0.0,0.0,0.0,0.0,0.0,0.0,0.0,0.0,0.0,0.0,0.0,0.234,0.2969,0.0,0.0,0.0,0.0,0.0,0.0,0.0,0.0,0.0,0.0,0.0,0.0,0.0,0.4205,0.4325,0.3781,0.3709,0.4056,0.3828,0.3856,0.415,0.4444,0.4846,0.5412,0.5597,0.0,0.4186,0.4368,0.0,0.0,0.0,0.0,0.0,0.0,0.0,0.0,0.0,0.0,0.0,0.0,0.0,0.0,0.0,0.0,0.0,0.0,0.0,0.0,0.0,0.1705,0.1721,0.1684,0.1685,0.168,0.1715,0.165,0.1635,0.1618,0.1617,0.1617,0.1617,0.1633,0.1674,0.1737,0.1779,0.1832,0.1832,0.1874,0.1883,0.1909,0.1851,0.1824,0.182,0.1806,0.0,0.0,0.0,0.0,0.0,0.0,0.0,0.0,0.0,0.0,0.0,0.0,0.0,0.0,0.0,0.0,0.0,0.0,0.0,0.0,0.0,0.0,0.0,0.0,0.0,0.0,0.0,0.0,0.0,0.0,0.0,0.0,0.0,0.0,0.0,0.0,0.0,0.0,0.0,0.2548,0.2938,0.3378,0.3811,0.4346,0.0,0.0,0.0,0.0,0.0,0.0,0.0,0.0,0.0,0.6083,0.5527,0.5199,0.5295,0.498,0.4889,0.4969,0.4848,0.4764,0.4772,0.5084,0.549,0.5863,0.6133,0.6053,0.5694,0.5547,0.5461,0.5461,0.0,0.0,0.0,0.0,0.4934,0.4882,0.0,0.0,0.0,0.0,0.0,0.0,0.0,0.0,0.0,0.0,0.0,0.0,0.1719,0.174,0.1708,0.1737,0.174,0.1727,0.1752,0.1733,0.166,0.1629,0.1621,0.1621,0.1628,0.1673,0.174,0.1829,0.1861,0.1906,0.1964,0.1941,0.1944,0.1964,0.1941,0.1902,0.1851,0.1835,0.1785,0.1715,0.0,0.0,0.0,0.0,0.0,0.0,0.0,0.0,0.0,0.0,0.0,0.0,0.0,0.0,0.0,0.0,0.0,0.0,0.0,0.0,0.0,0.0,0.0,0.0,0.0,0.0,0.0,0.0,0.0,0.0,0.0,0.0,0.0,0.0,0.0,0.0,0.0,0.3491,0.3815,0.4104,0.4564,0.5209,0.0,0.0,0.0,0.0,0.0,0.0,0.7719,0.7265,0.6959,0.693,0.6603,0.6414,0.6441,0.6276,0.6135,0.6021,0.5958,0.5736,0.5476,0.5925,0.6273,0.658,0.6883,0.7148,0.729,0.675,0.6582,0.6662,0.6792,0.6888,0.6888,0.6567,0.6353,0.6192,0.0,0.0,0.0,0.0,0.0,0.0,0.0,0.0,0.0,0.0,0.0,0.1721,0.1699,0.1753,0.1801,0.1774,0.1776,0.1821,0.179,0.1734,0.1689,0.1714,0.1632,0.163,0.1711,0.1745,0.1834,0.1924,0.1955,0.2,0.2121,0.212,0.212,0.2121,0.212,0.1992,0.188,0.1821,0.1778,0.1797,0.1739,0.0,0.0,0.0,0.0,0.0,0.0,0.0,0.0,0.0,0.0,0.0,0.0,0.0,0.0,0.0,0.0,0.0,0.0,0.0,0.0,0.0,0.0,0.0,0.0,0.0,0.0,0.0,0.0,0.0,0.0,0.0,0.0,0.0,0.0,0.0,0.0,0.0,0.0,0.5483,0.5984,0.0,0.0,0.0,0.0,0.8622,0.8373,0.8339,0.8608,0.8232,0.8125,0.8308,0.8144,0.8079,0.8187,0.7885,0.7513,0.7198,0.6878,0.6558,0.6246,0.6951,0.7395,0.7773,0.8406,0.8711,0.869,0.7759,0.7317,0.7414,0.7856,0.8029,0.7968,0.7686,0.7747,0.7913,0.0,0.0,0.0,0.0,0.0,-0.2618,-0.1799,-0.0659,0.0289,0.0797,0.1329,0.174,0.1755,0.18,0.1836,0.1866,0.1888,0.1869,0.18,0.1756,0.1766,0.1717,0.1652,0.1678,0.1746,0.1836,0.1909,0.196,0.2009,0.2053,0.2093,0.2074,0.2075,0.2093,0.2072,0.2103,0.1996,0.1937,0.1861,0.1776,0.1756,0.1707,0.0,0.0,0.0,0.0,0.0,0.0,0.0,0.0,0.0,0.0,0.0,0.0,0.0,0.0,0.0,0.0,0.0,0.0,0.0,0.0,0.0,0.0,0.0,0.0,0.0,0.0,0.0,0.0,0.0,0.0,0.0,0.0,0.0,0.0,0.0,0.0,0.0,0.6251,0.6655,0.0,0.7417,0.809,0.8703,0.913,0.9003,0.9007,0.9239,0.8933,0.8793,0.8973,0.8985,0.908,0.9057,0.9015,0.8859,0.8459,0.8322,0.8131,0.7802,0.8262,0.8525,0.865,0.9098,0.9218,0.9155,0.8922,0.8616,0.8372,0.8558,0.8762,0.8876,0.859,0.8533,0.8597,0.0,0.0,0.0,0.0,-0.3406,-0.2713,-0.1907,-0.0803,0.0194,0.0811,0.1406,0.178,0.1816,0.1862,0.1903,0.1943,0.1955,0.1926,0.1846,0.1793,0.1798,0.1746,0.1754,0.1749,0.1839,0.191,0.1971,0.2022,0.2071,0.2105,0.2124,0.2114,0.2116,0.2124,0.2104,0.2089,0.2076,0.2038,0.1951,0.1839,0.1819,0.1763,0.1745,0.0,0.0,0.0,0.0,0.0,0.0,0.0,0.0,0.0,0.0,0.0,0.0,0.0,0.0,0.0,0.0,0.0,0.0,0.0,0.0,0.0,0.0,0.0,0.0,0.0,0.0,0.0,0.0,0.0,0.0,0.0,0.0,0.0,0.0,0.0,0.7154,0.7304,0.7624,0.7983,0.8202,0.8743,0.9267,0.9598,0.952,0.9619,0.9807,0.9664,0.9602,0.9697,0.9844,0.992,0.992,0.9883,0.9728,0.9455,0.9389,0.9189,0.8989,0.9322,0.9455,0.9516,0.9761,0.9837,0.9691,0.981,0.9617,0.9248,0.9196,0.9353,0.953,0.9294,0.9176,0.917,0.0,0.0,0.0,-0.3946,-0.3496,-0.2907,-0.1986,-0.0953,0.0,0.0774,0.1392,0.184,0.1877,0.1941,0.2001,0.2121,0.2035,0.1993,0.1933,0.1846,0.1782,0.1807,0.1782,0.184,0.193,0.1964,0.2024,0.211,0.2142,0.2225,0.2225,0.2188,0.2185,0.2225,0.2225,0.214,0.2112,0.211,0.2044,0.1871,0.1811,0.1808,0.1808,0.0,0.0,0.0,0.0,0.0,0.0,0.0,0.0,0.0,0.0,0.0,0.0,0.0,0.0,0.0,0.0,0.0,0.0,0.0,0.0,0.0,0.0,0.0,0.0,0.0,0.0,0.0,0.0,0.0,0.0,0.0,0.0,0.0,0.7936,0.8243,0.8546,0.8729,0.9016,0.926,0.9403,0.9653,0.9897,0.999,1.0066,1.0197,1.0283,1.0426,1.05,1.05,1.0643,1.0717,1.0717,1.0392,1.0193,1.0193,0.9861,0.9728,0.9728,1.006,1.0193,1.0259,1.0591,1.0636,1.048,1.0337,1.0188,0.997,0.9883,0.9822,0.9822,0.9822,0.9822,0.9802,0.0,0.0,-0.3991,-0.3901,-0.3496,-0.2998,-0.246,-0.1381,-0.0293,0.0524,0.1078,0.1569,0.1846,0.1971,0.2014,0.203,0.2023,0.1984,0.1903,0.1834,0.1791,0.1783,0.1854,0.1915,0.1963,0.2057,0.2183,0.2142,0.2195,0.2221,0.2221,0.2229,0.2229,0.2221,0.2221,0.2203,0.2173,0.2151,0.211,0.2053,0.1971,0.1903,0.1846,0.0,0.0,0.0,0.0,0.0,0.0,0.0,0.0,0.0,0.0,0.0,0.0,0.0,0.0,0.0,0.0,0.0,0.0,0.0,0.0,0.0,0.0,0.0,0.0,0.0,0.0,0.0,0.0,0.0,0.0,0.0,0.8481,0.8668,0.8653,0.8786,0.8967,0.9131,0.9458,0.9662,0.9701,0.9966,1.0215,1.0358,1.0371,1.0439,1.0588,1.0636,1.0656,1.0656,1.0697,1.0717,1.0717,1.0591,1.0591,1.0591,1.0459,1.0452,1.0452,1.0525,1.0591,1.0591,1.0651,1.0636,1.048,1.0337,1.0188,0.997,0.9883,0.9822,0.9822,0.9822,0.9822,0.9815,0.0,-0.3406,-0.3496,-0.3496,-0.3272,-0.291,-0.2368,-0.1439,-0.0495,0.037,0.0986,0.1485,0.1878,0.199,0.2029,0.2054,0.2022,0.1974,0.1909,0.1859,0.1839,0.1851,0.1939,0.2007,0.205,0.2132,0.218,0.2192,0.2241,0.2258,0.2175,0.2259,0.2258,0.2175,0.2175,0.2166,0.2217,0.2187,0.2163,0.214,0.2063,0.1989,0.1922,0.1904,0.1859,0.1863,0.1863,0.1795,0.1783,0.1857,0.0,0.0,0.0,0.0,0.0,0.0,0.0,0.0,0.0,0.0,0.0,0.0,0.0,0.0,0.0,0.0,0.0,0.0,0.0,0.0,0.0,0.0,0.0,0.0,0.8927,0.9164,0.9235,0.9353,0.9492,0.9761,1.0002,1.0128,1.0187,1.033,1.05,1.0582,1.0588,1.0629,1.0717,1.0717,1.0717,1.0717,1.0717,1.0717,1.0717,1.0717,1.0717,1.0717,1.0717,1.0717,1.0717,1.0717,1.0717,1.0717,1.0717,1.067,1.0568,1.0365,1.0229,1.0127,0.0,0.0,0.0,0.0,0.9822,0.9822,0.0,-0.2732,-0.2777,-0.2777,-0.2777,-0.2544,-0.1849,-0.1307,-0.06,0.037,0.1002,0.1519,0.1962,0.1997,0.2035,0.209,0.2016,0.1955,0.1928,0.1907,0.1911,0.1945,0.2029,0.2166,0.2225,0.2193,0.2223,0.218,0.2281,0.2282,0.2186,0.2282,0.2281,0.2184,0.2184,0.2183,0.2179,0.2222,0.2206,0.2195,0.2142,0.2068,0.1992,0.1988,0.1951,0.19,0.1898,0.1894,0.1891,0.1887,0.0,0.0,0.0,0.0,0.0,0.0,0.0,0.0,0.0,0.0,0.0,0.0,0.0,0.0,0.0,0.0,0.0,0.0,0.0,0.0,0.0,0.0,0.0,0.0,0.9245,0.9537,0.9856,0.9897,1.0046,1.0446,1.0507,1.0568,1.0704,1.0717,1.0717,1.0717,1.0717,1.0717,1.0717,1.0717,0.0,0.0,0.0,1.0717,1.0717,1.0717,1.0717,1.0717,1.0717,1.0717,1.0717,1.0717,1.0717,1.0717,1.0717,1.0717,1.0697,1.0399,1.0256,1.0202,0.9924,0.9822,0.9822,0.9822,0.9822,0.9822,0.0,-0.1884,-0.2018,-0.2018,-0.2018,-0.1911,-0.1612,-0.11,-0.0443,0.0369,0.0826,0.1264,0.187,0.1967,0.1989,0.2001,0.1941,0.19,0.1895,0.1934,0.1982,0.2035,0.2168,0.2154,0.2191,0.2245,0.2277,0.2282,0.2311,0.2322,0.2316,0.2322,0.2322,0.2316,0.2316,0.2304,0.2282,0.2275,0.2245,0.2199,0.2187,0.2143,0.208,0.2056,0.2024,0.199,0.1967,0.1944,0.1918,0.1894,0.1865,0.1779,0.1812,0.0,0.0,0.0,0.0,0.0,0.0,0.0,0.0,0.0,0.0,0.0,0.0,0.0,0.0,0.0,0.0,0.0,0.0,0.0,0.0,0.9408,0.9625,0.9883,1.0304,1.0365,1.0392,1.048,1.0602,1.0683,1.0717,1.0717,1.0717,1.0717,1.0717,1.0717,1.0717,1.0717,1.0717,1.0717,1.0717,1.0717,1.0717,1.0717,1.0717,1.0717,1.0717,0.0,1.0717,1.0717,1.0717,1.0717,1.0717,1.0717,1.0697,1.0399,1.0134,0.9903,0.9842,0.9822,0.9822,0.9822,0.9822,0.9822,0.0,-0.0987,-0.1256,-0.1256,-0.1357,-0.1382,-0.1187,-0.0873,-0.0401,0.037,0.0768,0.1196,0.1841,0.1922,0.1932,0.1932,0.1889,0.1876,0.1906,0.1978,0.211,0.2172,0.2183,0.223,0.2245,0.2289,0.2312,0.2312,0.2326,0.2333,0.2333,0.2333,0.2333,0.2333,0.2333,0.2324,0.2311,0.2297,0.2274,0.2243,0.2213,0.2181,0.215,0.2104,0.2068,0.2037,0.2008,0.1988,0.197,0.1941,0.1911,0.1824,0.1868,0.1935,0.1988,0.0,0.0,0.0,0.0,0.0,0.0,0.0,0.0,0.0,0.0,0.0,0.0,0.0,0.0,0.8395,0.873,0.0,0.9279,0.9652,0.9903,1.0154,1.0453,1.0561,1.0609,1.0609,1.067,1.0717,1.0717,1.0717,1.0717,1.0717,1.0717,1.0717,1.0717,1.0717,1.0717,1.0717,1.0717,1.0717,1.0717,1.0717,1.0717,1.0717,1.0717,1.0717,1.0717,1.0717,1.0717,1.0717,1.0717,1.0717,1.0697,1.0399,1.01,0.9822,0.9822,0.9822,0.9822,0.9822,0.9822,0.9822,0.0,-0.0495,-0.0766,-0.0673,-0.0821,-0.0885,-0.0666,-0.054,-0.0204,0.053,0.0821,0.1186,0.1804,0.1868,0.1866,0.1859,0.1847,0.1812,0.1943,0.2026,0.2105,0.2247,0.2252,0.2293,0.2298,0.2322,0.2333,0.2333,0.2333,0.2333,0.2333,0.2333,0.2333,0.2333,0.2333,0.2333,0.2331,0.2308,0.2296,0.2286,0.2237,0.221,0.2195,0.2146,0.2105,0.2068,0.2038,0.2023,0.2014,0.1986,0.196,0.1939,0.1933,0.2053,0.2206,0.2305,0.2819,0.0,0.0,0.0,0.0,0.0,0.0,0.0,0.0,0.0,0.8346,0.854,0.8689,0.8859,0.9013,0.9306,0.9571,0.9897,1.0161,1.0371,1.0514,1.0643,1.0717,1.0717,1.0717,1.0717,1.0717,1.0717,1.0717,1.0717,1.0717,1.0717,1.0717,1.0717,1.0717,1.0717,1.0717,1.0717,1.0717,1.0717,1.0717,1.0717,1.0717,1.0717,1.0717,1.0717,1.0717,1.0717,1.0717,1.069,1.0616,1.0378,1.01,0.9822,0.9822,0.9822,0.9822,0.9822,0.9822,0.9822,0.0,-0.0911,-0.1009,-0.0495,-0.0456,-0.0373,-0.0143,0.0097,0.0502,0.111,0.1246,0.138,0.1745,0.1805,0.1794,0.1822,0.181,0.1829,0.2001,0.2068,0.2155,0.2271,0.2285,0.2303,0.2327,0.2331,0.2333,0.2333,0.2333,0.2333,0.2333,0.2333,0.2333,0.2333,0.2333,0.2333,0.2333,0.233,0.2313,0.229,0.2283,0.2248,0.2199,0.2192,0.2154,0.2101,0.2069,0.2041,0.2014,0.1986,0.1974,0.1967,0.194,0.2084,0.2331,0.2547,0.0,0.3859,0.4368,0.5353,0.6392,0.7116,0.7361,0.7506,0.0,0.0,0.8386,0.8804,0.9001,0.9232,0.9646,0.9747,0.991,1.0344,1.0446,1.0521,1.067,1.0711,1.0717,1.0717,1.0717,1.0717,1.0717,1.0717,1.0717,1.0717,1.0717,1.0717,1.0717,1.0717,1.0717,1.0717,1.0717,1.0717,1.0717,1.0717,1.0717,1.0717,1.0717,1.0717,1.0717,1.0717,1.0717,1.0717,1.0717,1.0575,1.0331,1.0297,1.01,0.9822,0.9822,0.9822,0.9822,0.9822,0.9822,0.9822,0.0,0.0,-0.2017,-0.1814,-0.1276,-0.0769,-0.0484,-0.0099,0.0404,0.0993,0.1225,0.1403,0.1686,0.1727,0.178,0.1802,0.1789,0.1865,0.1986,0.2083,0.2174,0.226,0.2297,0.232,0.2333,0.2333,0.2333,0.2333,0.2333,0.2333,0.2333,0.2333,0.2333,0.2333,0.2333,0.2333,0.2333,0.2333,0.2326,0.2312,0.2278,0.2249,0.2221,0.2168,0.2109,0.2054,0.2042,0.2019,0.0,0.194,0.1924,0.1921,0.1909,0.2178,0.2609,0.2913,0.3584,0.0,0.5321,0.6022,0.6591,0.0,0.7038,0.718,0.7636,0.7871,0.8115,0.8767,0.9025,0.9261,0.9707,0.9964,1.0175,0.0,1.0568,1.0649,1.0711,1.0717,1.0683,1.0595,1.0663,1.0717,1.0717,1.0717,1.0717,1.0717,1.0717,1.0717,1.0717,1.0717,1.0717,1.0717,1.0717,1.0717,1.0717,1.0717,1.0717,1.0717,1.0717,1.0717,1.0717,1.0717,1.0717,1.0717,1.0622,1.0473,1.0276,1.0181,1.0019,0.9822,0.9822,0.9822,0.9822,0.9822,0.9822,0.9822,0.0,0.0,0.0,-0.3071,-0.2392,-0.1679,-0.113,-0.0499,0.0153,0.0834,0.1109,0.1385,0.1651,0.1619,0.1618,0.1774,0.1815,0.1834,0.1956,0.2068,0.2165,0.2171,0.2294,0.2324,0.2333,0.2333,0.2333,0.2333,0.2333,0.2333,0.2333,0.2333,0.2337,0.2345,0.2337,0.2337,0.2345,0.2337,0.2328,0.2318,0.2275,0.2243,0.2213,0.2138,0.2061,0.1994,0.1994,0.197,0.193,0.1879,0.1861,0.1861,0.1861,0.2243,0.2723,0.3061,0.3893,0.4918,0.5937,0.0,0.0,0.654,0.6488,0.6559,0.7174,0.735,0.769,0.8605,0.8906,0.9166,0.9734,1.0066,1.0276,1.046,1.0582,1.067,1.0717,1.0683,1.0616,1.0507,1.0555,1.0616,1.0656,1.0697,1.0717,1.0717,1.0717,1.0717,1.0717,1.0717,1.0717,1.0717,1.0717,1.0717,1.0717,1.0717,1.0717,1.0717,1.0717,1.0717,1.0717,1.0717,1.0717,1.0711,1.0561,1.0412,1.027,1.0051,0.9896,0.9822,0.9822,0.9822,0.9822,0.9822,0.9822,0.9822,0.0,0.0,0.0,0.0,-0.3679,-0.3102,-0.1768,-0.0897,-0.0102,0.0794,0.1118,0.1385,0.1651,0.1394,0.1325,0.1662,0.1771,0.1802,0.1925,0.2016,0.212,0.217,0.2275,0.2305,0.2333,0.2333,0.2333,0.2333,0.2333,0.2333,0.2333,0.2333,0.2349,0.2375,0.2346,0.2349,0.2375,0.2345,0.2318,0.2292,0.229,0.2236,0.2221,0.2121,0.2037,0.1874,0.1874,0.1836,0.1782,0.1808,0.1798,0.1798,0.1798,0.2166,0.0,0.29,0.3947,0.518,0.0,0.0,0.5572,0.6028,0.5764,0.5635,0.6371,0.6655,0.709,0.8343,0.869,0.9068,0.9826,0.9984,1.0092,1.0446,1.0493,1.0548,1.0697,1.0595,1.0493,1.0493,1.0371,1.0344,0.0,1.0629,1.0717,1.0717,1.0717,1.0717,1.0717,1.0717,1.0717,1.0717,1.0717,1.0717,1.0717,1.0717,1.0717,1.0717,1.0717,1.0717,1.0717,1.0717,1.0717,1.0711,1.0561,1.0412,1.027,1.0051,0.9896,0.9822,0.9822,0.9822,0.9822,0.9822,0.9822,0.9822,0.0,0.0,0.0,0.0,0.0,-0.3572,-0.2802,-0.1657,-0.0611,0.0208,0.0899,0.0,0.0,0.0,0.0,0.0,0.1661,0.1785,0.1807,0.1973,0.2069,0.2151,0.2203,0.2244,0.2203,0.2204,0.2285,0.2305,0.2305,0.2315,0.2333,0.2333,0.2338,0.2348,0.2337,0.2328,0.2319,0.2309,0.2277,0.2229,0.2208,0.2225,0.2152,0.2018,0.1941,0.1805,0.0,0.178,0.1775,0.1745,0.0,0.0,0.1729,0.209,0.27,0.3532,0.4259,0.4913,0.535,0.0,0.4705,0.4923,0.4647,0.4509,0.519,0.5621,0.6215,0.741,0.8025,0.8552,0.9318,0.9707,0.9964,1.0168,1.0365,1.0507,1.0561,1.0521,1.046,1.0365,1.031,0.0,0.0,0.0,0.0,1.0711,1.0717,1.0717,1.0717,1.0717,1.0717,1.0717,1.0717,1.0717,1.0717,1.0717,1.0717,1.0717,1.0717,1.0717,1.0717,1.0717,1.0717,1.0704,1.046,1.0324,1.0263,1.0005,0.9869,0.9822,0.9822,0.9822,0.9822,0.9822,0.9822,0.9822,0.0,0.0,0.0,0.0,0.0,0.0,0.0,0.0,0.0,0.0,0.0,0.0,0.0,0.0,0.0,0.0,0.0,0.1641,0.1733,0.1894,0.1982,0.2042,0.2113,0.2165,0.2196,0.2207,0.2222,0.2243,0.2243,0.2258,0.2285,0.2285,0.2297,0.2316,0.2294,0.2281,0.2273,0.2251,0.2207,0.215,0.2197,0.2138,0.1993,0.1925,0.1796,0.0,0.1714,0.1695,0.1699,0.168,0.0,0.0,0.1667,0.198,0.2546,0.347,0.3884,0.4152,0.4443,0.4204,0.3948,0.4015,0.3755,0.3704,0.4313,0.4754,0.5361,0.675,0.745,0.8037,0.8857,0.934,0.9652,0.9795,1.0141,1.0371,1.048,1.0493,1.046,1.0365,1.031,1.0263,0.0,0.0,0.0,1.0629,1.069,1.0717,1.0717,1.0717,1.0717,1.0717,1.0717,1.0717,1.0717,1.0717,1.0717,1.0717,1.0717,1.0717,1.0717,1.0717,1.0717,1.0704,1.0412,1.0283,1.0256,0.9951,0.9822,0.9822,0.9822,0.9822,0.9822,0.9822,0.9822,0.9822,0.0,0.0,0.0,0.0,0.0,0.0,0.0,0.0,0.0,0.0,0.0,0.0,0.0,0.0,0.0,0.0,0.0,0.0,0.165,0.173,0.1804,0.1922,0.2007,0.2067,0.2097,0.2127,0.221,0.2213,0.2213,0.2162,0.2193,0.2193,0.2223,0.2277,0.2219,0.2208,0.2161,0.2172,0.2178,0.2119,0.2119,0.1985,0.1876,0.1844,0.1779,0.1699,0.167,0.1641,0.0,0.0,0.0,0.0,0.0,0.1843,0.2184,0.2708,0.2937,0.3028,0.3365,0.3344,0.3199,0.3252,0.3117,0.3086,0.3694,0.4076,0.4691,0.6299,0.6958,0.7539,0.0,0.0,0.9296,0.9537,0.9788,1.0085,1.0439,1.0487,1.0493,0.0,0.0,0.0,0.0,0.0,0.0,1.0493,0.0,1.0717,1.0717,1.0717,1.0717,1.0717,1.0717,1.0717,1.0717,1.0717,1.0717,1.0717,1.0717,1.0717,1.0717,1.0717,1.0717,1.069,1.0405,1.0276,1.0243,0.9944,0.9822,0.9822,0.9822,0.9822,0.9822,0.9822,0.9822,0.9822,0.0,0.0,0.0,0.0,0.0,0.0,0.0,0.0,0.0,0.0,0.0,0.0,0.0,0.0,0.0,0.0,0.0,0.0,0.1413,0.1627,0.179,0.1828,0.1873,0.1911,0.1941,0.1951,0.1977,0.2022,0.2022,0.2048,0.2098,0.2098,0.2106,0.2121,0.2105,0.209,0.2075,0.206,0.2005,0.1932,0.1932,0.1872,0.1836,0.175,0.1711,0.1669,0.1639,0.0,0.0,0.0,0.0,0.0,0.0,0.2032,0.2218,0.2576,0.2738,0.2809,0.2981,0.2849,0.263,0.2672,0.2501,0.2432,0.3047,0.3535,0.4174,0.539,0.6391,0.7199,0.0,0.0,0.0,0.9239,0.9707,0.0,1.0304,1.0426,0.0,1.0493,0.0,1.0297,1.0331,1.0432,0.0,0.0,1.0636,1.0717,1.0717,1.0717,1.0717,1.0717,1.0717,1.0717,1.0717,1.0717,1.0717,1.0717,1.0717,1.0717,1.0717,1.0717,1.0656,1.0541,1.0358,1.0215,1.0031,0.9903,0.9822,0.9822,0.9822,0.9822,0.9822,0.9822,0.9822,0.9822,0.0,0.0,0.0,0.0,0.0,0.0,0.0,0.0,0.0,0.0,0.0,0.0,0.0,0.0,0.0,0.0,0.0,0.0,0.0,0.1632,0.1773,0.1735,0.1778,0.1809,0.1882,0.1839,0.1862,0.1896,0.1896,0.1921,0.1966,0.1966,0.1973,0.1985,0.1971,0.1956,0.194,0.1926,0.1884,0.0,0.0,0.1836,0.1763,0.1692,0.1667,0.164,0.0,0.0,0.0,0.0,0.0,0.1715,0.1882,0.1988,0.2054,0.2201,0.0,0.2389,0.2513,0.2355,0.2247,0.2267,0.2125,0.209,0.2699,0.3223,0.3948,0.5012,0.6074,0.0,0.0,0.0,0.0,0.0,0.0,0.0,1.0249,1.046,1.0595,0.0,1.0521,0.0,1.0473,1.0548,1.0595,0.0,1.067,1.0717,1.0717,1.0717,1.0717,1.0717,1.0717,1.0717,1.0717,1.0717,1.0717,1.0717,1.0717,1.0717,1.0717,1.0717,1.0636,1.0487,1.0344,1.0195,0.9977,0.9883,0.9822,0.9822,0.9822,0.9822,0.9822,0.9822,0.9822,0.9822,0.0,0.0,0.0,0.0,0.0,0.0,0.0,0.0,0.0,0.0,0.1628,0.1683,0.0,0.0,0.0,0.0,0.0,0.0,0.0,0.0,0.1708,0.1708,0.1759,0.1787,0.1787,0.1759,0.1774,0.1778,0.1778,0.1793,0.1766,0.1766,0.1836,0.1861,0.1834,0.1766,0.1763,0.1794,0.1765,0.1792,0.1792,0.1759,0.1708,0.0,0.0,0.0,0.0,0.0,0.0,0.0,0.1725,0.1742,0.1794,0.1785,0.1824,0.1851,0.1919,0.1989,0.1993,0.2009,0.2024,0.2024,0.1981,0.2047,0.2594,0.3091,0.3722,0.485,0.0,0.6697,0.7214,0.7956,0.8574,0.8804,0.0,0.9903,1.0209,1.0507,1.0697,1.0717,1.0717,1.0717,1.0717,1.0717,1.0717,1.0717,1.0717,1.0717,1.0717,1.0717,1.0717,1.0717,1.0717,1.0717,1.0717,1.0717,1.0717,1.0717,1.0717,1.0717,1.0717,1.0717,1.0636,1.0487,1.0344,1.0195,0.9977,0.9883,0.9822,0.9822,0.9822,0.9822,0.9822,0.9822,0.9822,0.9822,0.0,0.0,0.0,0.0,0.0,0.0,0.0,0.0,0.0,0.0,0.1754,0.1683,0.0,0.0,0.0,0.0,0.0,0.0,0.0,0.0,0.0,0.0,0.1635,0.164,0.164,0.1645,0.166,0.1738,0.1738,0.17,0.1727,0.1727,0.1731,0.1735,0.173,0.1727,0.1727,0.1722,0.1704,0.1729,0.1729,0.1656,0.1625,0.1625,0.0,0.0,0.0,0.0,0.0,0.0,0.173,0.1774,0.1783,0.1859,0.1947,0.1951,0.1999,0.2054,0.2079,0.2072,0.2056,0.2056,0.2012,0.207,0.2333,0.2759,0.0,0.0,0.5239,0.6274,0.6826,0.7782,0.0,0.8723,0.0,0.0,0.0,0.0,1.0575,0.0,0.0,0.0,0.0,0.0,0.0,0.0,1.0717,1.0717,1.0717,1.0717,1.0717,1.0717,1.0717,1.0717,1.0717,1.0717,1.0717,1.0717,1.0717,1.0717,1.0717,1.0717,1.0636,1.0487,1.0344,1.0195,0.9977,0.9883,0.9822,0.9822,0.9822,0.9822,0.9822,0.9822,0.9822,0.9822,0.0,0.0,0.0,0.0,0.0,0.0,0.0,0.0945,0.1319,0.1764,0.1874,0.1796,0.1594,0.1578,0.1503,0.0,0.0,0.0,0.0,0.0,0.0,0.0,0.0,0.0,0.0,0.1617,0.1624,0.1639,0.0,0.1645,0.1659,0.1659,0.1659,0.1659,0.1659,0.1659,0.1659,0.1659,0.1651,0.1639,0.1639,0.1629,0.0,0.0,0.0,0.0,0.0,0.0,0.0,0.0,0.1745,0.1801,0.1832,0.1894,0.1959,0.1989,0.203,0.2071,0.2101,0.2087,0.2128,0.2128,0.1996,0.2029,0.2179,0.0,0.0,0.0,0.4968,0.5992,0.6692,0.0,0.0,0.0,0.0,0.0,0.0,0.0,0.0,0.0,0.0,0.0,0.0,0.0,0.0,1.0717,1.0717,1.0717,1.0717,1.0717,1.0717,1.0717,1.0717,1.0717,1.0717,1.0717,1.0717,1.0717,1.0717,1.0717,1.0717,1.0717,1.0636,1.0487,1.0419,1.0263,0.9984,0.9909,0.989,0.9822,0.9822,0.9822,0.9822,0.9822,0.9822,0.9822,0.0,0.0,0.0,0.0,0.0,0.0,0.0816,0.1189,0.1526,0.1873,0.1947,0.1929,0.1876,0.1831,0.1793,0.0,0.0,0.0,0.0,0.0,0.0,0.0,0.0,0.0,0.0,0.0,0.0,0.1626,0.1626,0.0,0.0,0.0,0.0,0.0,0.1633,0.1636,0.1636,0.1636,0.1636,0.0,0.0,0.1636,0.0,0.0,0.0,0.0,0.0,0.0,0.0,0.0,0.174,0.1794,0.1842,0.1895,0.1949,0.1996,0.2035,0.2071,0.2101,0.2082,0.2056,0.2127,0.1974,0.1929,0.2092,0.2459,0.0,0.0,0.4583,0.5586,0.6492,0.0,0.0,0.0,0.0,0.0,0.0,0.0,0.0,0.0,0.0,0.0,0.0,0.0,0.0,1.0717,1.0717,1.0717,1.0717,1.0717,1.0717,1.0717,1.0717,1.0717,1.0717,1.0717,1.0717,1.0717,1.0717,1.0717,1.0717,1.0717,1.0656,1.0541,1.0507,1.0358,1.0078,1.0051,1.0025,0.9917,0.9917,0.9897,0.9869,0.9869,0.9849,0.9822,0.0,0.0,0.0,0.0,0.0,0.0,0.0817,0.1212,0.1632,0.1969,0.1994,0.1999,0.1967,0.1888,0.1824,0.0,0.0,0.0,0.0,0.0,0.0,0.0,0.0,0.0,0.0,0.0,0.0,0.171,0.171,0.0,0.0,0.0,0.0,0.0,0.0,0.1696,0.1696,0.1696,0.0,0.0,0.0,0.0,0.0,0.0,0.0,0.0,0.0,0.0,0.0,0.0,0.0,0.1809,0.1815,0.1918,0.1974,0.1979,0.0,0.0,0.2101,0.2067,0.203,0.2057,0.1974,0.1869,0.1866,0.0,0.0,0.2797,0.378,0.483,0.5892,0.6895,0.7712,0.0,0.0,0.8872,0.0,0.0,0.0,0.0,0.0,0.0,0.0,0.0,0.0,1.0717,1.0717,1.0717,1.0717,1.0717,1.0717,1.0717,1.0717,1.0717,1.0717,1.0717,1.0717,1.0717,1.0717,1.0717,1.0717,1.0717,1.0711,1.069,1.0555,1.0473,1.0439,1.031,1.0249,1.0236,1.0236,1.0154,0.9963,0.9963,0.9876,0.9822,0.0,0.0,0.0,0.0,0.0,0.0,0.1161,0.1528,0.1852,0.2023,0.2054,0.2061,0.2033,0.1966,0.1895,0.1828,0.0,0.0,0.0,0.0,0.0,0.0,0.0,0.0,0.0,0.0,0.1699,0.1688,0.1688,0.0,0.0,0.0,0.0,0.0,0.0,0.0,0.1704,0.0,0.0,0.0,0.0,0.0,0.0,0.0,0.0,0.0,0.0,0.0,0.0,0.0,0.0,0.0,0.1716,0.1776,0.0,0.0,0.1978,0.2022,0.2069,0.205,0.2018,0.2012,0.1934,0.1842,0.1782,0.0,0.2238,0.2688,0.3528,0.4483,0.5536,0.648,0.7301,0.7942,0.0,0.0,0.0,0.0,0.0,0.0,0.0,0.0,0.0,0.0,1.0717,1.0717,1.0717,1.0717,1.0717,1.0717,1.0717,1.0717,1.0717,1.0717,1.0717,1.0717,1.0717,1.0717,1.0717,1.0717,1.0717,1.0717,1.0717,1.0717,1.0656,1.0575,1.0487,1.0432,1.0358,1.0283,1.0283,1.0188,0.9984,0.9984,0.9889,0.9822,0.0,0.0,0.0,0.0,0.0,0.1292,0.1386,0.1709,0.1981,0.2031,0.2079,0.2094,0.2054,0.2014,0.1952,0.1862,0.1825,0.0,0.0,0.0,0.0,0.0,0.0,0.0,0.0,0.0,0.1726,0.1718,0.1718,0.1712,0.0,0.0,0.0,0.0,0.0,0.0,0.0,0.0,0.0,0.0,0.0,0.0,0.0,0.0,0.0,0.0,0.0,0.0,0.0,0.0,0.0,0.0,0.0,0.0,0.0,0.0,0.1913,0.1949,0.2008,0.2003,0.1977,0.1966,0.1895,0.1813,0.0,0.0,0.2117,0.2483,0.3128,0.3981,0.5135,0.6037,0.6821,0.7674,0.0,0.8459,0.0,0.0,0.0,0.0,0.0,0.0,0.0,0.0,1.0717,1.0717,1.0717,1.0717,1.0717,1.0717,1.0717,1.0717,1.0717,1.0717,1.0717,1.0717,1.0717,1.0717,1.0717,1.0717,1.0717,1.0717,1.0717,1.0717,1.0717,1.0656,1.0561,1.0561,1.05,1.0412,1.0412,1.029,1.0114,1.0114,0.9992,0.9822,0.0,0.0,0.0,0.0,0.0,0.1285,0.1309,0.1621,0.1943,0.1974,0.2054,0.2086,0.2026,0.2019,0.1982,0.1894,0.1857,0.0,0.0,0.0,0.0,0.0,0.0,0.0,0.0,0.0,0.1779,0.1804,0.1804,0.1788,0.1705,0.179,0.1804,0.1805,0.0,0.0,0.0,0.0,0.0,0.0,0.0,0.0,0.0,0.0,0.0,0.0,0.0,0.0,0.0,0.0,0.0,0.0,0.0,0.1639,0.1733,0.0,0.1819,0.1797,0.1856,0.191,0.1894,0.1924,0.1864,0.1787,0.0,0.0,0.1757,0.1979,0.2425,0.3229,0.4583,0.5486,0.6342,0.7447,0.7846,0.0,0.0,0.0,0.0,0.0,0.0,0.0,0.0,0.0,1.0717,1.0717,1.0717,0.0,1.0717,1.0717,1.0717,1.0717,1.0717,1.0717,1.0717,1.0717,1.0717,1.0717,1.0717,1.0717,1.0717,1.0717,1.0717,1.0717,1.0717,1.0717,1.0717,1.0717,1.0717,1.0717,1.0717,1.0534,1.0276,1.0276,1.0086,0.9822,0.0,0.0,0.0,0.0,0.0,0.0,0.1662,0.1791,0.1911,0.1941,0.1988,0.2011,0.1992,0.199,0.1962,0.1892,0.1858,0.0,0.0,0.0,0.0,0.0,0.0,0.0,0.0,0.1795,0.1801,0.1812,0.1812,0.1806,0.1741,0.1808,0.1801,0.178,0.1791,0.1795,0.0,0.0,0.0,0.0,0.0,0.0,0.0,0.0,0.0,0.0,0.0,0.0,0.0,0.0,0.0,0.0,0.0,0.0,0.0,0.169,0.174,0.1787,0.1827,0.1831,0.1821,0.181,0.177,0.1726,0.1749,0.0,0.1729,0.2174,0.2574,0.3229,0.4533,0.5441,0.6292,0.7191,0.7824,0.0,0.0,0.0,0.0,0.0,0.0,0.0,0.0,0.0,1.0717,1.0717,1.0717,1.0717,1.0717,1.0717,1.0717,1.0717,1.0717,1.0717,1.0717,1.0717,1.0717,1.0717,1.0717,1.0717,1.0717,1.0717,1.0717,1.0717,1.0717,1.0717,1.0717,1.0717,1.0717,1.0717,1.0717,1.0541,1.0283,1.0283,1.0086,0.9822,0.0,0.0,0.0,0.0,0.0,0.0,0.177,0.1829,0.1876,0.1836,0.1933,0.1955,0.1944,0.1952,0.1934,0.1874,0.1851,0.0,0.0,0.0,0.0,0.0,0.0,0.0,0.1795,0.1795,0.181,0.1783,0.1783,0.1788,0.1857,0.1788,0.1772,0.1812,0.18,0.1795,0.0,0.0,0.0,0.0,0.0,0.0,0.1795,0.0,0.0,0.0,0.0,0.0,0.0,0.0,0.0,0.0,0.0,0.0,0.0,0.0,0.1671,0.1708,0.0,0.1761,0.1756,0.1737,0.171,0.0,0.0,0.0,0.1713,0.215,0.2446,0.3044,0.4388,0.5183,0.5991,0.703,0.0,0.0,0.0,0.0,0.0,0.0,0.0,0.0,0.0,1.0717,1.0717,1.0717,1.0717,1.0717,1.0717,1.0717,1.0717,1.0717,1.0717,1.0717,1.0717,1.0717,1.0717,1.0717,1.0717,1.0717,1.0717,1.0717,1.0717,1.0717,1.0717,1.0717,0.0,1.0717,1.0717,1.0717,1.0656,1.0487,1.0276,1.0215,1.0032,0.9822,0.0,0.0,0.0,0.0,0.0,0.0,0.0,0.1801,0.178,0.178,0.1828,0.191,0.1883,0.1906,0.1841,0.1784,0.1782,0.0,0.0,0.0,0.0,0.0,0.0,0.0,0.1795,0.1797,0.1813,0.1786,0.1788,0.1861,0.1888,0.1858,0.1784,0.1782,0.1809,0.1795,0.1795,0.1795,0.1795,0.1795,0.1795,0.1795,0.0,0.0,0.0,0.0,0.0,0.0,0.0,0.0,0.0,0.0,0.0,0.0,0.0,0.0,0.0,0.0,0.0,0.1697,0.1697,0.1697,0.1678,0.1711,0.0,0.0,0.0,0.0,0.0,0.2701,0.4069,0.4757,0.5576,0.0,0.0,0.0,0.0,0.0,0.0,0.0,0.0,0.0,1.0704,1.0717,1.0717,1.0717,1.0717,1.0717,1.0717,1.0717,1.0717,1.0717,1.0717,1.0717,1.0717,1.0717,1.0717,1.0717,1.0717,1.0717,1.0717,1.0717,1.0717,1.0717,1.0717,1.0717,1.0717,1.0717,1.0717,1.0704,1.0561,1.0412,1.0263,1.012,0.9903,0.9822,0.0,0.0,0.0,0.0,0.0,0.0,0.0,0.0,0.0,0.0,0.1819,0.1824,0.1817,0.1843,0.179,0.0,0.0,0.0,0.0,0.0,0.0,0.0,0.0,0.0,0.1795,0.1817,0.1844,0.1874,0.1898,0.1913,0.1919,0.1889,0.1862,0.1782,0.1809,0.1795,0.1795,0.1795,0.1795,0.1795,0.1795,0.1795,0.0,0.0,0.0,0.0,0.1795,0.1771,0.0,0.0,0.0,0.0,0.0,0.0,0.0,0.0,0.1617,0.162,0.1633,0.0,0.1637,0.1637,0.1633,0.1628,0.0,0.0,0.0,0.0,0.0,0.0,0.0,0.0,0.0,0.0,0.0,0.0,0.0,0.0,0.0,0.0,0.0,0.0,1.0704,1.0717,1.0717,1.0717,1.0717,1.0717,1.0717,1.0717,1.0717,1.0717,1.0717,1.0717,1.0717,1.0717,1.0717,1.0717,1.0717,1.0717,1.0717,1.0717,1.0717,1.0717,1.0717,1.0717,1.0717,1.0717,1.0717,1.0717,1.0677,1.0507,1.0276,1.0243,1.0053,0.9822,0.0,0.0,0.0,0.0,0.0,0.0,0.0,0.0,0.0,0.0,0.1795,0.1795,0.1795,0.1809,0.1813,0.0,0.0,0.0,0.0,0.0,0.0,0.0,0.0,0.1795,0.1795,0.1824,0.1855,0.1885,0.1917,0.1939,0.1951,0.1921,0.1891,0.1859,0.1814,0.1795,0.1795,0.1795,0.1795,0.1795,0.1795,0.0,0.0,0.0,0.0,0.0,0.1795,0.1767,0.0,0.171,0.1677,0.1639,0.0,0.0,0.0,0.0,0.1607,0.1599,0.1613,0.1617,0.1617,0.1617,0.1617,0.1617,0.1617,0.0,0.0,0.0,0.0,0.0,0.0,0.0,0.0,0.0,0.0,0.0,0.0,0.0,0.0,0.0,0.0,1.0629,0.0,1.0717,1.0717,1.0717,1.0717,1.0717,1.0717,1.0717,1.0717,1.0717,1.0717,1.0717,1.0717,1.0717,1.0717,1.0717,1.0717,1.0717,1.0717,1.0717,1.0717,1.0717,1.0717,1.0717,1.0717,1.0717,1.0717,1.0704,1.0568,1.0419,1.0263,1.012,0.9964,0.9822,0.0,0.0,0.0,0.0,0.0,0.0,0.0,0.0,0.0,0.0,0.0,0.0,0.0,0.0,0.0,0.0,0.0,0.0,0.0,0.0,0.0,0.0,0.1795,0.1797,0.1802,0.1832,0.1865,0.19,0.193,0.196,0.1989,0.1954,0.1917,0.1876,0.182,0.1795,0.1795,0.1795,0.1795,0.1795,0.1795,0.0,0.0,0.0,0.0,0.0,0.0,0.0,0.0,0.1705,0.1669,0.1624,0.1618,0.0,0.0,0.0,0.0,0.0,0.161,0.1617,0.1617,0.1617,0.1617,0.1617,0.1617,0.0,0.0,0.0,0.0,0.0,0.0,0.0,0.0,0.0,0.0,0.0,0.0,0.0,0.0,0.0,0.0,0.0,1.0717,1.0717,1.0717,1.0717,1.0717,1.0717,1.0717,1.0717,1.0717,1.0717,1.0717,1.0717,1.0717,1.0717,1.0717,1.0717,1.0717,1.0717,1.0717,1.0717,1.0717,1.0717,1.0717,1.0717,1.0717,1.0717,1.0717,1.0697,1.0419,1.0297,1.0243,0.9958,0.9856,0.9856,0.0,0.0,0.0,0.0,0.0,0.0,0.0,0.0,0.0,0.0,0.0,0.0,0.0,0.0,0.0,0.0,0.0,0.0,0.0,0.0,0.0,0.1795,0.1795,0.1808,0.1775,0.1864,0.1906,0.1963,0.1992,0.202,0.2113,0.1994,0.1926,0.1788,0.181,0.1795,0.1795,0.1795,0.1795,0.1795,0.1795,0.0,0.0,0.0,0.0,0.0,0.0,0.0,0.0,0.1712,0.1682,0.1651,0.1625,0.0,0.0,0.0,0.0,0.0,0.1615,0.1617,0.1617,0.1617,0.1617,0.1617,0.1617,0.0,0.0,0.0,0.0,0.0,0.0,0.0,0.0,0.0,0.0,0.0,0.0,0.0,0.0,0.0,0.0,1.0717,1.0717,1.0717,1.0717,1.0717,1.0717,1.0717,1.0717,1.0717,1.0717,1.0717,1.0717,1.0717,1.0717,1.0717,1.0717,1.0717,1.0717,1.0717,1.0717,1.0717,1.0717,1.0717,1.0717,1.0717,1.0717,1.0717,1.0717,1.0704,1.0527,1.0385,1.0256,1.008,0.995,0.995,0.0,0.0,0.0,0.0,0.0,0.0,0.0,0.0,0.0,0.0,0.0,0.0,0.0,0.0,0.0,0.0,0.0,0.0,0.0,0.0,0.1802,0.1819,0.1835,0.1843,0.1783,0.1903,0.1956,0.1999,0.2045,0.2083,0.2178,0.2035,0.196,0.1828,0.184,0.181,0.1795,0.1795,0.1795,0.1795,0.0,0.0,0.0,0.0,0.0,0.0,0.0,0.0,0.0,0.0,0.1662,0.1636,0.1621,0.0,0.0,0.0,0.0,0.0,0.1613,0.1617,0.1617,0.1617,0.1617,0.1617,0.1617,0.0,0.0,0.0,0.0,0.0,0.0,0.0,0.0,0.0,0.0,0.0,0.0,0.0,1.0548,0.0,0.0,1.0717,1.0717,1.0717,1.0717,1.0717,1.0717,1.0717,1.0717,1.0717,1.0717,1.0717,1.0717,1.0717,1.0717,1.0717,1.0717,1.0717,1.0717,1.0717,1.0717,1.0717,1.0717,1.0717,1.0717,1.0717,1.0717,1.0717,1.0717,1.0704,1.0743,1.0711,1.0635,1.0482,1.0301,1.0175,0.0,0.0,0.0,0.0,0.0,0.0,0.0,0.0,0.0,0.0,0.0,0.0,0.0,0.0,0.0,0.0,0.0,0.0,0.0,0.1802,0.1816,0.1782,0.1883,0.1899,0.1824,0.1964,0.2029,0.2071,0.2119,0.2142,0.2142,0.2059,0.1984,0.1918,0.1857,0.1817,0.1795,0.1795,0.1795,0.1795,0.0,0.0,0.0,0.0,0.0,0.0,0.0,0.0,0.0,0.0,0.0,0.0,0.0,0.0,0.0,0.1602,0.1595,0.1587,0.161,0.1617,0.1617,0.1617,0.1667,0.1719,0.1727,0.1984,0.0,0.0,0.0,0.0,0.0,0.0,0.0,0.0,0.0,1.0025,1.029,1.0453,1.0588,1.0704,1.0717,1.0717,1.0717,1.0717,1.0717,1.0717,1.0717,1.0717,1.0717,1.0717,1.0717,1.0717,1.0717,1.0717,1.0717,1.0717,1.0717,1.0717,1.0717,1.0717,1.0717,1.0717,1.0717,1.0717,1.0717,1.0717,1.0717,1.0784,1.085,1.0969,1.12,1.1242,1.1199,1.1062,1.0778,1.0458,0.0,0.0,0.0,0.0,0.0,0.0,0.0,0.0,0.0,0.0,0.0,0.0,0.0,0.0,0.0,0.0,0.0,0.0,0.0,0.1821,0.178,0.1783,0.1924,0.1981,0.2005,0.2067,0.2142,0.2159,0.2163,0.2193,0.211,0.2048,0.1973,0.1887,0.1825,0.1797,0.1795,0.1795,0.1795,0.1795,0.1795,0.0,0.0,0.0,0.0,0.0,0.0,0.0,0.0,0.0,0.0,0.0,0.0,0.0,0.1609,0.1583,0.1594,0.1614,0.1615,0.1617,0.1617,0.1617,0.1768,0.1979,0.2062,0.2536,0.0,0.2964,0.0,0.0,0.0,0.0,0.0,0.0,0.0,1.0304,1.0453,0.0,1.0711,1.0717,1.0717,1.0717,1.0717,1.0717,1.0717,1.0717,1.0717,1.0717,1.0717,1.0717,1.0717,1.0717,1.0717,1.0717,1.0717,1.0717,1.0717,1.0717,1.0717,1.0717,1.0717,1.0717,1.0717,1.0717,1.0717,1.0717,1.0717,1.1049,1.138,1.1762,1.1923,1.1946,1.1822,1.1585,1.1314,1.0926,0.0,0.0,0.0,0.0,0.0,0.0,0.0,0.0,0.0,0.0,0.0,0.1795,0.1795,0.0,0.0,0.0,0.0,0.0,0.0,0.1806,0.1829,0.1866,0.1919,0.1988,0.2074,0.2135,0.2202,0.2274,0.2292,0.2253,0.2163,0.2084,0.1999,0.1911,0.185,0.1813,0.1795,0.1795,0.1795,0.1795,0.1795,0.1795,0.0,0.0,0.0,0.0,0.0,0.0,0.0,0.0,0.1626,0.1614,0.1603,0.1607,0.1614,0.1603,0.1607,0.1617,0.1617,0.1617,0.1617,0.1617,0.1936,0.0,0.0,0.3033,0.3657,0.388,0.4691,0.0,0.0,0.0,0.0,0.0,0.0,1.0365,1.0602,1.0683,1.0717,1.0717,1.0717,1.0717,1.0717,1.0717,1.0717,1.0717,1.0717,1.0717,1.0717,1.0717,1.0717,1.0717,1.0717,1.0717,1.0717,1.0717,1.0717,1.0717,1.0717,1.0717,1.0717,1.0717,1.0717,1.0717,1.0717,1.085,1.1049,1.1446,1.1909,1.2487,1.3208,1.3401,1.3082,1.2824,1.2334,1.1753,0.0,0.0,0.0,0.0,0.0,0.0,0.0,0.0,0.1795,0.0,0.0,0.0,0.0,0.1795,0.0,0.0,0.0,0.0,0.1795,0.1804,0.1828,0.1869,0.191,0.1978,0.2079,0.215,0.2225,0.2304,0.2315,0.2268,0.2169,0.2079,0.1993,0.1914,0.1853,0.1814,0.1795,0.1795,0.1795,0.1795,0.1795,0.1795,0.0,0.0,0.0,0.0,0.0,0.0,0.0,0.0,0.1617,0.1615,0.1606,0.1609,0.1615,0.1606,0.1609,0.1617,0.1718,0.1718,0.1771,0.1882,0.0,0.0,0.3178,0.3862,0.4633,0.5154,0.6025,0.0,0.8123,0.0,0.0,0.0,1.0249,1.0432,1.0683,1.0717,1.0717,1.0717,1.0717,1.0717,1.0717,1.0717,1.0717,1.0717,1.0717,1.0717,1.0717,1.0717,1.0717,1.0717,1.0717,1.0717,1.0717,1.0717,1.0717,1.0717,1.0717,1.0717,1.0717,1.0717,1.0717,1.0717,1.0784,1.1049,1.1446,1.2041,1.2824,1.3735,1.4595,1.4726,1.4333,1.3875,1.335,1.27,0.0,0.0,0.0,0.0,0.0,0.0,0.0,0.0,0.1795,0.1795,0.1795,0.0,0.0,0.0,0.0,0.0,0.0,0.0,0.1795,0.1823,0.1783,0.1783,0.1838,0.1958,0.2016,0.2108,0.2213,0.2333,0.2304,0.2228,0.2106,0.2018,0.1944,0.1884,0.1823,0.1795,0.1795,0.1795,0.1795,0.1795,0.1795,0.1795,0.1794,0.0,0.0,0.0,0.0,0.0,0.0,0.0,0.1617,0.1611,0.1581,0.1592,0.1611,0.1581,0.1594,0.1667,0.192,0.2021,0.208,0.0,0.0,0.0,0.4433,0.5094,0.579,0.6729,0.0,0.848,0.907,0.9305,0.0,1.0172,1.0399,1.0548,1.0697,1.0717,1.0717,1.0717,1.0717,1.0717,1.0717,1.0717,1.0717,1.0717,1.0717,1.0717,1.0717,1.0717,1.0717,1.0717,1.0717,1.0717,1.0717,1.0717,1.0717,1.0717,1.0717,1.0717,1.0717,1.0717,1.0717,1.0717,1.1049,1.1446,1.1909,1.2955,1.4268,1.5508,1.5899,1.5769,1.5443,1.466,1.4202,1.3809,0.0,0.0,0.0,0.0,0.0,0.0,0.0,0.0,0.1795,0.1795,0.1795,0.0,0.0,0.0,0.0,0.0,0.0,0.0,0.1795,0.1804,0.1819,0.1782,0.18,0.1906,0.1988,0.2076,0.2172,0.22,0.2219,0.2155,0.2075,0.1986,0.1934,0.1915,0.1854,0.1827,0.1825,0.1804,0.1795,0.1795,0.1795,0.1782,0.1818,0.0,0.0,0.0,0.0,0.0,0.0,0.0,0.0,0.0,0.1606,0.161,0.1615,0.1606,0.161,0.1667,0.192,0.2122,0.0,0.2738,0.0,0.0,0.0,0.5965,0.0,0.0,0.8939,0.9273,0.9555,0.9709,0.0,1.0378,1.0466,1.0548,1.0697,1.0717,1.0717,1.0717,1.0717,1.0717,1.0717,1.0717,1.0717,1.0717,1.0717,1.0717,1.0717,1.0717,1.0717,1.0717,1.0717,1.0717,1.0717,1.0717,1.0717,1.0717,1.0717,1.0717,1.0717,1.0717,1.085,1.1049,1.1446,1.2107,1.3021,1.4595,1.5574,1.6234,1.6548,1.6494,1.6169,1.5714,1.5313,1.4922,0.0,0.0,0.0,0.0,0.0,0.0,0.1795,0.1795,0.1795,0.1795,0.1795,0.1795,0.0,0.0,0.0,0.0,0.0,0.0,0.1795,0.1795,0.1804,0.1821,0.1776,0.1877,0.1956,0.2023,0.2078,0.2054,0.2108,0.2076,0.2027,0.1949,0.1919,0.1867,0.1809,0.1783,0.178,0.1808,0.1795,0.1794,0.1782,0.1821,0.1802,0.0,0.0,0.0,0.0,0.0,0.0,0.0,0.0,0.0,0.1617,0.1617,0.1617,0.1617,0.1617,0.1667,0.2071,0.2486,0.0,0.3473,0.4162,0.5162,0.6679,0.0,0.0,0.0,0.0,0.9982,1.0009,1.0116,0.0,1.0466,1.0541,1.0616,1.0711,1.0717,1.0717,1.0717,1.0717,1.0717,1.0717,1.0717,1.0717,1.0717,1.0717,1.0717,1.0717,1.0717,1.0717,1.0717,1.0717,1.0717,1.0717,1.0717,1.0717,1.0717,1.0717,1.0717,1.0717,1.0717,1.085,1.1247,1.2239,1.3218,1.4333,1.5649,1.6429,1.6688,1.6936,1.6882,1.6688,1.6299,1.6039,1.5844,0.0,0.0,0.1814,0.1786,0.0,0.0,0.1795,0.1795,0.1795,0.1795,0.1795,0.1795,0.0,0.0,0.0,0.1795,0.0,0.0,0.0,0.1795,0.1795,0.1795,0.1827,0.1812,0.1926,0.1958,0.1956,0.1862,0.1979,0.1993,0.1967,0.1911,0.1902,0.1869,0.1812,0.1787,0.1784,0.1809,0.1795,0.1793,0.1816,0.1802,0.1797,0.1712,0.0,0.0,0.0,0.0,0.0,0.0,0.0,0.0,0.1617,0.1617,0.1617,0.1617,0.1617,0.1768,0.2271,0.0,0.0,0.0,0.5337,0.0,0.8329,0.916,0.9701,1.0223,0.0,1.0473,1.0344,1.0426,1.0514,1.0514,1.0629,1.0717,1.0717,1.0717,1.0717,1.0717,1.0717,1.0717,1.0717,1.0717,1.0717,1.0717,1.0717,1.0717,1.0717,1.0717,1.0717,1.0717,1.0717,1.0717,1.0717,1.0717,1.0717,1.0717,1.0717,1.0717,1.0717,1.0717,1.0982,1.1512,1.3284,1.466,1.5639,1.6278,1.6721,1.6969,1.6969,1.6969,1.6915,1.6613,1.6569,1.6494,0.0,0.0,0.1807,0.1814,0.0,0.0,0.1795,0.1795,0.1795,0.1795,0.1795,0.1795,0.1795,0.1795,0.0,0.1795,0.1795,0.0,0.0,0.1795,0.1795,0.1795,0.1847,0.1883,0.1895,0.1925,0.1914,0.1801,0.1896,0.1911,0.1904,0.1892,0.1902,0.1869,0.1892,0.1876,0.1873,0.1819,0.1795,0.1793,0.1816,0.179,0.1711,0.1682,0.1652,0.0,0.0,0.0,0.0,0.0,0.0,0.0,0.1617,0.1617,0.1617,0.1617,0.1768,0.2021,0.2574,0.3375,0.0,0.0,0.0,0.0,0.8648,0.9306,0.9804,1.0504,1.0649,1.0663,1.0629,1.0649,1.067,1.067,1.0697,1.0717,1.0717,1.0717,1.0717,1.0717,1.0717,1.0717,1.0717,1.0717,1.0717,1.0717,1.0717,1.0717,1.0717,1.0717,1.0717,1.0717,1.0717,1.0717,1.0717,1.0717,1.0717,1.0717,1.0717,1.085,1.1115,1.1115,1.1909,1.335,1.4586,1.5508,1.6289,1.6562,1.6668,1.6732,1.6732,1.6732,1.6754,1.6872,1.6872,1.6882,0.0,0.0,0.0,0.0,0.0,0.0,0.0,0.0,0.1795,0.1795,0.1795,0.1795,0.1795,0.1795,0.0,0.0,0.1795,0.0,0.0,0.0,0.1802,0.1816,0.1847,0.1864,0.1864,0.188,0.1807,0.1819,0.1835,0.185,0.1864,0.1864,0.188,0.1909,0.1877,0.1864,0.1859,0.18,0.1774,0.177,0.178,0.1752,0.1681,0.1652,0.163,0.1617,0.1617,0.0,0.0,0.0,0.0,0.0,0.0,0.0,0.1617,0.1617,0.1768,0.2122,0.0,0.0,0.0,0.0,0.0,0.0,0.0,0.0,1.006,1.0585,1.0717,1.0717,1.0717,1.0717,1.0717,1.0717,1.0717,1.0717,1.0717,1.0717,1.0717,1.0717,1.0717,1.0717,1.0717,1.0717,1.0717,1.0717,1.0717,1.069,1.0616,1.0609,1.0582,1.0514,1.0507,1.0507,1.0507,1.0507,1.0507,1.0507,1.0507,1.0874,1.1657,1.2068,1.2955,1.4202,1.5248,1.5903,1.6316,1.6583,1.6592,1.6506,1.6624,1.6731,1.6689,1.6915,1.7001,1.7001,0.0,0.0,0.0,0.0,0.0,0.0,0.0,0.0,0.0,0.1795,0.1795,0.1795,0.1795,0.1795,0.1795,0.0,0.0,0.0,0.0,0.0,0.0,0.1782,0.1783,0.1783,0.1783,0.1783,0.1825,0.1795,0.1795,0.1808,0.1775,0.178,0.1854,0.1877,0.1851,0.178,0.1771,0.1774,0.1801,0.1791,0.1736,0.1714,0.1711,0.1628,0.1617,0.1617,0.1617,0.1617,0.1617,0.1617,0.0,0.0,0.0,0.0,0.1617,0.1617,0.1819,0.2172,0.0,0.0,0.0,0.0,0.0,0.0,0.0,0.0,1.0326,1.0651,1.0717,1.0717,1.0717,1.0717,1.0717,1.0717,1.0717,1.0717,1.0717,1.0717,1.0717,1.0717,1.0717,1.0717,1.0717,1.0717,1.0711,1.0683,1.0683,1.0616,1.0466,1.0453,1.0399,1.0283,1.0283,1.0283,1.0283,1.0283,1.0283,1.0283,1.041,1.104,1.2202,1.3116,1.3926,1.4549,1.555,1.6008,1.6139,1.6486,1.6431,1.628,1.6506,1.6603,1.6635,1.6904,1.7001,1.7001,0.0,0.0,0.0,0.0,0.0,0.0,0.0,0.0,0.0,0.0,0.1795,0.1795,0.1795,0.1795,0.1795,0.1795,0.1795,0.1795,0.1795,0.0,0.0,0.1782,0.1783,0.1783,0.1783,0.1783,0.1825,0.1795,0.1795,0.1797,0.1802,0.1828,0.1784,0.1788,0.1784,0.1825,0.1798,0.1819,0.1788,0.1707,0.1728,0.1714,0.1711,0.1628,0.1617,0.1617,0.1617,0.1617,0.1617,0.1617,0.1617,0.0,0.0,0.0,0.1617,0.1617,0.1969,0.2521,0.0,0.0,0.0,0.0,0.0,0.0,0.0,0.0,0.0,0.0,1.0717,1.0717,1.0717,1.0717,1.0717,1.0717,1.0717,1.0717,1.0717,1.0717,1.0717,1.0717,1.0717,1.0717,1.0717,1.0717,1.0663,1.0534,1.0521,1.046,1.0317,1.031,1.0297,1.0283,1.0283,1.0283,1.0283,1.0283,1.0283,1.0283,1.0912,1.1553,1.232,1.3618,1.4487,1.5032,1.5605,1.6013,1.6282,1.6129,1.6082,1.6082,1.6269,1.6366,1.6409,1.685,1.7001,1.7001,0.0,0.0,0.0,0.0,0.0,0.0,0.0,0.0,0.0,0.0,0.0,0.1795,0.1795,0.1795,0.1795,0.1795,0.1795,0.1795,0.1795,0.1795,0.1801,0.1814,0.1814,0.1814,0.1814,0.1814,0.1808,0.1795,0.1795,0.1795,0.1795,0.1809,0.1814,0.1814,0.1814,0.1798,0.1822,0.1737,0.1707,0.1678,0.1648,0.1637,0.1636,0.1774,0.1819,0.1819,0.1969,0.207,0.2019,0.1869,0.1819,0.1819,0.1667,0.0,0.0,0.0,0.1954,0.0,0.0,0.0,0.0,0.0,0.0,0.0,0.0,0.0,1.0136,1.0267,1.0531,1.0717,1.0717,1.0717,1.0717,1.0717,1.0717,1.0717,1.0717,1.0717,1.0717,1.0717,1.0717,1.0717,1.0717,1.0643,1.0561,1.0493,1.0419,1.031,1.0161,1.0148,1.0114,1.0025,1.0025,1.0025,1.0025,1.0025,1.0025,1.0025,1.07,1.1425,1.2204,1.34,1.4446,1.5259,1.5857,1.6113,1.6097,1.605,1.5931,1.5785,1.6161,1.6312,1.6366,1.684,1.7001,1.7001,0.0,0.0,0.0,0.0,0.0,0.0,0.0,0.0,0.0,0.0,0.0,0.0,0.1795,0.0,0.0,0.0,0.1795,0.1795,0.1795,0.1795,0.1795,0.1795,0.1795,0.1795,0.1795,0.1795,0.1795,0.1795,0.1795,0.1795,0.1795,0.1795,0.1795,0.1795,0.1795,0.1774,0.1791,0.1714,0.1684,0.1648,0.1626,0.1617,0.1718,0.192,0.2071,0.2223,0.2423,0.2521,0.2473,0.0,0.2071,0.197,0.1667,0.1617,0.0,0.0,0.0,0.0,0.0,0.0,0.0,0.0,0.0,0.0,0.0,0.0,0.9684,0.0,1.0202,1.0471,1.0609,1.067,1.0717,1.0717,1.0717,1.0704,1.067,1.0663,1.0649,1.0616,1.0609,1.0609,1.0609,1.0507,1.0419,1.0385,1.0283,1.0154,0.9936,0.993,0.9876,0.9822,0.9822,0.9822,0.9822,0.9822,0.9822,0.9822,1.0482,1.1217,1.2078,1.3217,1.4217,1.5135,1.5822,1.6032,1.592,1.592,1.5795,1.5731,1.6151,1.6344,1.6452,1.685,1.7001,1.7001,0.0,0.0,0.0,0.0,0.0,0.0,0.0,0.0,0.0,0.0,0.0,0.0,0.1795,0.1795,0.1795,0.1795,0.1795,0.1795,0.1795,0.1795,0.1795,0.1795,0.1795,0.0,0.1795,0.1795,0.1795,0.1795,0.1795,0.1795,0.1795,0.1795,0.1795,0.1795,0.1795,0.1763,0.1707,0.1705,0.1671,0.162,0.1618,0.1768,0.197,0.197,0.2324,0.2775,0.2775,0.0,0.0,0.0,0.0,0.0,0.0,0.0,0.0,0.0,0.0,0.0,0.0,0.0,0.0,0.0,0.0,0.0,0.0,0.0,0.0,0.9233,0.9583,0.9972,1.024,1.0534,1.0717,1.0717,1.0717,1.067,1.0521,1.0507,1.0453,1.0317,1.0304,1.0304,1.0304,1.0297,1.0229,1.0017,1.0004,0.993,0.9842,0.9836,0.9829,0.9822,0.9822,0.9822,0.9822,0.9822,0.9822,0.9822,1.0482,1.1156,1.1828,1.3153,1.4062,1.469,1.5336,1.5623,1.5612,1.5612,1.5741,1.6017,1.6215,1.6452,1.6742,1.6915,1.7001,1.7001,0.0,0.0,0.0,0.0,0.0,0.0,0.0,0.0,0.0,0.0,0.0,0.0,0.0,0.1795,0.1795,0.1795,0.1795,0.1795,0.1795,0.1795,0.1795,0.1795,0.1795,0.1795,0.1795,0.1795,0.1795,0.1795,0.1795,0.1795,0.1795,0.1795,0.1795,0.1795,0.1795,0.1772,0.1787,0.1712,0.1682,0.1644,0.1625,0.1768,0.2021,0.2374,0.2826,0.3377,0.0,0.0,0.0,0.0,0.0,0.0,0.0,0.0,0.0,0.0,0.0,0.0,0.0,0.0,0.0,0.0,0.0,0.0,0.0,0.0,0.7884,0.8391,0.9125,0.9784,1.0199,1.0365,1.0439,1.0439,1.0439,1.0419,1.0365,1.0358,1.0337,1.0283,1.0283,1.0283,1.0283,1.0188,1.0107,0.999,0.9896,0.9876,0.9822,0.9822,0.9822,0.9822,0.9822,0.9822,0.9822,0.9822,0.9822,0.9822,1.0247,1.0846,1.1518,1.2603,1.3384,1.4052,1.4709,1.5186,1.5601,1.5601,1.5731,1.6028,1.6215,1.6452,1.6689,1.6915,1.7001,1.7001,0.0,0.0,0.0,0.0,0.0,0.1795,0.1795,0.1795,0.1795,0.1795,0.0,0.0,0.0,0.0,0.1795,0.1795,0.1795,0.1795,0.1795,0.1795,0.1795,0.1795,0.1795,0.1795,0.1795,0.1795,0.1795,0.1795,0.1795,0.1795,0.1795,0.1795,0.1795,0.1795,0.1795,0.1778,0.1802,0.1727,0.1697,0.1712,0.0,0.0,0.2191,0.0,0.0,0.0,0.0,0.0,0.0,0.0,0.0,0.0,0.0,0.0,0.0,0.0,0.0,0.0,0.0,0.0,0.0,0.0,0.0,0.0,0.0,0.0,0.6696,0.753,0.843,0.9316,0.997,1.0093,1.0161,1.0263,1.0283,1.0263,1.0209,1.0202,1.0181,1.0134,1.0127,1.0127,1.0127,1.0032,0.9909,0.9909,0.9876,0.9822,0.9822,0.9822,0.9822,0.9822,0.9822,0.9822,0.9822,0.9822,0.9822,0.9822,1.0126,1.0604,1.1148,1.2113,1.2844,1.3384,1.4172,1.4828,1.5413,1.5413,1.5724,1.6086,1.6247,1.6506,1.6797,1.6947,1.7001,1.7001,0.0,0.0,0.1795,0.1795,0.1795,0.1795,0.1795,0.1795,0.1795,0.1795,0.0,0.0,0.0,0.0,0.0,0.1795,0.1795,0.1795,0.1795,0.1795,0.1795,0.1795,0.1795,0.1795,0.1795,0.1795,0.1795,0.1795,0.1795,0.1795,0.1795,0.1795,0.1795,0.1795,0.1794,0.1778,0.1804,0.0,0.177,0.1715,0.0,0.2027,0.2486,0.0,0.0,0.0,0.4423,0.4595,0.0,0.4189,0.0,0.0,0.0,0.0,0.0,0.0,0.0,0.0,0.0,0.0,0.0,0.0,0.0,0.0,0.3466,0.0,0.5446,0.6734,0.763,0.8462,0.942,0.972,0.991,1.0209,1.0263,1.0215,1.0004,0.9977,0.9923,0.9836,0.9822,0.9822,0.9822,0.9822,0.9822,0.9822,0.9822,0.9822,0.9822,0.9822,0.9822,0.9822,0.9822,0.9822,0.9822,0.9822,0.9822,0.9822,1.0126,1.049,1.0853,1.1752,1.2354,1.2724,1.3693,1.4471,1.5056,1.5056,1.5569,1.6312,1.6312,1.6592,1.7001,1.7001,1.7001,1.7001,0.0,0.1774,0.1795,0.1795,0.1795,0.1795,0.1795,0.1795,0.1795,0.0,0.0,0.0,0.1795,0.1795,0.1795,0.1795,0.1795,0.1795,0.1795,0.1795,0.1795,0.1795,0.1795,0.1795,0.1795,0.1795,0.1795,0.1795,0.1795,0.1795,0.1795,0.1795,0.1795,0.1794,0.1828,0.1812,0.1804,0.1804,0.0,0.1693,0.1693,0.1905,0.0,0.0,0.0,0.0,0.0,0.5291,0.5344,0.0,0.4264,0.344,0.0,0.0,0.0,0.0,0.0,0.0,0.1819,0.0,0.0,0.0,0.0,0.0,0.3038,0.412,0.5358,0.6584,0.7539,0.8388,0.9285,0.9564,0.9693,0.9781,0.9883,0.993,0.989,0.9883,0.9869,0.9829,0.9822,0.9822,0.9822,0.9822,0.9822,0.9822,0.9822,0.9822,0.9822,0.9822,0.9822,0.9822,0.9822,0.9822,0.9822,0.9822,0.9822,0.9822,0.9883,1.0126,1.049,1.0967,1.139,1.1752,1.2423,1.3144,1.3803,1.4699,1.5448,1.5939,1.6188,1.6592,1.7001,1.7001,1.7001,1.7001,0.1804,0.1774,0.1795,0.1795,0.1795,0.1795,0.1795,0.1795,0.1795,0.0,0.0,0.0,0.1795,0.1795,0.1795,0.1795,0.1795,0.1795,0.1795,0.1795,0.1795,0.1795,0.1795,0.1795,0.1795,0.1795,0.1795,0.1795,0.1795,0.1795,0.1795,0.1795,0.1789,0.1775,0.1812,0.179,0.1767,0.0,0.0,0.0,0.2023,0.0,0.0,0.2886,0.3585,0.0,0.0,0.0,0.5902,0.5634,0.4763,0.0,0.0,0.0,0.0,0.0,0.0,0.0,0.0,0.0,0.0,0.0,0.0,0.0,0.2762,0.3814,0.5014,0.0,0.727,0.8152,0.9051,0.9367,0.9517,0.9517,0.9639,0.9754,0.9815,0.9822,0.9822,0.9822,0.9822,0.9822,0.9822,0.9822,0.9822,0.9822,0.9822,0.9822,0.9822,0.9822,0.9822,0.9822,0.9822,0.9822,0.9822,0.9822,0.9822,0.9822,0.9822,0.9883,1.0126,1.0422,1.0725,1.0906,1.1692,1.2294,1.2904,1.425,1.5227,1.5805,1.6188,1.6592,1.7001,1.7001,1.7001,1.7001,0.0,0.1774,0.1795,0.1795,0.1795,0.1795,0.1795,0.1795,0.1795,0.0,0.1795,0.1795,0.1795,0.1795,0.1795,0.1795,0.1795,0.1795,0.1795,0.1795,0.1795,0.1795,0.1795,0.1795,0.1795,0.1795,0.1795,0.1795,0.1795,0.1795,0.1795,0.1795,0.1779,0.1804,0.1801,0.1767,0.1715,0.2001,0.0,0.2291,0.2564,0.2921,0.0,0.0,0.3908,0.4845,0.5284,0.5936,0.6514,0.6325,0.519,0.0,0.0,0.0,0.0,0.0,0.1667,0.0,0.0,0.0,0.0,0.0,0.192,0.0,0.2826,0.3627,0.4703,0.6097,0.7032,0.7822,0.8721,0.9117,0.9313,0.9327,0.9462,0.9612,0.9774,0.9808,0.9822,0.9822,0.9822,0.9822,0.9822,0.9822,0.9822,0.9822,0.9822,0.9822,0.9822,0.9822,0.9822,0.9822,0.9822,0.9822,0.9822,0.9822,0.9822,0.9822,0.9822,0.9822,0.9822,1.0126,1.0308,1.0368,1.1337,1.1933,1.2311,1.384,1.4981,1.5805,1.622,1.6624,1.7001,1.7001,1.7001,1.7001,0.1804,0.1774,0.1795,0.1795,0.1795,0.1795,0.1795,0.1795,0.1795,0.1795,0.1795,0.1795,0.1795,0.1795,0.1795,0.1795,0.1795,0.1795,0.1795,0.1795,0.1795,0.1795,0.1795,0.1795,0.1795,0.1795,0.1795,0.1795,0.1795,0.1795,0.1795,0.1795,0.1779,0.1804,0.1725,0.1695,0.1712,0.0,0.0,0.2881,0.3191,0.0,0.4035,0.4531,0.5028,0.5565,0.6143,0.6767,0.7298,0.6847,0.5552,0.4113,0.0,0.0,0.0,0.192,0.0,0.0,0.0,0.0,0.0,0.0,0.0,0.0,0.3632,0.4397,0.539,0.0,0.7245,0.7753,0.8441,0.8716,0.8879,0.9001,0.9144,0.934,0.9612,0.9747,0.9822,0.9822,0.9822,0.9822,0.9822,0.9822,0.9822,0.9822,0.9822,0.9822,0.9822,0.9822,0.9822,0.9822,0.9822,0.9822,0.9822,0.9822,0.9822,0.9822,0.9822,0.9822,0.9822,1.0126,1.0308,1.0368,1.1088,1.1692,1.2311,1.3597,1.4674,1.5576,1.6328,1.6764,1.7001,1.7001,1.7001,1.7001,0.1828,0.1785,0.1795,0.1795,0.1795,0.1795,0.1795,0.1795,0.1795,0.1795,0.1908,0.2076,0.2244,0.2244,0.2244,0.2244,0.2244,0.2244,0.2244,0.2244,0.2244,0.2244,0.2244,0.2188,0.202,0.202,0.1908,0.1795,0.1795,0.1795,0.1794,0.1779,0.1756,0.1726,0.1696,0.1771,0.1895,0.0,0.2731,0.3305,0.371,0.0,0.4707,0.5165,0.5619,0.6057,0.67,0.7333,0.7713,0.7185,0.6068,0.0,0.0,0.338,0.2526,0.0,0.2271,0.2425,0.0,0.0,0.0,0.2975,0.0,0.0,0.0,0.4935,0.5706,0.6721,0.7241,0.7673,0.8312,0.8499,0.8621,0.8696,0.8838,0.8952,0.9067,0.9345,0.9598,0.9598,0.9598,0.9598,0.9598,0.9673,0.9747,0.9815,0.9822,0.9822,0.9822,0.9822,0.9822,0.9822,0.9822,0.9822,0.9822,0.9822,0.9822,0.9822,0.9822,0.9883,1.0065,1.0247,1.0361,1.0604,1.1088,1.1631,1.232,1.3646,1.4638,1.5514,1.6381,1.6797,1.7001,1.7001,1.7001,1.7001,0.1793,0.1795,0.1795,0.1795,0.1795,0.1795,0.1795,0.1795,0.1795,0.1851,0.2076,0.236,0.2761,0.2876,0.2934,0.3002,0.2993,0.2986,0.2986,0.2867,0.2748,0.2748,0.2748,0.2524,0.2188,0.2188,0.2076,0.1795,0.1795,0.1795,0.1794,0.1819,0.1787,0.1703,0.1779,0.1851,0.0,0.0,0.0,0.3601,0.0,0.4669,0.5173,0.5529,0.5938,0.6445,0.721,0.7697,0.7951,0.7517,0.6613,0.5598,0.4837,0.4027,0.0,0.0,0.0,0.0,0.0,0.0,0.0,0.0,0.0,0.478,0.0,0.0,0.0,0.0,0.0,0.0,0.0,0.0,0.0,0.0,0.0,0.0,0.0,0.8831,0.0,0.931,0.9323,0.9323,0.9381,0.9496,0.9612,0.9727,0.9734,0.9747,0.9781,0.9781,0.9795,0.9822,0.9822,0.9822,0.9822,0.9822,0.9822,0.9822,0.9822,1.0004,1.0308,1.0422,1.0664,1.1027,1.139,1.1957,1.2673,1.3952,1.488,1.5638,1.6445,1.684,1.7001,1.7001,1.7066,1.7066,0.1785,0.1795,0.1795,0.1795,0.1795,0.1795,0.1795,0.1795,0.1908,0.2132,0.2188,0.2481,0.3148,0.0,0.0,0.0,0.0,0.0,0.4008,0.3447,0.3082,0.3082,0.2805,0.2524,0.2188,0.2188,0.2076,0.1795,0.1795,0.1795,0.1794,0.1819,0.1787,0.1703,0.1934,0.0,0.0,0.0,0.3369,0.0,0.4439,0.483,0.0,0.583,0.6332,0.6856,0.7878,0.8127,0.7979,0.0,0.7134,0.6093,0.0,0.5096,0.4082,0.403,0.0,0.0,0.0,0.0,0.0,0.0,0.5441,0.0,0.0,0.0,0.6842,0.7397,0.0,0.0,0.0,0.0,0.0,0.0,0.0,0.0,0.815,0.8196,0.8403,0.8916,0.8975,0.9091,0.9381,0.9395,0.9415,0.9429,0.9429,0.949,0.9625,0.9632,0.9693,0.9815,0.9822,0.9822,0.9822,0.9822,0.9822,0.9822,0.9822,1.0004,1.0308,1.0914,1.1398,1.17,1.2294,1.2993,1.3845,1.4576,1.5355,1.6192,1.6744,1.698,1.7001,1.7001,1.7206,1.7464,0.187,0.1755,0.1748,0.1765,0.1755,0.1748,0.1821,0.1935,0.2274,0.2912,0.3221,0.3592,0.0,0.0,0.0,0.0,0.0,0.5385,0.0,0.0,0.4133,0.3921,0.3645,0.3141,0.2524,0.2468,0.2244,0.1795,0.1778,0.1823,0.1823,0.1774,0.1745,0.1731,0.1957,0.0,0.2271,0.0,0.3542,0.0,0.0,0.0,0.0,0.5897,0.6798,0.7741,0.8039,0.8199,0.8212,0.0,0.7166,0.0,0.0,0.0,0.0,0.0,0.0,0.0,0.0,0.0,0.0,0.0,0.0,0.0,0.6836,0.0,0.7141,0.0,0.0,0.0,0.0,0.0,0.0,0.0,0.814,0.0,0.0,0.0,0.7855,0.8388,0.0,0.0,0.8981,0.8994,0.9062,0.9296,0.9309,0.9313,0.9469,0.9564,0.9639,0.9693,0.9781,0.9822,0.9822,0.9822,0.9822,0.9822,0.9822,1.0065,1.0611,1.1088,1.1692,1.2363,1.2784,1.3495,1.4311,1.4896,1.5554,1.6234,1.6786,1.7001,1.7001,1.7001,1.7206,1.7464,0.2202,0.0,0.1925,0.1895,0.1826,0.1822,0.1908,0.2133,0.2645,0.3656,0.4104,0.0,0.5381,0.6213,0.0,0.0,0.689,0.6832,0.0,0.0,0.5252,0.0,0.0,0.0,0.0,0.2748,0.2407,0.1782,0.1815,0.1799,0.179,0.1738,0.1714,0.1712,0.0,0.2228,0.2492,0.0,0.383,0.4422,0.4782,0.523,0.5822,0.6183,0.715,0.8355,0.7994,0.8156,0.8441,0.7802,0.7315,0.6961,0.674,0.6473,0.0,0.0,0.0,0.0,0.6353,0.0,0.0,0.0,0.0,0.0,0.0,0.0,0.0,0.0,0.0,0.0,0.0,0.0,0.0,0.0,0.0,0.7879,0.0,0.7439,0.0,0.0,0.0,0.0,0.8635,0.8648,0.8737,0.9009,0.9064,0.9096,0.9252,0.9442,0.9564,0.9605,0.9747,0.9822,0.9822,0.9822,0.9822,0.9822,0.9822,1.0126,1.0785,1.1209,1.1933,1.2844,1.3264,1.4016,1.489,1.5298,1.5846,1.6445,1.6872,1.7066,1.713,1.713,1.74,1.7798,0.29,0.2634,0.0,0.2132,0.2078,0.209,0.2181,0.2406,0.2987,0.4056,0.0,0.0,0.0,0.0,0.0,0.0,0.0,0.8227,0.7978,0.0,0.6194,0.0,0.0,0.4033,0.0,0.0,0.2394,0.1805,0.1805,0.1788,0.1705,0.1675,0.1714,0.1712,0.2189,0.2445,0.2592,0.3678,0.4344,0.4748,0.5182,0.5754,0.6308,0.0,0.7462,0.8355,0.7994,0.0,0.8581,0.7931,0.7783,0.7962,0.7962,0.0,0.0,0.0,0.0,0.0,0.0,0.0,0.0,0.7885,0.0,0.0,0.0,0.0,0.7988,0.0,0.0,0.0,0.0,0.0,0.0,0.0,0.0,0.0,0.0,0.0,0.0,0.0,0.0,0.0,0.0,0.8486,0.8492,0.8506,0.8642,0.8791,0.8892,0.9232,0.9456,0.9605,0.9747,0.9822,0.9822,0.9822,0.9822,0.9822,0.9822,1.0126,1.0853,1.145,1.2303,1.3204,1.3873,1.4771,1.5732,1.5805,1.6266,1.699,1.7001,1.7206,1.7464,1.7464,1.7927,1.8571,0.396,0.0,0.0,0.0,0.0,0.27,0.2995,0.3363,0.4036,0.0,0.607,0.0,0.0,0.8586,0.9182,0.0,0.0,0.9324,0.8928,0.8179,0.0,0.0,0.0,0.4923,0.0,0.0,0.0,0.0,0.2054,0.1919,0.1675,0.1647,0.1632,0.1632,0.0,0.2129,0.0,0.0,0.0,0.0,0.0,0.6818,0.722,0.0,0.7467,0.8355,0.8244,0.8582,0.8944,0.8534,0.8325,0.8329,0.8329,0.8268,0.8247,0.8247,0.8239,0.8227,0.832,0.842,0.8488,0.8535,0.0,0.0,0.0,0.0,0.0,0.0,0.0,0.0,0.0,0.0,0.0,0.0,0.0,0.0,0.0,0.0,0.0,0.0,0.0,0.0,0.0,0.8187,0.8228,0.8336,0.8391,0.8526,0.8771,0.8981,0.9205,0.9449,0.9605,0.9727,0.9822,0.9822,0.9822,0.9822,0.9822,1.0126,1.0853,1.1511,1.2423,1.3564,1.4172,1.5084,1.6126,1.6126,1.6455,1.7001,1.7271,1.7529,1.7787,1.7594,1.7992,1.8635,0.509,0.5186,0.0,0.0,0.0,0.3369,0.3862,0.4266,0.0,0.0,0.716,0.0,0.8732,0.0,0.9954,0.0,1.0078,1.005,0.9643,0.9051,0.0,0.7354,0.6686,0.0,0.0,0.0,0.0,0.0,0.0,0.2264,0.18,0.1779,0.1667,0.1617,0.0,0.2028,0.2094,0.0,0.3725,0.0,0.0,0.7145,0.0,0.0,0.7686,0.8543,0.8427,0.8739,0.92,0.89,0.8778,0.8763,0.8763,0.8849,0.887,0.887,0.8949,0.8972,0.9064,0.9001,0.896,0.9001,0.8832,0.8628,0.8574,0.0,0.837,0.0,0.0,0.0,0.0,0.0,0.0,0.0,0.0,0.0,0.0,0.7746,0.0,0.0,0.0,0.0,0.0,0.7988,0.8029,0.818,0.8241,0.8377,0.8615,0.8825,0.9049,0.9293,0.9503,0.9652,0.9747,0.9795,0.9822,0.9822,0.9822,1.0126,1.0853,1.1511,1.2483,1.3753,1.443,1.5338,1.6323,1.6409,1.6731,1.7206,1.74,1.7787,1.8173,1.798,1.8366,1.9072,0.6213,0.6292,0.6042,0.0,0.4289,0.0,0.0,0.0,0.588,0.0,0.7807,0.846,0.941,0.985,1.0104,1.018,1.0392,1.037,1.0039,0.9656,0.0,0.0,0.7541,0.6604,0.5234,0.0,0.0,0.0,0.0,0.0,0.2021,0.2021,0.1869,0.0,0.1869,0.0,0.2125,0.3063,0.3662,0.4186,0.5541,0.6648,0.7449,0.7449,0.8061,0.8854,0.8549,0.8793,0.9275,0.9037,0.9098,0.9335,0.9335,0.9426,0.9618,0.9618,0.9523,0.9415,0.9415,0.9415,0.9381,0.9289,0.9083,0.8878,0.8791,0.8628,0.852,0.0,0.0,0.0,0.0,0.0,0.0,0.0,0.0,0.0,0.0,0.0,0.0,0.0,0.0,0.0,0.0,0.7988,0.7988,0.7988,0.8174,0.8323,0.8472,0.8757,0.8988,0.9207,0.9442,0.9605,0.9612,0.9747,0.9822,0.9822,0.9822,1.0186,1.0846,1.1511,1.2543,1.3772,1.464,1.5545,1.6344,1.6634,1.7052,1.7529,1.7529,1.7992,1.8635,1.8635,1.9072,1.9711,0.7015,0.7068,0.7082,0.0,0.6011,0.5541,0.0,0.0,0.0,0.0,0.894,0.9538,1.0207,1.0399,1.0545,1.0585,1.0617,0.0,0.0,0.0,0.0,0.9199,0.8872,0.8055,0.6778,0.6404,0.0,0.4124,0.0,0.0,0.2271,0.0,0.0,0.0,0.0,0.0,0.1783,0.2525,0.3628,0.4973,0.5865,0.6834,0.7811,0.8061,0.861,0.9153,0.8854,0.9159,0.964,0.9579,0.964,0.97,0.97,0.9734,0.9768,0.9768,0.9822,0.9815,0.9815,0.9876,0.9869,0.9829,0.9625,0.9429,0.9388,0.9171,0.9071,0.913,0.0,0.0,0.0,0.0,0.0,0.0,0.0,0.0,0.0,0.0,0.0,0.7988,0.0,0.0,0.7988,0.7988,0.7988,0.7988,0.8029,0.8214,0.8465,0.8554,0.8771,0.92,0.934,0.9496,0.9605,0.9747,0.9822,0.9822,1.0065,1.055,1.1209,1.2062,1.3166,1.4346,1.5075,1.6009,1.6948,1.7067,1.7371,1.7916,1.8185,1.8752,1.9328,1.9328,1.9456,1.9711,0.7679,0.7705,0.0,0.7936,0.0,0.0,0.7158,0.7566,0.0,0.8956,0.9512,0.0,1.0503,1.067,1.0717,1.0717,1.0717,0.0,1.0595,0.0,0.0,0.9812,0.9551,0.8945,0.7774,0.7476,0.0,0.5235,0.0,0.0,0.2723,0.0,0.0,0.0,0.0,0.1617,0.0,0.2311,0.36,0.5233,0.5637,0.6635,0.0,0.8122,0.8671,0.9275,0.9153,0.9396,0.9822,0.9822,0.9822,0.9822,0.9822,0.9869,0.9862,0.9862,1.0032,1.0148,1.0148,1.0154,1.0154,1.0148,0.9978,0.9788,0.972,0.9517,0.9361,0.9374,0.9178,0.8988,0.8892,0.873,0.0,0.0,0.0,0.0,0.0,0.0,0.0,0.0,0.7988,0.0,0.7988,0.7988,0.7988,0.7988,0.7988,0.8167,0.8465,0.8479,0.8689,0.9193,0.93,0.9456,0.9605,0.9747,0.9883,1.0004,1.0368,1.1005,1.1926,1.2725,1.3746,1.4878,1.5535,1.6347,1.7226,1.7274,1.7727,1.8302,1.8699,1.9072,1.9392,1.9571,1.9775,2.0094,0.8204,0.8221,0.0,0.0,0.0,0.0,0.0,0.8426,0.0,0.9578,0.0,1.0083,1.0624,1.0717,1.0717,1.0717,0.0,1.0717,1.0717,1.0595,1.039,1.013,1.0012,0.9501,0.862,0.8479,0.7746,0.0,0.0,0.0,0.0,0.0,0.0,0.0,0.0,0.0,0.0,0.2478,0.3719,0.5229,0.5416,0.6474,0.7994,0.8055,0.8604,0.9335,0.9335,0.9579,0.9822,0.9822,0.9822,0.9822,0.9842,0.9883,0.999,1.0011,1.0188,1.031,1.031,1.0324,1.0337,1.0337,1.0222,1.0066,0.9917,0.9768,0.9625,0.9469,0.9422,0.9327,0.9049,0.8892,0.0,0.0,0.0,0.0,0.0,0.0,0.0,0.0,0.0,0.0,0.7988,0.7988,0.7988,0.7988,0.7988,0.8167,0.8465,0.8479,0.8689,0.9193,0.93,0.9456,0.9605,0.9747,0.9943,1.0308,1.0664,1.1484,1.2689,1.3373,1.4365,1.5482,1.6055,1.6731,1.7345,1.7569,1.8056,1.8699,1.902,1.9136,1.92,1.9507,2.003,2.0615,0.8543,0.0,0.0,0.0,0.0,0.933,0.9506,0.9506,0.9714,1.0132,1.03,1.0456,1.0704,1.0717,1.0717,1.0717,1.0717,0.0,0.0,0.0,0.0,1.0551,1.0524,1.0293,0.9736,0.9487,0.8715,0.0,0.0,0.0,0.4023,0.0,0.0,0.0,0.0,0.0,0.2484,0.3452,0.0,0.5295,0.6492,0.7501,0.8355,0.8848,0.9335,0.97,0.97,0.9761,0.9822,0.9822,0.9822,0.9842,0.9909,0.9963,1.0011,1.0202,1.0344,1.0453,1.0453,1.0548,1.0643,1.0643,1.0527,1.0378,1.0236,1.008,0.9869,0.9774,0.9652,0.9517,0.9334,0.9001,0.8689,0.0,0.0,0.0,0.0,0.0,0.0,0.0,0.0,0.7988,0.0,0.0,0.7988,0.7988,0.7988,0.8167,0.8465,0.8479,0.8689,0.9193,0.93,0.9456,0.9605,0.9747,0.9943,1.0308,1.0914,1.1849,1.3066,1.3925,1.4948,1.6086,1.6762,1.7337,1.7912,1.8291,1.8635,1.9008,1.9072,1.9264,1.9507,1.9584,1.9839,2.0234,0.0,0.0,0.0,0.0,0.0,0.0,0.0,1.0066,1.0222,1.0371,1.0453,1.0548,1.0704,1.0717,1.0717,1.0717,1.0717,1.0717,1.0717,1.0717,1.0717,1.0717,1.0717,1.0584,1.0299,0.9949,0.922,0.8043,0.0,0.0,0.4608,0.3666,0.0,0.0,0.0,0.2909,0.0,0.0,0.5043,0.6233,0.699,0.7944,0.8909,0.9214,0.9564,0.9876,0.9876,0.9992,1.0046,0.9964,0.9992,1.0073,1.0148,1.0222,1.0297,1.0371,1.0493,1.0609,1.0609,1.0663,1.0717,1.0717,1.0663,1.0568,1.0426,1.0276,1.0127,0.9909,0.9822,0.9652,0.9422,0.9076,0.8804,0.873,0.0,0.0,0.0,0.0,0.0,0.0,0.0,0.0,0.0,0.0,0.0,0.0,0.0,0.8167,0.8465,0.8479,0.8689,0.9193,0.93,0.9456,0.9605,0.9747,1.0126,1.0853,1.1606,1.2716,1.4085,1.4945,1.594,1.6904,1.7224,1.7739,1.8366,1.8699,1.8956,1.9072,1.9072,1.92,1.9328,1.9328,1.9456,1.966,0.0,0.9502,0.0,0.0,0.972,0.9971,1.012,1.0371,1.0541,1.0541,1.0541,1.0588,1.0711,1.0717,1.0717,1.0717,1.0717,1.0717,1.0717,1.0717,1.0717,1.0717,1.0717,1.0663,1.0541,1.0249,0.9584,0.0,0.0,0.6304,0.5205,0.4075,0.0,0.0,0.0,0.0,0.4206,0.4834,0.5904,0.7151,0.7562,0.8406,0.9381,0.9442,0.9718,1.0038,1.0038,1.0195,1.0304,1.0181,1.0202,1.0283,1.0317,1.0399,1.05,1.0527,1.0622,1.0717,1.0717,1.0717,1.0717,1.0717,1.0717,1.0677,1.0527,1.0385,1.0236,1.0017,0.9842,0.9707,0.9469,0.9211,0.9022,0.8988,0.0,0.0,0.0,0.0,0.0,0.0,0.0,0.0,0.7995,0.7988,0.0,0.0,0.0,0.8167,0.8465,0.8479,0.8689,0.9193,0.93,0.9456,0.9605,0.9842,1.0418,1.1392,1.2295,1.3536,1.5002,1.5813,1.6658,1.7464,1.7594,1.8045,1.8699,1.9008,1.9072,1.9072,1.9072,1.9072,1.9072,1.9072,1.9072,1.92,0.0,0.0,0.0,0.0,0.0,1.0283,1.0426,1.0588,1.0697,1.0697,1.0697,1.0704,1.0717,1.0717,1.0717,1.0717,1.0717,1.0717,1.0717,1.0717,1.0717,1.0717,1.0717,1.0711,1.0697,1.0412,0.9975,0.0,0.0,0.7013,0.5884,0.5069,0.4474,0.4136,0.4608,0.4896,0.5071,0.6242,0.699,0.7389,0.8594,0.9284,0.9597,0.9846,1.0058,1.0256,1.0256,1.0351,1.0473,1.0453,1.0378,1.0304,1.0432,1.048,1.0521,1.0656,1.0711,1.0717,1.0717,1.0717,1.0717,1.0717,1.0717,1.0677,1.0527,1.0385,1.0236,1.0017,0.9829,0.9618,0.9591,0.9449,0.9293,0.9214,0.9166,0.0,0.0,0.0,0.0,0.0,0.0,0.0,0.0,0.7988,0.7988,0.7988,0.7988,0.8167,0.8465,0.8479,0.8689,0.9193,0.93,0.9456,0.9605,1.0196,1.09,1.158,1.2682,1.3942,1.5228,1.5885,1.6658,1.7529,1.7852,1.8355,1.9072,1.9072,1.9072,1.9072,1.9072,1.9072,1.9072,1.9072,1.9072,1.92,0.0,0.0,0.0,1.0093,0.0,1.0426,1.048,1.0622,1.0717,1.0717,1.0717,1.0717,1.0717,1.0717,1.0717,1.0717,1.0717,1.0717,1.0717,1.0717,1.0717,1.0717,1.0717,1.0717,1.0717,1.0514,1.0136,0.0,0.0,0.0,0.6681,0.5712,0.5256,0.5243,0.5836,0.6234,0.6591,0.7482,0.8127,0.8606,0.9311,0.9751,0.9999,1.0125,1.0283,1.0405,1.0405,1.05,1.0629,1.0629,1.0588,1.0555,1.0609,1.0629,1.0643,1.0704,1.0717,1.0717,1.0717,1.0717,1.0717,1.0717,1.0717,1.0704,1.0643,1.0514,1.0392,1.0324,1.008,0.9822,0.9646,0.9557,0.9528,0.9601,0.9496,0.0,0.0,0.0,0.0,0.0,0.0,0.0,0.0,0.7988,0.8029,0.0,0.0,0.8269,0.8472,0.8567,0.8743,0.9015,0.9259,0.9408,0.9469,1.0221,1.1046,1.1913,1.3195,1.4407,1.5523,1.6285,1.7108,1.7852,1.8431,1.8816,1.9072,1.9072,1.9072,1.9072,1.9072,1.92,1.9392,1.9392,1.952,1.9788,1.0849,1.0635,1.0392,1.0351,1.046,1.0561,1.0561,1.0649,1.0717,1.0717,1.0717,1.0717,1.0717,1.0717,1.0717,1.0717,1.0717,1.0717,1.0717,1.0717,1.0717,1.0717,1.0717,0.0,1.0717,1.0568,1.0243,0.9807,0.8768,0.0,0.7427,0.6414,0.6103,0.6373,0.6929,0.7464,0.7974,0.8527,0.9051,0.9539,0.9803,1.0106,1.0344,1.0344,1.0432,1.0561,1.0561,1.0629,1.0717,1.0717,1.0717,1.0717,1.0717,1.0717,1.0717,1.0717,1.0717,1.0717,1.0717,1.0717,1.0717,1.0717,1.0717,1.0717,1.0717,1.0602,1.048,1.0439,1.0229,0.9923,0.9774,0.97,0.9737,0.9938,0.9774,0.9766,0.0,0.9596,0.0,0.0,0.8668,0.8336,0.8187,0.8133,0.0,0.0,0.0,0.8397,0.854,0.8655,0.8798,0.8994,0.9245,0.9401,0.9449,1.0318,1.1238,1.2242,1.3679,1.4907,1.5816,1.6743,1.7389,1.7916,1.8495,1.8816,1.8956,1.8956,1.902,1.9072,1.9072,1.9328,1.9571,1.9571,1.9839,2.017,1.1005,1.0806,1.067,1.0514,1.0616,1.0717,1.0717,1.0717,1.0717,1.0717,1.0717,1.0717,1.0717,1.0717,1.0717,1.0717,1.0717,1.0717,1.0717,1.0717,1.0717,0.0,0.0,1.0717,1.0717,1.0568,1.0419,1.0276,0.0,0.8461,0.809,0.7212,0.6995,0.7396,0.7806,0.8296,0.8915,0.9366,0.9695,0.9818,1.0149,1.0365,1.0487,1.0487,1.0582,1.0717,1.0717,1.0717,1.0717,1.0717,1.0717,1.0717,1.0717,1.0717,1.0717,1.0717,1.0717,1.0717,1.0717,1.0717,1.0717,1.0717,1.0717,1.0717,1.0717,1.0602,1.0453,1.031,1.0154,0.9984,0.9984,0.9862,0.9895,1.0049,0.9945,0.9896,0.0,0.969,0.0,0.9208,0.8918,0.8648,0.8492,0.835,0.0,0.0,0.8397,0.8547,0.8703,0.871,0.8845,0.92,0.93,0.9456,0.9605,1.0736,1.1664,1.2414,1.4078,1.5257,1.6029,1.7012,1.7464,1.7529,1.784,1.8238,1.8635,1.8635,1.8828,1.9072,1.9072,1.9328,1.9571,1.9571,1.9839,2.017,1.0781,1.0749,1.0704,1.0656,1.069,1.0717,1.0717,1.0717,1.0717,1.0717,1.0717,1.0717,1.0717,1.0717,1.0717,1.0717,1.0717,1.0717,1.0717,1.0717,1.0717,1.0717,1.0717,1.0717,1.0717,1.067,1.0575,1.0426,0.9797,0.9192,0.8666,0.8343,0.8492,0.8921,0.9025,0.9396,0.9896,1.0099,1.025,1.0297,1.0469,1.0609,1.0649,1.0649,1.0677,1.0717,1.0717,1.0717,1.0717,1.0717,1.0717,1.0717,1.0717,1.0717,1.0717,1.0717,1.0717,1.0717,1.0717,1.0717,1.0717,1.0717,1.0717,1.0717,1.0717,1.0683,1.0609,1.0453,1.0385,1.029,1.0024,0.995,0.9992,1.0197,1.0016,0.9881,1.0169,0.0,0.9373,0.9208,0.8925,0.8648,0.8499,0.835,0.835,0.8554,0.8513,0.8506,0.8554,0.8845,0.9111,0.9207,0.9401,0.9557,0.9612,1.0488,1.1411,1.2422,1.3884,1.5313,1.6678,1.7271,1.7464,1.7529,1.784,1.8238,1.8571,1.8571,1.8828,1.9072,1.9072,1.9456,1.9915,1.9915,2.0284,2.0792,1.0717,1.0717,1.0717,1.0717,1.0717,1.0717,1.0717,1.0717,1.0717,1.0717,1.0717,1.0717,1.0717,1.0717,1.0717,1.0717,1.0717,1.0717,1.0717,1.0717,1.0717,1.0717,1.0717,1.0717,1.0717,1.0717,1.067,1.0575,1.0103,0.9596,0.9063,0.9063,0.9299,0.9695,0.9753,0.9952,1.0371,1.0514,1.0575,1.0588,1.0683,1.0717,1.0717,1.0717,1.0717,1.0717,1.0717,1.0717,1.0717,1.0717,1.0717,1.0717,1.0717,1.0717,1.0717,1.0717,1.0717,1.0717,1.0717,1.0717,1.0717,1.0717,1.0717,1.0717,1.0717,1.0717,1.0697,1.0595,1.0534,1.0419,1.0181,1.0024,1.006,1.0268,1.0044,0.9896,1.0243,0.98,0.934,0.0,0.0,0.8757,0.8662,0.852,0.8513,0.8696,0.8621,0.8594,0.8648,0.9023,0.9262,0.932,0.951,0.9659,0.9774,1.0544,1.1512,1.2521,1.4179,1.5704,1.7001,1.7206,1.7335,1.7335,1.7658,1.8045,1.8378,1.8571,1.8892,1.9264,1.9264,1.9711,2.0297,2.0297,2.0615,2.1109,1.0717,1.0717,1.0717,1.0717,1.0717,1.0717,1.0717,1.0717,1.0717,1.0717,1.0717,1.0717,1.0717,1.0717,1.0717,1.0717,1.0717,1.0717,1.0717,1.0717,1.0717,1.0717,1.0717,1.0717,1.0717,1.0717,1.0717,1.0717,1.0254,0.9857,0.941,0.941,0.9532,0.9857,0.9993,1.0247,1.0514,1.0663,1.0717,1.0717,1.0717,1.0717,1.0717,1.0717,1.0717,1.0717,1.0717,1.0717,1.0717,1.0717,1.0717,1.0717,1.0717,1.0717,1.0717,1.0717,1.0717,1.0717,1.0717,1.0717,1.0717,1.0717,1.0717,1.0717,1.0717,1.0717,1.0717,1.0717,1.0609,1.046,1.031,1.0161,1.0074,1.0214,0.9985,0.9896,1.0185,0.9743,0.9382,0.9382,0.9106,0.8885,0.8885,0.8798,0.8716,0.8737,0.0,0.8804,0.8919,0.9123,0.9334,0.9612,0.9632,0.9774,0.9997,1.0847,1.1772,1.2782,1.4966,1.6353,1.7001,1.7001,1.7001,1.7001,1.7335,1.7723,1.8033,1.8442,1.9008,1.9571,1.9571,2.003,2.0602,2.0602,2.0792,2.1109,1.0717,1.0717,1.0717,1.0717,1.0717,1.0717,1.0717,1.0717,1.0717,1.0717,1.0717,1.0717,1.0717,1.0717,1.0717,1.0717,1.0717,1.0717,1.0717,1.0717,1.0717,1.0717,1.0717,1.0717,1.0717,1.0717,1.0717,1.0717,1.0617,1.0452,1.0353,1.0353,1.0412,1.0484,1.0518,1.0604,1.067,1.0704,1.0717,1.0717,1.0717,1.0717,1.0717,1.0717,1.0717,1.0717,1.0717,1.0717,1.0717,1.0717,1.0717,1.0717,1.0717,1.0717,1.0717,1.0717,1.0717,1.0717,1.0717,1.0717,1.0717,1.0717,1.0717,1.0717,1.0717,1.0717,1.0717,1.0717,1.069,1.0588,1.0331,1.0249,1.0134,0.9924,0.9689,0.9497,0.9613,0.9293,0.8995,0.8995,0.894,0.8885,0.8885,0.8798,0.8804,0.9084,0.8947,0.9049,0.9429,0.9585,0.9693,0.9768,0.9822,1.0039,1.0222,1.0813,1.2071,1.4009,1.5359,1.6353,1.7001,1.7001,1.7001,1.7001,1.7335,1.7723,1.8033,1.8442,1.9008,1.9571,1.9571,2.003,2.0602,2.0602,2.0792,2.1109,1.0717,1.0717,1.0717,1.0717,1.0717,1.0717,1.0717,1.0717,1.0717,1.0717,1.0717,1.0717,1.0717,1.0717,1.0717,1.0717,1.0717,1.0717,1.0717,1.0717,1.0717,1.0717,1.0717,1.0717,1.0717,1.0717,1.0717,1.0717,1.0717,1.0717,1.0717,1.0717,1.0717,1.0717,1.0717,1.0717,1.0717,1.0717,1.0717,1.0717,1.0717,1.0717,1.0717,1.0717,1.0717,1.0717,1.0717,1.0717,1.0717,1.0717,1.0717,1.0717,1.0717,1.0717,1.0717,1.0717,1.0717,1.0717,1.0717,1.0717,1.0717,1.0717,1.0717,1.0717,1.0717,1.0717,1.0717,1.0717,1.0717,1.0649,1.0419,1.0324,1.0181,0.9869,0.9571,0.9354,0.9344,0.9083,0.8905,0.9028,0.9035,0.9062,0.913,0.9062,0.9083,0.9303,0.9184,0.9306,0.9686,0.9781,0.9849,0.9862,1.0073,1.0285,1.0628,1.1747,1.3183,1.4922,1.5779,1.6429,1.6753,1.6753,1.6753,1.6818,1.7141,1.7518,1.8033,1.8442,1.9084,1.9839,1.9839,2.0221,2.0856,2.0856,2.0919,2.1109,1.0785,1.0785,1.0785,1.0785,1.0785,1.0785,1.0785,1.0785,1.0785,1.0785,1.0785,1.0785,1.0785,1.0785,1.0785,1.0785,1.0785,1.0765,1.0724,1.0717,1.0717,1.0717,1.0717,1.0717,1.0717,1.0717,1.0717,1.0717,1.0717,1.0717,1.0717,1.0717,1.0717,1.0717,1.0717,1.0717,1.0717,1.0717,1.0717,1.0717,1.0717,1.0717,1.0717,1.0717,1.0717,1.0717,1.0717,1.0717,1.0717,1.0717,1.0717,1.0717,1.0717,1.0717,1.0717,1.0717,1.0717,1.0717,1.0717,1.0717,1.0717,1.0717,1.0717,1.0717,1.0717,1.0717,1.0717,1.0717,1.0717,1.067,1.0521,1.0378,1.0188,0.9903,0.9591,0.9334,0.9262,0.9062,0.9015,0.9193,0.9248,0.933,0.9401,0.9435,0.9456,0.9483,0.9483,0.9598,0.9876,0.991,0.9978,1.0051,1.0243,1.0635,1.1301,1.3078,1.453,1.5639,1.6234,1.6504,1.6558,1.6504,1.6504,1.6439,1.6818,1.7324,1.7969,1.8442,1.9212,2.0106,2.0106,2.0488,2.1109,2.1109,2.1109,2.1109,1.109,1.109,1.109,1.109,1.109,1.109,1.109,1.109,1.109,1.109,1.109,1.109,1.109,1.109,1.109,1.109,1.109,1.0989,1.0738,1.0717,1.0717,1.0717,1.0717,1.0717,1.0717,1.0717,1.0717,1.0717,1.0717,1.0717,1.0717,1.0717,1.0717,1.0717,1.0717,1.0717,1.0717,1.0717,1.0717,1.0717,1.0717,1.0717,1.0717,1.0717,1.0717,1.0717,1.0717,1.0717,1.0717,1.0717,1.0717,1.0717,1.0717,1.0717,1.0717,1.0717,1.0717,1.0717,1.0717,1.0717,1.0717,1.0717,1.0717,1.0717,1.0717,1.0717,1.0717,1.0717,1.0717,1.067,1.0521,1.0378,1.0222,0.9984,0.9659,0.9374,0.9347,0.9275,0.9187,0.9207,0.9381,0.9551,0.9571,0.968,0.9808,0.9876,0.9883,1.0025,1.0202,1.0324,1.0399,1.0426,1.0446,1.1113,1.2513,1.3726,1.4987,1.6343,1.6429,1.6623,1.6936,1.6623,1.6364,1.6104,1.6742,1.7206,1.7658,1.8314,1.9212,2.0106,2.0106,2.0488,2.1109,2.1109,2.1109,2.1109,1.1234,1.1234,1.1234,1.1234,1.1234,1.1234,1.1234,1.1234,1.1234,1.1234,1.1234,1.1234,1.1234,1.1234,1.1234,1.1234,1.1234,1.1104,1.0968,1.0962,1.0962,1.0962,1.0962,1.0921,1.0779,1.0846,1.0806,1.0717,1.0717,1.0717,1.0717,1.0717,1.0717,1.0717,1.0717,1.0717,1.0717,1.0717,1.0765,1.0846,1.0846,1.0887,1.0962,1.0962,1.0962,1.0962,1.0962,1.0962,1.0962,1.0962,1.0962,1.0962,1.0962,1.0962,1.0962,1.0962,1.0846,1.0717,1.0717,1.0717,1.0717,1.0717,1.0717,1.0717,1.0717,1.0717,1.0717,1.0717,1.0717,1.0697,1.0629,1.0493,1.0317,1.0086,0.9808,0.9564,0.9401,0.9395,0.9429,0.9503,0.9707,0.9876,0.9964,1.0032,1.01,1.0168,1.0175,1.0236,1.0385,1.046,1.0527,1.0616,1.1141,1.1957,1.3079,1.4333,1.5508,1.6483,1.6494,1.6494,1.6429,1.5909,1.5649,1.5724,1.6029,1.6613,1.7271,1.798,1.888,1.9839,2.0043,2.0488,2.1109,2.1109,2.1109,2.1109,1.1267,1.1267,1.1267,1.1267,1.1267,1.1267,1.1267,1.1267,1.1267,1.1267,1.1267,1.1267,1.1267,1.1267,1.1267,1.1267,1.1267,1.1267,1.1267,1.1267,1.124,1.1165,1.1234,1.1111,1.1002,1.0995,1.0941,1.0826,1.0826,1.0826,1.0826,1.0826,1.0826,1.0826,1.0826,1.0826,1.0826,1.0826,1.0894,1.0995,1.0995,1.1063,1.1234,1.1234,1.1234,1.1234,1.1234,1.1234,1.1234,1.1234,1.1234,1.1234,1.1234,1.1234,1.1234,1.1234,1.1002,1.0806,1.0738,1.0717,1.0717,1.0717,1.0717,1.0717,1.0717,1.0717,1.0717,1.0717,1.0717,1.0717,1.0717,1.0595,1.0419,1.0251,0.9998,0.9795,0.9564,0.9639,0.9754,0.9863,1.0039,1.0195,1.0317,1.0365,1.0385,1.0385,1.0385,1.0432,1.0541,1.0548,1.0595,1.0784,1.1843,1.2692,1.3276,1.4856,1.5909,1.6504,1.6504,1.6299,1.5974,1.5257,1.5062,1.5332,1.5388,1.5964,1.6947,1.7582,1.8547,1.9635,1.9979,2.0488,2.1109,2.1109,2.1109,2.1109,1.1586,1.1586,1.1586,1.1586,1.1586,1.1586,1.1586,1.1586,1.1586,1.1586,1.1586,1.1586,1.1586,1.1586,1.1586,1.1586,1.1586,1.1586,1.1586,1.1586,1.1457,1.1241,1.1234,1.1158,1.1145,1.1145,1.1138,1.1131,1.1131,1.1131,1.1131,1.1131,1.1131,1.1131,1.1131,1.1131,1.1131,1.1131,1.1138,1.1145,1.1145,1.122,1.1234,1.1234,1.1234,1.1234,1.1234,1.1234,1.1234,1.1234,1.1234,1.1234,1.1234,1.1234,1.1234,1.1234,1.1145,1.107,1.0792,1.0717,1.0717,1.0717,1.0717,1.0717,1.0717,1.0717,1.0717,1.0717,1.0717,1.0717,1.0717,1.0595,1.0487,1.0466,1.0222,0.9963,0.9943,0.995,0.9957,0.997,1.0283,1.0466,1.0473,1.0602,1.069,1.069,1.069,1.069,1.0704,1.0704,1.0843,1.1181,1.2231,1.2947,1.3276,1.5052,1.6169,1.6504,1.6504,1.6299,1.5974,1.5257,1.4931,1.4931,1.4931,1.5518,1.6569,1.7271,1.8366,1.9635,1.9979,2.0488,2.1109,2.1109,2.1109,2.1109,1.1619,1.1619,1.1619,1.1619,1.1619,1.1619,1.1619,1.1619,1.1619,1.1619,1.1619,1.1619,1.1619,1.1619,1.1619,1.1619,1.1619,1.1619,1.1619,1.1619,1.1565,1.145,1.1443,1.1402,1.1307,1.1307,1.126,1.1234,1.1234,1.1234,1.1234,1.1234,1.1234,1.1234,1.1234,1.1234,1.1234,1.1234,1.1219,1.1307,1.1307,1.1362,1.1443,1.1443,1.1443,1.1443,1.1443,1.1443,1.1443,1.1443,1.1443,1.1443,1.1443,1.1443,1.143,1.1335,1.1307,1.126,1.105,1.0995,1.0995,1.0995,1.0928,1.0793,1.0793,1.0785,1.0717,1.0717,1.0717,1.0717,1.0717,1.067,1.0602,1.0507,1.0399,1.0297,1.0209,1.027,1.0324,1.0324,1.0507,1.0636,1.0636,1.0683,1.0717,1.0717,1.0717,1.0717,1.0717,1.0916,1.1181,1.1578,1.2626,1.335,1.3678,1.4996,1.5779,1.5909,1.5649,1.5323,1.4987,1.4277,1.408,1.4268,1.4473,1.5062,1.5974,1.7077,1.8238,1.9328,1.9915,2.0488,2.1109,2.1109,2.1109,2.1109,1.1619,1.1619,1.1619,1.1619,1.1619,1.1619,1.1619,1.1619,1.1619,1.1619,1.1619,1.1619,1.1619,1.1619,1.1619,1.1619,1.1619,1.1619,1.1619,1.1619,1.1619,1.1619,1.1619,1.1572,1.1463,1.1463,1.1409,1.1307,1.1307,1.1307,1.1307,1.1307,1.1307,1.1307,1.1307,1.1307,1.1307,1.1307,1.1369,1.1463,1.1463,1.1525,1.1619,1.1619,1.1619,1.1619,1.1619,1.1619,1.1619,1.1619,1.1619,1.1619,1.1619,1.1619,1.1599,1.1491,1.1463,1.1443,1.1335,1.1307,1.128,1.1185,1.109,1.1016,1.1016,1.0934,1.0846,1.0799,1.0792,1.0778,1.0731,1.0717,1.0683,1.0582,1.0561,1.0527,1.0432,1.05,1.0561,1.0561,1.0656,1.0717,1.0717,1.0717,1.0717,1.0717,1.0717,1.0717,1.085,1.1181,1.1578,1.1909,1.2766,1.335,1.3752,1.48,1.5257,1.5117,1.4866,1.4539,1.4211,1.363,1.3564,1.394,1.4137,1.4726,1.5574,1.6818,1.8045,1.9148,1.9939,2.0682,2.1256,2.1349,2.1376,2.1376,1.1619,1.1619,1.1619,1.1619,1.1619,1.1619,1.1619,1.1619,1.1619,1.1619,1.1619,1.1619,1.1619,1.1619,1.1619,1.1619,1.1619,1.1619,1.1619,1.1619,1.1619,1.1619,1.1619,1.1619,1.1619,1.1619,1.1619,1.1619,1.1619,1.1619,1.1619,1.1619,1.1619,1.1619,1.1619,1.1619,1.1619,1.1619,1.1619,1.1619,1.1619,1.1619,1.1619,1.1619,1.1619,1.1619,1.1619,1.1619,1.1619,1.1619,1.1619,1.1619,1.1619,1.1619,1.1619,1.1619,1.1619,1.1619,1.1619,1.1619,1.1545,1.124,1.1165,1.1234,1.1234,1.1234,1.1124,1.0914,1.088,1.0833,1.0751,1.0724,1.0724,1.0717,1.0717,1.0717,1.0717,1.0717,1.0717,1.0717,1.0717,1.0717,1.0717,1.0717,1.0717,1.0717,1.0717,1.085,1.1181,1.1578,1.1982,1.2305,1.2634,1.2972,1.3367,1.4417,1.4735,1.4408,1.4408,1.4211,1.3875,1.3564,1.3564,1.3875,1.3875,1.453,1.5574,1.6613,1.7852,1.9172,2.0153,2.0981,2.1655,2.1884,2.1991,2.1951,1.1619,1.1619,1.1619,1.1619,1.1619,1.1619,1.1619,1.1619,1.1619,1.1619,1.1619,1.1619,1.1619,1.1619,1.166,1.1755,1.1769,1.1816,1.1925,1.1932,1.1932,1.1932,1.1728,1.1619,1.1619,1.1619,1.1619,1.1619,1.1619,1.1619,1.1619,1.1619,1.1619,1.1619,1.1619,1.1619,1.1619,1.1619,1.1619,1.1619,1.1619,1.1619,1.1619,1.1619,1.1619,1.1619,1.1619,1.1619,1.1619,1.1619,1.1619,1.1619,1.1619,1.1619,1.1619,1.1619,1.1619,1.1619,1.1619,1.1619,1.1599,1.1504,1.1402,1.1321,1.1321,1.124,1.1151,1.1104,1.1097,1.1056,1.084,1.0813,1.0779,1.0738,1.0717,1.0717,1.0717,1.0717,1.0717,1.0717,1.0717,1.0717,1.0717,1.0717,1.0717,1.0717,1.0916,1.1314,1.1909,1.2107,1.2305,1.2634,1.3038,1.3301,1.3367,1.3949,1.4015,1.3695,1.3695,1.3498,1.3095,1.3038,1.3038,1.3161,1.3678,1.4333,1.5202,1.6661,1.81,1.9439,2.0441,2.1201,2.1871,2.1951,2.1991,2.1977,1.1619,1.1619,1.1619,1.1619,1.1619,1.1619,1.1619,1.1667,1.1701,1.1701,1.1755,1.1796,1.1796,1.1796,1.183,1.1911,1.1925,1.1965,1.2054,1.2135,1.2135,1.2135,1.1891,1.1796,1.1796,1.1796,1.1796,1.1796,1.1796,1.1796,1.1796,1.1796,1.1796,1.1796,1.1796,1.1796,1.1796,1.1796,1.1796,1.1796,1.1796,1.1796,1.1796,1.1796,1.1796,1.1796,1.1796,1.1796,1.1796,1.1796,1.1796,1.1796,1.1796,1.1796,1.1782,1.1721,1.1701,1.1694,1.1633,1.1619,1.1619,1.1619,1.1552,1.1484,1.1484,1.1409,1.1328,1.1267,1.1253,1.1206,1.1063,1.0921,1.0853,1.0759,1.0758,1.0717,1.0717,1.0717,1.0717,1.0717,1.0717,1.0717,1.085,1.0916,1.0982,1.1115,1.1446,1.1843,1.2305,1.2437,1.2568,1.2774,1.3038,1.3203,1.3269,1.3468,1.3501,1.3367,1.3311,1.3137,1.2938,1.3011,1.3051,1.3051,1.3845,1.4503,1.5253,1.6845,1.836,1.9783,2.0718,2.1566,2.2164,2.2285,2.2338,2.2311,1.1619,1.1619,1.1619,1.1633,1.164,1.164,1.1653,1.1769,1.185,1.185,1.1972,1.2135,1.2135,1.2135,1.2067,1.2155,1.2094,1.2176,1.2176,1.2176,1.2176,1.2176,1.2176,1.2176,1.2176,1.2074,1.2135,1.2135,1.2135,1.2135,1.2135,1.2135,1.2135,1.2135,1.2135,1.2135,1.2135,1.2135,1.2135,1.2135,1.2135,1.2135,1.2135,1.2135,1.2135,1.2135,1.2135,1.2135,1.2135,1.2135,1.2135,1.2135,1.2135,1.2135,1.2033,1.1891,1.185,1.1823,1.1694,1.1647,1.164,1.164,1.1626,1.1619,1.1619,1.1619,1.1579,1.1443,1.1409,1.1362,1.1212,1.1077,1.0914,1.09,1.0839,1.0744,1.0744,1.0731,1.0717,1.0717,1.0717,1.085,1.1247,1.1247,1.1446,1.1784,1.2122,1.2328,1.2394,1.2674,1.2815,1.2815,1.2815,1.2962,1.3116,1.3116,1.3244,1.3418,1.3177,1.3116,1.3124,1.3295,1.3368,1.3437,1.4182,1.4864,1.5623,1.7136,1.862,2.0051,2.1074,2.1852,2.2485,2.2766,2.2928,2.2887,1.1619,1.1619,1.1653,1.1769,1.1782,1.1823,1.1945,1.1993,1.2013,1.2013,1.204,1.2135,1.2135,1.2135,1.2108,1.223,1.2338,1.2406,1.2406,1.2406,1.2406,1.2406,1.2406,1.2406,1.2406,1.2182,1.2135,1.2135,1.2135,1.2135,1.2135,1.2135,1.2135,1.2135,1.2135,1.2135,1.2135,1.2135,1.2135,1.2135,1.2135,1.2135,1.2135,1.2135,1.2135,1.2135,1.2135,1.2135,1.2135,1.2135,1.2135,1.2135,1.2135,1.2135,1.2054,1.202,1.2013,1.2006,1.1972,1.1877,1.1782,1.1782,1.1701,1.1619,1.1619,1.1619,1.1613,1.1579,1.1572,1.1525,1.1369,1.1314,1.1253,1.1138,1.0995,1.0833,1.0833,1.0799,1.0784,1.1049,1.1115,1.1247,1.1644,1.1644,1.1776,1.218,1.2429,1.2633,1.2901,1.3106,1.3254,1.3254,1.3254,1.3271,1.3311,1.3311,1.3363,1.339,1.3363,1.3311,1.3311,1.3352,1.3368,1.3437,1.4182,1.4864,1.5632,1.7302,1.8868,2.033,2.1283,2.2151,2.2779,2.2846,2.2928,2.2928,1.183,1.183,1.1857,1.1932,1.1938,1.1965,1.2047,1.2121,1.2169,1.2169,1.223,1.2271,1.2271,1.2271,1.2305,1.2386,1.2461,1.2501,1.2501,1.2501,1.2501,1.2501,1.2501,1.2501,1.2501,1.2352,1.2271,1.2271,1.2271,1.2271,1.2271,1.2271,1.2271,1.2271,1.2271,1.2271,1.2271,1.2271,1.2271,1.2271,1.2271,1.2271,1.2271,1.2271,1.2271,1.2271,1.2271,1.2271,1.2271,1.2271,1.2271,1.2271,1.2271,1.2271,1.2257,1.2189,1.2169,1.2155,1.2155,1.2006,1.1938,1.1938,1.183,1.1701,1.1633,1.1619,1.1619,1.1619,1.1619,1.1592,1.1511,1.1443,1.1362,1.1287,1.1145,1.1118,1.1255,1.1254,1.1333,1.167,1.1738,1.188,1.2217,1.2419,1.2621,1.2823,1.2903,1.3094,1.3222,1.3319,1.3368,1.3368,1.3368,1.3417,1.3498,1.3498,1.3539,1.362,1.3539,1.3498,1.3506,1.3587,1.362,1.3698,1.4248,1.4875,1.5649,1.7135,1.8714,2.0311,2.1158,2.2104,2.2928,2.2928,2.2928,2.2928,1.2135,1.2135,1.2149,1.2094,1.2101,1.2108,1.2135,1.2244,1.2325,1.2325,1.2427,1.2501,1.2501,1.2501,1.2501,1.2501,1.2501,1.2501,1.2501,1.2501,1.2501,1.2501,1.2501,1.2501,1.2501,1.2501,1.2501,1.2501,1.2501,1.2501,1.2501,1.2501,1.2501,1.2501,1.2501,1.2501,1.2501,1.2501,1.2501,1.2501,1.2501,1.2501,1.2501,1.2501,1.2501,1.2501,1.2501,1.2501,1.2501,1.2501,1.2501,1.2501,1.2501,1.2501,1.2481,1.2359,1.2325,1.2298,1.2169,1.2121,1.2101,1.2101,1.1986,1.1837,1.1721,1.1653,1.1619,1.1619,1.1619,1.1619,1.1619,1.1518,1.143,1.143,1.1301,1.1337,1.1614,1.1662,1.1855,1.2268,1.2406,1.2612,1.2887,1.3231,1.3368,1.3299,1.3401,1.3417,1.3348,1.3449,1.3465,1.3465,1.3465,1.353,1.3615,1.3623,1.3758,1.3896,1.3758,1.3623,1.3693,1.3839,1.3904,1.3904,1.4332,1.4901,1.5673,1.6866,1.8401,2.0156,2.0931,2.1897,2.2928,2.2928,2.2928,2.2928,1.2135,1.2135,1.2101,1.2237,1.2257,1.2298,1.2427,1.2461,1.2474,1.2474,1.2488,1.2501,1.2501,1.2501,1.2501,1.2501,1.2501,1.2501,1.2501,1.2501,1.2501,1.2501,1.2501,1.2501,1.2501,1.2501,1.2501,1.2501,1.2501,1.2501,1.2501,1.2501,1.2501,1.2501,1.2501,1.2501,1.2501,1.2501,1.2501,1.2501,1.2501,1.2501,1.2501,1.2501,1.2501,1.2501,1.2501,1.2501,1.2501,1.2501,1.2501,1.2501,1.2501,1.2501,1.2501,1.2481,1.2474,1.2467,1.2447,1.2352,1.2257,1.2257,1.2142,1.2026,1.2006,1.1803,1.1619,1.1619,1.1619,1.1619,1.1619,1.1599,1.1586,1.1586,1.1457,1.1362,1.1432,1.1594,1.1855,1.2268,1.2887,1.3299,1.3299,1.3368,1.3231,1.2887,1.3306,1.3464,1.3184,1.3609,1.3831,1.3831,1.3831,1.3839,1.3863,1.3863,1.388,1.3904,1.388,1.3863,1.3863,1.3888,1.3904,1.3904,1.4332,1.4901,1.5673,1.6866,1.8401,2.0156,2.0931,2.1897,2.2928,2.2928,2.2928,2.2928,1.2311,1.2311,1.2332,1.2393,1.2406,1.2427,1.2494,1.2501,1.2501,1.2501,1.2501,1.2501,1.2501,1.2501,1.2501,1.2501,1.2501,1.2535,1.2623,1.263,1.2664,1.2752,1.2759,1.2759,1.2759,1.2671,1.263,1.263,1.2542,1.2501,1.2501,1.2501,1.2501,1.2501,1.2501,1.2501,1.2501,1.2501,1.2501,1.2501,1.2501,1.2501,1.2501,1.2501,1.2501,1.2501,1.2501,1.2501,1.2501,1.2501,1.2501,1.2501,1.2501,1.2501,1.2501,1.2501,1.2501,1.2501,1.2501,1.2454,1.2406,1.2406,1.2298,1.2189,1.2189,1.202,1.1843,1.1755,1.1674,1.1619,1.1619,1.1619,1.1619,1.1619,1.1565,1.1589,1.1803,1.1882,1.2122,1.2537,1.2888,1.3029,1.3029,1.3029,1.2959,1.2818,1.3036,1.3145,1.3216,1.3428,1.3682,1.3904,1.3904,1.3904,1.3904,1.3904,1.3904,1.3904,1.3904,1.3904,1.3904,1.3904,1.3904,1.3904,1.4118,1.4617,1.5328,1.631,1.7921,1.9808,2.0584,2.176,2.2928,2.2928,2.2928,2.2928]}]]